<?xml version='1.0' encoding='UTF-8'?>
<gpx version="1.1" creator="https://www.komoot.de" xmlns="http://www.topografix.com/GPX/1/1" xmlns:xsi="http://www.w3.org/2001/XMLSchema-instance" xsi:schemaLocation="http://www.topografix.com/GPX/1/1 http://www.topografix.com/GPX/1/1/gpx.xsd">
  <metadata>
    <name>GVA-MAR - Day 7</name>
    <author>
      <link href="https://www.komoot.de">
        <text>komoot</text>
        <type>text/html</type>
      </link>
    </author>
  </metadata>
  <trk>
    <name>GVA-MAR - Day 7</name>
    <trkseg>
      <trkpt lat="44.363558" lon="4.693719">
        <ele>53.805652</ele>
        <time>2017-06-04T16:10:34.450Z</time>
      </trkpt>
      <trkpt lat="44.363370" lon="4.693699">
        <ele>53.805652</ele>
        <time>2017-06-04T16:10:38.657Z</time>
      </trkpt>
      <trkpt lat="44.363157" lon="4.693620">
        <ele>53.805652</ele>
        <time>2017-06-04T16:10:43.573Z</time>
      </trkpt>
      <trkpt lat="44.362911" lon="4.693581">
        <ele>53.805652</ele>
        <time>2017-06-04T16:10:49.069Z</time>
      </trkpt>
      <trkpt lat="44.362581" lon="4.693526">
        <ele>53.764339</ele>
        <time>2017-06-04T16:10:56.497Z</time>
      </trkpt>
      <trkpt lat="44.362369" lon="4.693491">
        <ele>53.665793</ele>
        <time>2017-06-04T16:11:01.242Z</time>
      </trkpt>
      <trkpt lat="44.361913" lon="4.693425">
        <ele>53.454164</ele>
        <time>2017-06-04T16:11:10.951Z</time>
      </trkpt>
      <trkpt lat="44.361436" lon="4.693280">
        <ele>53.228823</ele>
        <time>2017-06-04T16:11:20.916Z</time>
      </trkpt>
      <trkpt lat="44.361145" lon="4.693119">
        <ele>53.084360</ele>
        <time>2017-06-04T16:11:27.176Z</time>
      </trkpt>
      <trkpt lat="44.361027" lon="4.693057">
        <ele>53.026170</ele>
        <time>2017-06-04T16:11:29.708Z</time>
      </trkpt>
      <trkpt lat="44.361013" lon="4.693217">
        <ele>52.971079</ele>
        <time>2017-06-04T16:11:31.941Z</time>
      </trkpt>
      <trkpt lat="44.360947" lon="4.693620">
        <ele>52.725599</ele>
        <time>2017-06-04T16:11:37.640Z</time>
      </trkpt>
      <trkpt lat="44.360757" lon="4.694672">
        <ele>52.081348</ele>
        <time>2017-06-04T16:11:52.733Z</time>
      </trkpt>
      <trkpt lat="44.360596" lon="4.695475">
        <ele>51.586169</ele>
        <time>2017-06-04T16:12:04.555Z</time>
      </trkpt>
      <trkpt lat="44.360546" lon="4.695564">
        <ele>51.518962</ele>
        <time>2017-06-04T16:12:06.039Z</time>
      </trkpt>
      <trkpt lat="44.360498" lon="4.695571">
        <ele>51.481409</ele>
        <time>2017-06-04T16:12:07.047Z</time>
      </trkpt>
      <trkpt lat="44.360380" lon="4.695613">
        <ele>51.474560</ele>
        <time>2017-06-04T16:12:09.572Z</time>
      </trkpt>
      <trkpt lat="44.360326" lon="4.695632">
        <ele>51.471428</ele>
        <time>2017-06-04T16:12:10.733Z</time>
      </trkpt>
      <trkpt lat="44.360301" lon="4.695615">
        <ele>51.469864</ele>
        <time>2017-06-04T16:12:11.324Z</time>
      </trkpt>
      <trkpt lat="44.360275" lon="4.695604">
        <ele>51.468336</ele>
        <time>2017-06-04T16:12:11.887Z</time>
      </trkpt>
      <trkpt lat="44.360224" lon="4.695602">
        <ele>51.465466</ele>
        <time>2017-06-04T16:12:12.849Z</time>
      </trkpt>
      <trkpt lat="44.360175" lon="4.695623">
        <ele>51.462584</ele>
        <time>2017-06-04T16:12:13.847Z</time>
      </trkpt>
      <trkpt lat="44.360134" lon="4.695665">
        <ele>51.459725</ele>
        <time>2017-06-04T16:12:14.958Z</time>
      </trkpt>
      <trkpt lat="44.360105" lon="4.695719">
        <ele>51.457009</ele>
        <time>2017-06-04T16:12:16.030Z</time>
      </trkpt>
      <trkpt lat="44.360090" lon="4.695850">
        <ele>51.451673</ele>
        <time>2017-06-04T16:12:18.060Z</time>
      </trkpt>
      <trkpt lat="44.360104" lon="4.695914">
        <ele>51.448981</ele>
        <time>2017-06-04T16:12:19.175Z</time>
      </trkpt>
      <trkpt lat="44.360058" lon="4.696240">
        <ele>51.435618</ele>
        <time>2017-06-04T16:12:24.322Z</time>
      </trkpt>
      <trkpt lat="44.359947" lon="4.696978">
        <ele>51.405287</ele>
        <time>2017-06-04T16:12:36.791Z</time>
      </trkpt>
      <trkpt lat="44.359875" lon="4.697812">
        <ele>51.410602</ele>
        <time>2017-06-04T16:12:51.134Z</time>
      </trkpt>
      <trkpt lat="44.359881" lon="4.698021">
        <ele>51.439086</ele>
        <time>2017-06-04T16:12:54.714Z</time>
      </trkpt>
      <trkpt lat="44.359818" lon="4.699175">
        <ele>51.596694</ele>
        <time>2017-06-04T16:13:13.435Z</time>
      </trkpt>
      <trkpt lat="44.359743" lon="4.701188">
        <ele>51.887396</ele>
        <time>2017-06-04T16:13:46.715Z</time>
      </trkpt>
      <trkpt lat="44.359730" lon="4.701634">
        <ele>51.954828</ele>
        <time>2017-06-04T16:13:54.000Z</time>
      </trkpt>
      <trkpt lat="44.359705" lon="4.702227">
        <ele>52.044566</ele>
        <time>2017-06-04T16:14:03.901Z</time>
      </trkpt>
      <trkpt lat="44.359629" lon="4.704221">
        <ele>52.538791</ele>
        <time>2017-06-04T16:14:37.267Z</time>
      </trkpt>
      <trkpt lat="44.359597" lon="4.705210">
        <ele>52.828343</ele>
        <time>2017-06-04T16:14:54.519Z</time>
      </trkpt>
      <trkpt lat="44.359600" lon="4.705695">
        <ele>53.084084</ele>
        <time>2017-06-04T16:15:03.195Z</time>
      </trkpt>
      <trkpt lat="44.359601" lon="4.705782">
        <ele>53.129963</ele>
        <time>2017-06-04T16:15:04.788Z</time>
      </trkpt>
      <trkpt lat="44.359603" lon="4.706006">
        <ele>53.248084</ele>
        <time>2017-06-04T16:15:08.898Z</time>
      </trkpt>
      <trkpt lat="44.359615" lon="4.706210">
        <ele>53.356012</ele>
        <time>2017-06-04T16:15:12.477Z</time>
      </trkpt>
      <trkpt lat="44.359637" lon="4.706605">
        <ele>53.564919</ele>
        <time>2017-06-04T16:15:19.712Z</time>
      </trkpt>
      <trkpt lat="44.359624" lon="4.706971">
        <ele>53.758142</ele>
        <time>2017-06-04T16:15:28.352Z</time>
      </trkpt>
      <trkpt lat="44.359438" lon="4.710157">
        <ele>55.382943</ele>
        <time>2017-06-04T16:16:42.587Z</time>
      </trkpt>
      <trkpt lat="44.359442" lon="4.710275">
        <ele>55.399884</ele>
        <time>2017-06-04T16:16:45.329Z</time>
      </trkpt>
      <trkpt lat="44.358834" lon="4.710668">
        <ele>55.534224</ele>
        <time>2017-06-04T16:17:00.781Z</time>
      </trkpt>
      <trkpt lat="44.357817" lon="4.711585">
        <ele>55.685249</ele>
        <time>2017-06-04T16:17:29.767Z</time>
      </trkpt>
      <trkpt lat="44.357676" lon="4.711768">
        <ele>55.622863</ele>
        <time>2017-06-04T16:17:34.126Z</time>
      </trkpt>
      <trkpt lat="44.357491" lon="4.711919">
        <ele>55.553392</ele>
        <time>2017-06-04T16:17:39.094Z</time>
      </trkpt>
      <trkpt lat="44.357289" lon="4.712080">
        <ele>55.477987</ele>
        <time>2017-06-04T16:17:44.312Z</time>
      </trkpt>
      <trkpt lat="44.357175" lon="4.712181">
        <ele>55.434219</ele>
        <time>2017-06-04T16:17:47.356Z</time>
      </trkpt>
      <trkpt lat="44.356401" lon="4.712916">
        <ele>55.065413</ele>
        <time>2017-06-04T16:18:07.476Z</time>
      </trkpt>
      <trkpt lat="44.355411" lon="4.713886">
        <ele>53.749564</ele>
        <time>2017-06-04T16:18:31.107Z</time>
      </trkpt>
      <trkpt lat="44.355086" lon="4.713974">
        <ele>53.389204</ele>
        <time>2017-06-04T16:18:37.526Z</time>
      </trkpt>
      <trkpt lat="44.352953" lon="4.714306">
        <ele>52.001489</ele>
        <time>2017-06-04T16:19:22.473Z</time>
      </trkpt>
      <trkpt lat="44.352736" lon="4.714362">
        <ele>52.016272</ele>
        <time>2017-06-04T16:19:27.618Z</time>
      </trkpt>
      <trkpt lat="44.352685" lon="4.715530">
        <ele>52.072326</ele>
        <time>2017-06-04T16:19:47.825Z</time>
      </trkpt>
      <trkpt lat="44.352598" lon="4.716585">
        <ele>52.136545</ele>
        <time>2017-06-04T16:20:06.456Z</time>
      </trkpt>
      <trkpt lat="44.352444" lon="4.719804">
        <ele>52.678925</ele>
        <time>2017-06-04T16:21:00.877Z</time>
      </trkpt>
      <trkpt lat="44.352302" lon="4.722766">
        <ele>53.714094</ele>
        <time>2017-06-04T16:21:56.173Z</time>
      </trkpt>
      <trkpt lat="44.352280" lon="4.723083">
        <ele>53.831537</ele>
        <time>2017-06-04T16:22:02.032Z</time>
      </trkpt>
      <trkpt lat="44.351878" lon="4.729879">
        <ele>54.706175</ele>
        <time>2017-06-04T16:23:58.129Z</time>
      </trkpt>
      <trkpt lat="44.351794" lon="4.729843">
        <ele>54.712747</ele>
        <time>2017-06-04T16:24:00.142Z</time>
      </trkpt>
      <trkpt lat="44.351706" lon="4.729860">
        <ele>54.719393</ele>
        <time>2017-06-04T16:24:02.196Z</time>
      </trkpt>
      <trkpt lat="44.351632" lon="4.729927">
        <ele>54.725988</ele>
        <time>2017-06-04T16:24:04.059Z</time>
      </trkpt>
      <trkpt lat="44.351591" lon="4.730012">
        <ele>54.731472</ele>
        <time>2017-06-04T16:24:05.824Z</time>
      </trkpt>
      <trkpt lat="44.351574" lon="4.730113">
        <ele>54.737023</ele>
        <time>2017-06-04T16:24:07.434Z</time>
      </trkpt>
      <trkpt lat="44.351584" lon="4.730215">
        <ele>54.742530</ele>
        <time>2017-06-04T16:24:09.224Z</time>
      </trkpt>
      <trkpt lat="44.351593" lon="4.730247">
        <ele>54.744370</ele>
        <time>2017-06-04T16:24:09.806Z</time>
      </trkpt>
      <trkpt lat="44.351461" lon="4.730324">
        <ele>54.755069</ele>
        <time>2017-06-04T16:24:12.875Z</time>
      </trkpt>
      <trkpt lat="44.350803" lon="4.730455">
        <ele>54.743874</ele>
        <time>2017-06-04T16:24:27.750Z</time>
      </trkpt>
      <trkpt lat="44.347458" lon="4.730860">
        <ele>54.100697</ele>
        <time>2017-06-04T16:25:39.663Z</time>
      </trkpt>
      <trkpt lat="44.344124" lon="4.731367">
        <ele>53.546781</ele>
        <time>2017-06-04T16:26:51.905Z</time>
      </trkpt>
      <trkpt lat="44.342866" lon="4.731457">
        <ele>53.303588</ele>
        <time>2017-06-04T16:27:19.993Z</time>
      </trkpt>
      <trkpt lat="44.339124" lon="4.731970">
        <ele>51.937350</ele>
        <time>2017-06-04T16:28:37.559Z</time>
      </trkpt>
      <trkpt lat="44.338910" lon="4.731884">
        <ele>51.867748</ele>
        <time>2017-06-04T16:28:42.317Z</time>
      </trkpt>
      <trkpt lat="44.338851" lon="4.731740">
        <ele>51.830646</ele>
        <time>2017-06-04T16:28:44.720Z</time>
      </trkpt>
      <trkpt lat="44.338737" lon="4.731697">
        <ele>51.793737</ele>
        <time>2017-06-04T16:28:47.371Z</time>
      </trkpt>
      <trkpt lat="44.338635" lon="4.731778">
        <ele>51.757070</ele>
        <time>2017-06-04T16:28:49.978Z</time>
      </trkpt>
      <trkpt lat="44.338604" lon="4.731937">
        <ele>51.793915</ele>
        <time>2017-06-04T16:28:52.437Z</time>
      </trkpt>
      <trkpt lat="44.338433" lon="4.732087">
        <ele>51.901579</ele>
        <time>2017-06-04T16:28:57.107Z</time>
      </trkpt>
      <trkpt lat="44.335502" lon="4.732423">
        <ele>53.327131</ele>
        <time>2017-06-04T16:30:10.849Z</time>
      </trkpt>
      <trkpt lat="44.335070" lon="4.732334">
        <ele>53.447984</ele>
        <time>2017-06-04T16:30:20.066Z</time>
      </trkpt>
      <trkpt lat="44.334725" lon="4.732033">
        <ele>53.222062</ele>
        <time>2017-06-04T16:30:28.352Z</time>
      </trkpt>
      <trkpt lat="44.334472" lon="4.731566">
        <ele>52.989270</ele>
        <time>2017-06-04T16:30:36.943Z</time>
      </trkpt>
      <trkpt lat="44.334337" lon="4.730939">
        <ele>52.729076</ele>
        <time>2017-06-04T16:30:46.295Z</time>
      </trkpt>
      <trkpt lat="44.334299" lon="4.730350">
        <ele>52.494076</ele>
        <time>2017-06-04T16:30:54.588Z</time>
      </trkpt>
      <trkpt lat="44.334252" lon="4.729644">
        <ele>52.566609</ele>
        <time>2017-06-04T16:31:04.869Z</time>
      </trkpt>
      <trkpt lat="44.334151" lon="4.729050">
        <ele>52.636708</ele>
        <time>2017-06-04T16:31:14.349Z</time>
      </trkpt>
      <trkpt lat="44.333950" lon="4.728589">
        <ele>52.698694</ele>
        <time>2017-06-04T16:31:24.039Z</time>
      </trkpt>
      <trkpt lat="44.333542" lon="4.728277">
        <ele>52.773341</ele>
        <time>2017-06-04T16:31:36.257Z</time>
      </trkpt>
      <trkpt lat="44.333084" lon="4.728246">
        <ele>52.995704</ele>
        <time>2017-06-04T16:31:48.074Z</time>
      </trkpt>
      <trkpt lat="44.332298" lon="4.728370">
        <ele>53.388527</ele>
        <time>2017-06-04T16:32:07.881Z</time>
      </trkpt>
      <trkpt lat="44.328333" lon="4.728956">
        <ele>53.412565</ele>
        <time>2017-06-04T16:33:35.071Z</time>
      </trkpt>
      <trkpt lat="44.326888" lon="4.729221">
        <ele>53.497794</ele>
        <time>2017-06-04T16:34:07.644Z</time>
      </trkpt>
      <trkpt lat="44.326373" lon="4.729316">
        <ele>53.537348</ele>
        <time>2017-06-04T16:34:19.667Z</time>
      </trkpt>
      <trkpt lat="44.326126" lon="4.729361">
        <ele>53.557903</ele>
        <time>2017-06-04T16:34:25.506Z</time>
      </trkpt>
      <trkpt lat="44.322127" lon="4.730095">
        <ele>53.059005</ele>
        <time>2017-06-04T16:35:55.833Z</time>
      </trkpt>
      <trkpt lat="44.321154" lon="4.730250">
        <ele>52.088019</ele>
        <time>2017-06-04T16:36:13.657Z</time>
      </trkpt>
      <trkpt lat="44.321028" lon="4.729998">
        <ele>51.827787</ele>
        <time>2017-06-04T16:36:17.602Z</time>
      </trkpt>
      <trkpt lat="44.320916" lon="4.729971">
        <ele>51.661100</ele>
        <time>2017-06-04T16:36:19.582Z</time>
      </trkpt>
      <trkpt lat="44.320812" lon="4.729945">
        <ele>51.506151</ele>
        <time>2017-06-04T16:36:21.494Z</time>
      </trkpt>
      <trkpt lat="44.320717" lon="4.730037">
        <ele>51.336648</ele>
        <time>2017-06-04T16:36:23.557Z</time>
      </trkpt>
      <trkpt lat="44.320632" lon="4.730120">
        <ele>51.184577</ele>
        <time>2017-06-04T16:36:25.353Z</time>
      </trkpt>
      <trkpt lat="44.320593" lon="4.730422">
        <ele>50.862572</ele>
        <time>2017-06-04T16:36:29.297Z</time>
      </trkpt>
      <trkpt lat="44.320195" lon="4.730581">
        <ele>50.255482</ele>
        <time>2017-06-04T16:36:36.790Z</time>
      </trkpt>
      <trkpt lat="44.319867" lon="4.731206">
        <ele>49.442158</ele>
        <time>2017-06-04T16:36:47.077Z</time>
      </trkpt>
      <trkpt lat="44.319398" lon="4.732975">
        <ele>49.033175</ele>
        <time>2017-06-04T16:37:15.468Z</time>
      </trkpt>
      <trkpt lat="44.319003" lon="4.734443">
        <ele>49.077412</ele>
        <time>2017-06-04T16:37:42.267Z</time>
      </trkpt>
      <trkpt lat="44.318478" lon="4.734934">
        <ele>49.253847</ele>
        <time>2017-06-04T16:37:57.373Z</time>
      </trkpt>
      <trkpt lat="44.315871" lon="4.734850">
        <ele>49.591346</ele>
        <time>2017-06-04T16:38:56.072Z</time>
      </trkpt>
      <trkpt lat="44.313790" lon="4.734851">
        <ele>50.028142</ele>
        <time>2017-06-04T16:39:43.452Z</time>
      </trkpt>
      <trkpt lat="44.312649" lon="4.735069">
        <ele>50.536780</ele>
        <time>2017-06-04T16:40:11.549Z</time>
      </trkpt>
      <trkpt lat="44.312181" lon="4.735232">
        <ele>50.850472</ele>
        <time>2017-06-04T16:40:23.585Z</time>
      </trkpt>
      <trkpt lat="44.311506" lon="4.735313">
        <ele>51.344765</ele>
        <time>2017-06-04T16:40:40.613Z</time>
      </trkpt>
      <trkpt lat="44.309834" lon="4.735279">
        <ele>52.558428</ele>
        <time>2017-06-04T16:41:23.037Z</time>
      </trkpt>
      <trkpt lat="44.308920" lon="4.735340">
        <ele>53.209959</ele>
        <time>2017-06-04T16:41:45.983Z</time>
      </trkpt>
      <trkpt lat="44.308681" lon="4.735400">
        <ele>53.248251</ele>
        <time>2017-06-04T16:41:51.917Z</time>
      </trkpt>
      <trkpt lat="44.308081" lon="4.735758">
        <ele>53.351129</ele>
        <time>2017-06-04T16:42:07.551Z</time>
      </trkpt>
      <trkpt lat="44.306074" lon="4.737465">
        <ele>52.816424</ele>
        <time>2017-06-04T16:42:57.924Z</time>
      </trkpt>
      <trkpt lat="44.304801" lon="4.738475">
        <ele>51.107865</ele>
        <time>2017-06-04T16:43:25.421Z</time>
      </trkpt>
      <trkpt lat="44.304298" lon="4.738792">
        <ele>50.347987</ele>
        <time>2017-06-04T16:43:35.427Z</time>
      </trkpt>
      <trkpt lat="44.304285" lon="4.738818">
        <ele>50.316729</ele>
        <time>2017-06-04T16:43:35.757Z</time>
      </trkpt>
      <trkpt lat="44.304018" lon="4.739354">
        <ele>49.780759</ele>
        <time>2017-06-04T16:43:44.217Z</time>
      </trkpt>
      <trkpt lat="44.303687" lon="4.740342">
        <ele>48.931799</ele>
        <time>2017-06-04T16:43:58.562Z</time>
      </trkpt>
      <trkpt lat="44.303663" lon="4.740789">
        <ele>48.582957</ele>
        <time>2017-06-04T16:44:04.763Z</time>
      </trkpt>
      <trkpt lat="44.303590" lon="4.741537">
        <ele>48.500681</ele>
        <time>2017-06-04T16:44:16.095Z</time>
      </trkpt>
      <trkpt lat="44.303350" lon="4.744491">
        <ele>51.980912</ele>
        <time>2017-06-04T16:45:17.605Z</time>
      </trkpt>
      <trkpt lat="44.303323" lon="4.744692">
        <ele>52.378046</ele>
        <time>2017-06-04T16:45:23.509Z</time>
      </trkpt>
      <trkpt lat="44.303278" lon="4.744946">
        <ele>52.886172</ele>
        <time>2017-06-04T16:45:29.296Z</time>
      </trkpt>
      <trkpt lat="44.303175" lon="4.745142">
        <ele>53.358373</ele>
        <time>2017-06-04T16:45:36.119Z</time>
      </trkpt>
      <trkpt lat="44.302666" lon="4.745488">
        <ele>54.894273</ele>
        <time>2017-06-04T16:45:55.257Z</time>
      </trkpt>
      <trkpt lat="44.302030" lon="4.745769">
        <ele>56.706669</ele>
        <time>2017-06-04T16:46:18.982Z</time>
      </trkpt>
      <trkpt lat="44.301702" lon="4.745858">
        <ele>57.614976</ele>
        <time>2017-06-04T16:46:29.785Z</time>
      </trkpt>
      <trkpt lat="44.301337" lon="4.745886">
        <ele>58.608703</ele>
        <time>2017-06-04T16:46:41.849Z</time>
      </trkpt>
      <trkpt lat="44.300733" lon="4.745810">
        <ele>60.257290</ele>
        <time>2017-06-04T16:47:01.707Z</time>
      </trkpt>
      <trkpt lat="44.300416" lon="4.745752">
        <ele>60.658900</ele>
        <time>2017-06-04T16:47:11.668Z</time>
      </trkpt>
      <trkpt lat="44.300051" lon="4.745666">
        <ele>61.112128</ele>
        <time>2017-06-04T16:47:22.374Z</time>
      </trkpt>
      <trkpt lat="44.299453" lon="4.745535">
        <ele>61.853285</ele>
        <time>2017-06-04T16:47:38.273Z</time>
      </trkpt>
      <trkpt lat="44.299400" lon="4.745563">
        <ele>61.922664</ele>
        <time>2017-06-04T16:47:40.298Z</time>
      </trkpt>
      <trkpt lat="44.299349" lon="4.745644">
        <ele>62.017205</ele>
        <time>2017-06-04T16:47:42.012Z</time>
      </trkpt>
      <trkpt lat="44.299311" lon="4.745827">
        <ele>62.184187</ele>
        <time>2017-06-04T16:47:45.205Z</time>
      </trkpt>
      <trkpt lat="44.299061" lon="4.747055">
        <ele>62.374874</ele>
        <time>2017-06-04T16:48:05.570Z</time>
      </trkpt>
      <trkpt lat="44.298770" lon="4.748476">
        <ele>62.212825</ele>
        <time>2017-06-04T16:48:27.541Z</time>
      </trkpt>
      <trkpt lat="44.298730" lon="4.748671">
        <ele>62.233666</ele>
        <time>2017-06-04T16:48:30.605Z</time>
      </trkpt>
      <trkpt lat="44.298592" lon="4.749343">
        <ele>62.433052</ele>
        <time>2017-06-04T16:48:42.087Z</time>
      </trkpt>
      <trkpt lat="44.298552" lon="4.749709">
        <ele>62.538644</ele>
        <time>2017-06-04T16:48:47.959Z</time>
      </trkpt>
      <trkpt lat="44.298587" lon="4.749759">
        <ele>62.558590</ele>
        <time>2017-06-04T16:48:49.395Z</time>
      </trkpt>
      <trkpt lat="44.298528" lon="4.749802">
        <ele>62.585107</ele>
        <time>2017-06-04T16:48:50.922Z</time>
      </trkpt>
      <trkpt lat="44.298496" lon="4.749846">
        <ele>62.602997</ele>
        <time>2017-06-04T16:48:51.849Z</time>
      </trkpt>
      <trkpt lat="44.298482" lon="4.749882">
        <ele>62.614682</ele>
        <time>2017-06-04T16:48:52.641Z</time>
      </trkpt>
      <trkpt lat="44.298458" lon="4.749948">
        <ele>62.635795</ele>
        <time>2017-06-04T16:48:53.892Z</time>
      </trkpt>
      <trkpt lat="44.298454" lon="4.750062">
        <ele>62.668347</ele>
        <time>2017-06-04T16:48:55.800Z</time>
      </trkpt>
      <trkpt lat="44.297493" lon="4.750965">
        <ele>63.206372</ele>
        <time>2017-06-04T16:49:26.334Z</time>
      </trkpt>
      <trkpt lat="44.297408" lon="4.751050">
        <ele>63.263166</ele>
        <time>2017-06-04T16:49:28.933Z</time>
      </trkpt>
      <trkpt lat="44.296201" lon="4.752152">
        <ele>63.868809</ele>
        <time>2017-06-04T16:50:02.843Z</time>
      </trkpt>
      <trkpt lat="44.295855" lon="4.752431">
        <ele>63.828693</ele>
        <time>2017-06-04T16:50:12.135Z</time>
      </trkpt>
      <trkpt lat="44.295720" lon="4.752528">
        <ele>63.813449</ele>
        <time>2017-06-04T16:50:15.494Z</time>
      </trkpt>
      <trkpt lat="44.295639" lon="4.752585">
        <ele>63.804342</ele>
        <time>2017-06-04T16:50:17.506Z</time>
      </trkpt>
      <trkpt lat="44.295505" lon="4.752659">
        <ele>63.789873</ele>
        <time>2017-06-04T16:50:20.747Z</time>
      </trkpt>
      <trkpt lat="44.295391" lon="4.752721">
        <ele>63.777589</ele>
        <time>2017-06-04T16:50:23.316Z</time>
      </trkpt>
      <trkpt lat="44.294960" lon="4.752883">
        <ele>63.732770</ele>
        <time>2017-06-04T16:50:32.625Z</time>
      </trkpt>
      <trkpt lat="44.294453" lon="4.753017">
        <ele>63.578077</ele>
        <time>2017-06-04T16:50:42.938Z</time>
      </trkpt>
      <trkpt lat="44.294106" lon="4.753054">
        <ele>63.440319</ele>
        <time>2017-06-04T16:50:49.865Z</time>
      </trkpt>
      <trkpt lat="44.293667" lon="4.753097">
        <ele>63.266115</ele>
        <time>2017-06-04T16:50:59.012Z</time>
      </trkpt>
      <trkpt lat="44.293468" lon="4.753022">
        <ele>63.184525</ele>
        <time>2017-06-04T16:51:03.441Z</time>
      </trkpt>
      <trkpt lat="44.293428" lon="4.752956">
        <ele>63.160022</ele>
        <time>2017-06-04T16:51:04.771Z</time>
      </trkpt>
      <trkpt lat="44.293389" lon="4.752922">
        <ele>63.141825</ele>
        <time>2017-06-04T16:51:05.739Z</time>
      </trkpt>
      <trkpt lat="44.293330" lon="4.752899">
        <ele>63.117577</ele>
        <time>2017-06-04T16:51:07.052Z</time>
      </trkpt>
      <trkpt lat="44.293253" lon="4.752913">
        <ele>63.086840</ele>
        <time>2017-06-04T16:51:08.727Z</time>
      </trkpt>
      <trkpt lat="44.293199" lon="4.752956">
        <ele>63.062236</ele>
        <time>2017-06-04T16:51:10.087Z</time>
      </trkpt>
      <trkpt lat="44.293169" lon="4.753001">
        <ele>63.044812</ele>
        <time>2017-06-04T16:51:11.061Z</time>
      </trkpt>
      <trkpt lat="44.293026" lon="4.753098">
        <ele>63.006865</ele>
        <time>2017-06-04T16:51:14.503Z</time>
      </trkpt>
      <trkpt lat="44.292119" lon="4.753240">
        <ele>63.054891</ele>
        <time>2017-06-04T16:51:34.867Z</time>
      </trkpt>
      <trkpt lat="44.291570" lon="4.753303">
        <ele>63.083877</ele>
        <time>2017-06-04T16:51:47.471Z</time>
      </trkpt>
      <trkpt lat="44.291121" lon="4.753274">
        <ele>63.034550</ele>
        <time>2017-06-04T16:51:57.864Z</time>
      </trkpt>
      <trkpt lat="44.290787" lon="4.753211">
        <ele>62.907652</ele>
        <time>2017-06-04T16:52:05.410Z</time>
      </trkpt>
      <trkpt lat="44.290578" lon="4.753172">
        <ele>62.828261</ele>
        <time>2017-06-04T16:52:10.019Z</time>
      </trkpt>
      <trkpt lat="44.289996" lon="4.753009">
        <ele>62.604768</ele>
        <time>2017-06-04T16:52:22.384Z</time>
      </trkpt>
      <trkpt lat="44.289635" lon="4.752786">
        <ele>62.456150</ele>
        <time>2017-06-04T16:52:30.106Z</time>
      </trkpt>
      <trkpt lat="44.289457" lon="4.752607">
        <ele>62.295081</ele>
        <time>2017-06-04T16:52:34.590Z</time>
      </trkpt>
      <trkpt lat="44.289417" lon="4.752536">
        <ele>62.230732</ele>
        <time>2017-06-04T16:52:35.779Z</time>
      </trkpt>
      <trkpt lat="44.289325" lon="4.752428">
        <ele>62.111172</ele>
        <time>2017-06-04T16:52:38.087Z</time>
      </trkpt>
      <trkpt lat="44.289200" lon="4.752269">
        <ele>61.942975</ele>
        <time>2017-06-04T16:52:41.635Z</time>
      </trkpt>
      <trkpt lat="44.289098" lon="4.752095">
        <ele>61.782801</ele>
        <time>2017-06-04T16:52:44.631Z</time>
      </trkpt>
      <trkpt lat="44.288949" lon="4.751776">
        <ele>61.511520</ele>
        <time>2017-06-04T16:52:50.076Z</time>
      </trkpt>
      <trkpt lat="44.288986" lon="4.751334">
        <ele>61.194582</ele>
        <time>2017-06-04T16:52:56.590Z</time>
      </trkpt>
      <trkpt lat="44.288960" lon="4.751262">
        <ele>61.137148</ele>
        <time>2017-06-04T16:52:57.607Z</time>
      </trkpt>
      <trkpt lat="44.288963" lon="4.751219">
        <ele>61.106378</ele>
        <time>2017-06-04T16:52:58.206Z</time>
      </trkpt>
      <trkpt lat="44.288974" lon="4.751002">
        <ele>60.951443</ele>
        <time>2017-06-04T16:53:01.375Z</time>
      </trkpt>
      <trkpt lat="44.288971" lon="4.750788">
        <ele>60.799003</ele>
        <time>2017-06-04T16:53:04.312Z</time>
      </trkpt>
      <trkpt lat="44.288953" lon="4.750604">
        <ele>60.666740</ele>
        <time>2017-06-04T16:53:06.889Z</time>
      </trkpt>
      <trkpt lat="44.288941" lon="4.750526">
        <ele>60.625080</ele>
        <time>2017-06-04T16:53:08.125Z</time>
      </trkpt>
      <trkpt lat="44.288896" lon="4.750328">
        <ele>60.579516</ele>
        <time>2017-06-04T16:53:11.192Z</time>
      </trkpt>
      <trkpt lat="44.288823" lon="4.750149">
        <ele>60.534331</ele>
        <time>2017-06-04T16:53:14.011Z</time>
      </trkpt>
      <trkpt lat="44.288754" lon="4.750032">
        <ele>60.501081</ele>
        <time>2017-06-04T16:53:16.382Z</time>
      </trkpt>
      <trkpt lat="44.288666" lon="4.749936">
        <ele>60.466870</ele>
        <time>2017-06-04T16:53:18.695Z</time>
      </trkpt>
      <trkpt lat="44.288580" lon="4.749887">
        <ele>60.438412</ele>
        <time>2017-06-04T16:53:20.575Z</time>
      </trkpt>
      <trkpt lat="44.288430" lon="4.749843">
        <ele>60.391449</ele>
        <time>2017-06-04T16:53:23.886Z</time>
      </trkpt>
      <trkpt lat="44.288277" lon="4.749863">
        <ele>60.344365</ele>
        <time>2017-06-04T16:53:26.967Z</time>
      </trkpt>
      <trkpt lat="44.288145" lon="4.749964">
        <ele>60.298250</ele>
        <time>2017-06-04T16:53:30.267Z</time>
      </trkpt>
      <trkpt lat="44.288027" lon="4.750122">
        <ele>60.248168</ele>
        <time>2017-06-04T16:53:33.892Z</time>
      </trkpt>
      <trkpt lat="44.287944" lon="4.750345">
        <ele>60.193039</ele>
        <time>2017-06-04T16:53:37.911Z</time>
      </trkpt>
      <trkpt lat="44.287895" lon="4.750591">
        <ele>60.137033</ele>
        <time>2017-06-04T16:53:41.910Z</time>
      </trkpt>
      <trkpt lat="44.287764" lon="4.750759">
        <ele>60.082544</ele>
        <time>2017-06-04T16:53:46.037Z</time>
      </trkpt>
      <trkpt lat="44.287567" lon="4.750840">
        <ele>60.031953</ele>
        <time>2017-06-04T16:53:50.597Z</time>
      </trkpt>
      <trkpt lat="44.287508" lon="4.750843">
        <ele>60.017514</ele>
        <time>2017-06-04T16:53:52.049Z</time>
      </trkpt>
      <trkpt lat="44.287456" lon="4.750845">
        <ele>60.004792</ele>
        <time>2017-06-04T16:53:53.291Z</time>
      </trkpt>
      <trkpt lat="44.287262" lon="4.750843">
        <ele>59.957345</ele>
        <time>2017-06-04T16:53:57.692Z</time>
      </trkpt>
      <trkpt lat="44.287097" lon="4.750839">
        <ele>59.916986</ele>
        <time>2017-06-04T16:54:01.463Z</time>
      </trkpt>
      <trkpt lat="44.286794" lon="4.750832">
        <ele>59.842873</ele>
        <time>2017-06-04T16:54:08.097Z</time>
      </trkpt>
      <trkpt lat="44.286709" lon="4.750829">
        <ele>59.822079</ele>
        <time>2017-06-04T16:54:09.952Z</time>
      </trkpt>
      <trkpt lat="44.286597" lon="4.750818">
        <ele>59.794620</ele>
        <time>2017-06-04T16:54:12.330Z</time>
      </trkpt>
      <trkpt lat="44.286521" lon="4.750758">
        <ele>59.773271</ele>
        <time>2017-06-04T16:54:14.108Z</time>
      </trkpt>
      <trkpt lat="44.286494" lon="4.750744">
        <ele>59.766227</ele>
        <time>2017-06-04T16:54:14.679Z</time>
      </trkpt>
      <trkpt lat="44.286445" lon="4.750759">
        <ele>59.753959</ele>
        <time>2017-06-04T16:54:15.828Z</time>
      </trkpt>
      <trkpt lat="44.286419" lon="4.750789">
        <ele>59.745712</ele>
        <time>2017-06-04T16:54:16.534Z</time>
      </trkpt>
      <trkpt lat="44.286412" lon="4.750820">
        <ele>59.740021</ele>
        <time>2017-06-04T16:54:16.973Z</time>
      </trkpt>
      <trkpt lat="44.286320" lon="4.750818">
        <ele>59.717518</ele>
        <time>2017-06-04T16:54:18.856Z</time>
      </trkpt>
      <trkpt lat="44.285267" lon="4.750800">
        <ele>58.828296</ele>
        <time>2017-06-04T16:54:39.529Z</time>
      </trkpt>
      <trkpt lat="44.285208" lon="4.750799">
        <ele>58.763465</ele>
        <time>2017-06-04T16:54:40.651Z</time>
      </trkpt>
      <trkpt lat="44.285142" lon="4.750780">
        <ele>58.689425</ele>
        <time>2017-06-04T16:54:41.871Z</time>
      </trkpt>
      <trkpt lat="44.285123" lon="4.750754">
        <ele>58.660201</ele>
        <time>2017-06-04T16:54:42.397Z</time>
      </trkpt>
      <trkpt lat="44.285098" lon="4.750741">
        <ele>58.630891</ele>
        <time>2017-06-04T16:54:42.919Z</time>
      </trkpt>
      <trkpt lat="44.285066" lon="4.750743">
        <ele>58.595696</ele>
        <time>2017-06-04T16:54:43.517Z</time>
      </trkpt>
      <trkpt lat="44.285039" lon="4.750764">
        <ele>58.561741</ele>
        <time>2017-06-04T16:54:44.105Z</time>
      </trkpt>
      <trkpt lat="44.285023" lon="4.750794">
        <ele>58.532316</ele>
        <time>2017-06-04T16:54:44.633Z</time>
      </trkpt>
      <trkpt lat="44.284990" lon="4.750789">
        <ele>58.495845</ele>
        <time>2017-06-04T16:54:45.240Z</time>
      </trkpt>
      <trkpt lat="44.284393" lon="4.750789">
        <ele>57.839897</ele>
        <time>2017-06-04T16:54:56.263Z</time>
      </trkpt>
      <trkpt lat="44.284329" lon="4.750742">
        <ele>57.760452</ele>
        <time>2017-06-04T16:54:57.605Z</time>
      </trkpt>
      <trkpt lat="44.284204" lon="4.750741">
        <ele>57.638329</ele>
        <time>2017-06-04T16:54:59.915Z</time>
      </trkpt>
      <trkpt lat="44.284027" lon="4.750740">
        <ele>57.515212</ele>
        <time>2017-06-04T16:55:03.174Z</time>
      </trkpt>
      <trkpt lat="44.283891" lon="4.750739">
        <ele>57.420614</ele>
        <time>2017-06-04T16:55:05.769Z</time>
      </trkpt>
      <trkpt lat="44.283867" lon="4.750745">
        <ele>57.403655</ele>
        <time>2017-06-04T16:55:06.245Z</time>
      </trkpt>
      <trkpt lat="44.283818" lon="4.750772">
        <ele>57.367016</ele>
        <time>2017-06-04T16:55:07.302Z</time>
      </trkpt>
      <trkpt lat="44.283792" lon="4.750777">
        <ele>57.348761</ele>
        <time>2017-06-04T16:55:07.727Z</time>
      </trkpt>
      <trkpt lat="44.283440" lon="4.750774">
        <ele>57.103917</ele>
        <time>2017-06-04T16:55:14.648Z</time>
      </trkpt>
      <trkpt lat="44.283373" lon="4.750775">
        <ele>57.057311</ele>
        <time>2017-06-04T16:55:15.910Z</time>
      </trkpt>
      <trkpt lat="44.283153" lon="4.750775">
        <ele>56.904286</ele>
        <time>2017-06-04T16:55:20.541Z</time>
      </trkpt>
      <trkpt lat="44.282811" lon="4.750761">
        <ele>56.666300</ele>
        <time>2017-06-04T16:55:27.449Z</time>
      </trkpt>
      <trkpt lat="44.282718" lon="4.750747">
        <ele>56.601238</ele>
        <time>2017-06-04T16:55:29.267Z</time>
      </trkpt>
      <trkpt lat="44.282697" lon="4.750722">
        <ele>56.582045</ele>
        <time>2017-06-04T16:55:29.792Z</time>
      </trkpt>
      <trkpt lat="44.282672" lon="4.750714">
        <ele>56.564206</ele>
        <time>2017-06-04T16:55:30.299Z</time>
      </trkpt>
      <trkpt lat="44.282649" lon="4.750720">
        <ele>56.547931</ele>
        <time>2017-06-04T16:55:30.788Z</time>
      </trkpt>
      <trkpt lat="44.282626" lon="4.750745">
        <ele>56.527660</ele>
        <time>2017-06-04T16:55:31.449Z</time>
      </trkpt>
      <trkpt lat="44.282602" lon="4.750756">
        <ele>56.510091</ele>
        <time>2017-06-04T16:55:32.038Z</time>
      </trkpt>
      <trkpt lat="44.282540" lon="4.750774">
        <ele>56.466044</ele>
        <time>2017-06-04T16:55:33.424Z</time>
      </trkpt>
      <trkpt lat="44.282127" lon="4.750775">
        <ele>56.966274</ele>
        <time>2017-06-04T16:55:42.866Z</time>
      </trkpt>
      <trkpt lat="44.282072" lon="4.750770">
        <ele>57.056550</ele>
        <time>2017-06-04T16:55:44.166Z</time>
      </trkpt>
      <trkpt lat="44.282012" lon="4.750781">
        <ele>57.155668</ele>
        <time>2017-06-04T16:55:45.668Z</time>
      </trkpt>
      <trkpt lat="44.281958" lon="4.750753">
        <ele>57.250013</ele>
        <time>2017-06-04T16:55:47.214Z</time>
      </trkpt>
      <trkpt lat="44.281959" lon="4.750684">
        <ele>57.330940</ele>
        <time>2017-06-04T16:55:48.527Z</time>
      </trkpt>
      <trkpt lat="44.281908" lon="4.750576">
        <ele>57.482650</ele>
        <time>2017-06-04T16:55:50.949Z</time>
      </trkpt>
      <trkpt lat="44.281847" lon="4.750549">
        <ele>57.587459</ele>
        <time>2017-06-04T16:55:52.553Z</time>
      </trkpt>
      <trkpt lat="44.281825" lon="4.750551">
        <ele>57.623570</ele>
        <time>2017-06-04T16:55:53.111Z</time>
      </trkpt>
      <trkpt lat="44.281786" lon="4.750569">
        <ele>57.690846</ele>
        <time>2017-06-04T16:55:54.104Z</time>
      </trkpt>
      <trkpt lat="44.281728" lon="4.750678">
        <ele>57.850098</ele>
        <time>2017-06-04T16:55:57.130Z</time>
      </trkpt>
      <trkpt lat="44.281748" lon="4.750811">
        <ele>58.009459</ele>
        <time>2017-06-04T16:55:59.949Z</time>
      </trkpt>
      <trkpt lat="44.281772" lon="4.750846">
        <ele>58.066289</ele>
        <time>2017-06-04T16:56:00.942Z</time>
      </trkpt>
      <trkpt lat="44.281707" lon="4.750919">
        <ele>58.202899</ele>
        <time>2017-06-04T16:56:03.314Z</time>
      </trkpt>
      <trkpt lat="44.281533" lon="4.751402">
        <ele>58.836935</ele>
        <time>2017-06-04T16:56:15.383Z</time>
      </trkpt>
      <trkpt lat="44.281514" lon="4.751423">
        <ele>58.876619</ele>
        <time>2017-06-04T16:56:16.078Z</time>
      </trkpt>
      <trkpt lat="44.281430" lon="4.751442">
        <ele>59.015997</ele>
        <time>2017-06-04T16:56:19.101Z</time>
      </trkpt>
      <trkpt lat="44.280157" lon="4.751713">
        <ele>64.448403</ele>
        <time>2017-06-04T16:57:10.209Z</time>
      </trkpt>
      <trkpt lat="44.279585" lon="4.751766">
        <ele>67.154665</ele>
        <time>2017-06-04T16:57:36.103Z</time>
      </trkpt>
      <trkpt lat="44.279387" lon="4.751771">
        <ele>68.144578</ele>
        <time>2017-06-04T16:57:46.603Z</time>
      </trkpt>
      <trkpt lat="44.279352" lon="4.751828">
        <ele>68.456852</ele>
        <time>2017-06-04T16:57:48.723Z</time>
      </trkpt>
      <trkpt lat="44.279297" lon="4.751927">
        <ele>68.977955</ele>
        <time>2017-06-04T16:57:52.166Z</time>
      </trkpt>
      <trkpt lat="44.279232" lon="4.751866">
        <ele>69.432808</ele>
        <time>2017-06-04T16:57:57.412Z</time>
      </trkpt>
      <trkpt lat="44.279138" lon="4.751769">
        <ele>70.111646</ele>
        <time>2017-06-04T16:58:02.933Z</time>
      </trkpt>
      <trkpt lat="44.278990" lon="4.751726">
        <ele>70.989695</ele>
        <time>2017-06-04T16:58:09.883Z</time>
      </trkpt>
      <trkpt lat="44.278705" lon="4.752073">
        <ele>73.185751</ele>
        <time>2017-06-04T16:58:28.560Z</time>
      </trkpt>
      <trkpt lat="44.278514" lon="4.752228">
        <ele>74.468823</ele>
        <time>2017-06-04T16:58:39.452Z</time>
      </trkpt>
      <trkpt lat="44.278289" lon="4.752320">
        <ele>75.830571</ele>
        <time>2017-06-04T16:58:50.896Z</time>
      </trkpt>
      <trkpt lat="44.277988" lon="4.752377">
        <ele>77.594906</ele>
        <time>2017-06-04T16:59:04.212Z</time>
      </trkpt>
      <trkpt lat="44.277792" lon="4.752366">
        <ele>78.577910</ele>
        <time>2017-06-04T16:59:11.421Z</time>
      </trkpt>
      <trkpt lat="44.277669" lon="4.752265">
        <ele>79.109647</ele>
        <time>2017-06-04T16:59:18.309Z</time>
      </trkpt>
      <trkpt lat="44.277662" lon="4.752198">
        <ele>79.290310</ele>
        <time>2017-06-04T16:59:19.500Z</time>
      </trkpt>
      <trkpt lat="44.277708" lon="4.752081">
        <ele>79.646463</ele>
        <time>2017-06-04T16:59:22.480Z</time>
      </trkpt>
      <trkpt lat="44.277757" lon="4.752051">
        <ele>79.845847</ele>
        <time>2017-06-04T16:59:24.355Z</time>
      </trkpt>
      <trkpt lat="44.278046" lon="4.752137">
        <ele>80.947045</ele>
        <time>2017-06-04T16:59:36.425Z</time>
      </trkpt>
      <trkpt lat="44.278188" lon="4.752083">
        <ele>81.495505</ele>
        <time>2017-06-04T16:59:41.823Z</time>
      </trkpt>
      <trkpt lat="44.278320" lon="4.751948">
        <ele>82.105211</ele>
        <time>2017-06-04T16:59:48.474Z</time>
      </trkpt>
      <trkpt lat="44.278490" lon="4.751666">
        <ele>83.088839</ele>
        <time>2017-06-04T16:59:58.896Z</time>
      </trkpt>
      <trkpt lat="44.278589" lon="4.751478">
        <ele>83.711527</ele>
        <time>2017-06-04T17:00:04.046Z</time>
      </trkpt>
      <trkpt lat="44.278612" lon="4.751326">
        <ele>84.126047</ele>
        <time>2017-06-04T17:00:07.931Z</time>
      </trkpt>
      <trkpt lat="44.278604" lon="4.751188">
        <ele>84.495459</ele>
        <time>2017-06-04T17:00:12.716Z</time>
      </trkpt>
      <trkpt lat="44.278555" lon="4.751087">
        <ele>84.820987</ele>
        <time>2017-06-04T17:00:15.066Z</time>
      </trkpt>
      <trkpt lat="44.278386" lon="4.750948">
        <ele>85.480667</ele>
        <time>2017-06-04T17:00:21.014Z</time>
      </trkpt>
      <trkpt lat="44.278330" lon="4.750910">
        <ele>85.682690</ele>
        <time>2017-06-04T17:00:23.712Z</time>
      </trkpt>
      <trkpt lat="44.278144" lon="4.750780">
        <ele>86.357584</ele>
        <time>2017-06-04T17:00:30.549Z</time>
      </trkpt>
      <trkpt lat="44.278086" lon="4.750972">
        <ele>86.841717</ele>
        <time>2017-06-04T17:00:35.880Z</time>
      </trkpt>
      <trkpt lat="44.277943" lon="4.751129">
        <ele>87.431928</ele>
        <time>2017-06-04T17:00:42.050Z</time>
      </trkpt>
      <trkpt lat="44.277802" lon="4.751153">
        <ele>87.892841</ele>
        <time>2017-06-04T17:00:46.948Z</time>
      </trkpt>
      <trkpt lat="44.276371" lon="4.750555">
        <ele>93.205409</ele>
        <time>2017-06-04T17:01:43.254Z</time>
      </trkpt>
      <trkpt lat="44.276198" lon="4.750488">
        <ele>93.930592</ele>
        <time>2017-06-04T17:01:50.441Z</time>
      </trkpt>
      <trkpt lat="44.275875" lon="4.750348">
        <ele>95.296699</ele>
        <time>2017-06-04T17:02:03.791Z</time>
      </trkpt>
      <trkpt lat="44.275457" lon="4.750182">
        <ele>97.052096</ele>
        <time>2017-06-04T17:02:21.382Z</time>
      </trkpt>
      <trkpt lat="44.275402" lon="4.750160">
        <ele>97.283194</ele>
        <time>2017-06-04T17:02:23.483Z</time>
      </trkpt>
      <trkpt lat="44.274799" lon="4.750056">
        <ele>99.823770</ele>
        <time>2017-06-04T17:02:48.605Z</time>
      </trkpt>
      <trkpt lat="44.274653" lon="4.750096">
        <ele>100.456498</ele>
        <time>2017-06-04T17:02:54.338Z</time>
      </trkpt>
      <trkpt lat="44.274401" lon="4.750149">
        <ele>101.540263</ele>
        <time>2017-06-04T17:03:04.587Z</time>
      </trkpt>
      <trkpt lat="44.273884" lon="4.750264">
        <ele>103.766622</ele>
        <time>2017-06-04T17:03:25.549Z</time>
      </trkpt>
      <trkpt lat="44.273705" lon="4.750339">
        <ele>104.561374</ele>
        <time>2017-06-04T17:03:33.096Z</time>
      </trkpt>
      <trkpt lat="44.273133" lon="4.750779">
        <ele>107.047658</ele>
        <time>2017-06-04T17:03:59.541Z</time>
      </trkpt>
      <trkpt lat="44.272515" lon="4.751697">
        <ele>110.181157</ele>
        <time>2017-06-04T17:04:33.354Z</time>
      </trkpt>
      <trkpt lat="44.272226" lon="4.752127">
        <ele>111.647790</ele>
        <time>2017-06-04T17:04:48.434Z</time>
      </trkpt>
      <trkpt lat="44.272173" lon="4.752207">
        <ele>111.918835</ele>
        <time>2017-06-04T17:04:51.145Z</time>
      </trkpt>
      <trkpt lat="44.270900" lon="4.753410">
        <ele>115.266077</ele>
        <time>2017-06-04T17:05:39.530Z</time>
      </trkpt>
      <trkpt lat="44.270208" lon="4.753951">
        <ele>117.672729</ele>
        <time>2017-06-04T17:06:03.103Z</time>
      </trkpt>
      <trkpt lat="44.269547" lon="4.754350">
        <ele>120.211455</ele>
        <time>2017-06-04T17:06:30.470Z</time>
      </trkpt>
      <trkpt lat="44.269217" lon="4.754509">
        <ele>121.442167</ele>
        <time>2017-06-04T17:06:44.965Z</time>
      </trkpt>
      <trkpt lat="44.268827" lon="4.754651">
        <ele>123.127793</ele>
        <time>2017-06-04T17:07:02.446Z</time>
      </trkpt>
      <trkpt lat="44.268462" lon="4.754723">
        <ele>124.963536</ele>
        <time>2017-06-04T17:07:19.160Z</time>
      </trkpt>
      <trkpt lat="44.268265" lon="4.754788">
        <ele>125.971607</ele>
        <time>2017-06-04T17:07:28.475Z</time>
      </trkpt>
      <trkpt lat="44.268092" lon="4.754896">
        <ele>126.915313</ele>
        <time>2017-06-04T17:07:37.219Z</time>
      </trkpt>
      <trkpt lat="44.267788" lon="4.754966">
        <ele>128.449675</ele>
        <time>2017-06-04T17:07:51.335Z</time>
      </trkpt>
      <trkpt lat="44.266936" lon="4.755004">
        <ele>131.125013</ele>
        <time>2017-06-04T17:08:26.694Z</time>
      </trkpt>
      <trkpt lat="44.266605" lon="4.755086">
        <ele>131.065760</ele>
        <time>2017-06-04T17:08:36.967Z</time>
      </trkpt>
      <trkpt lat="44.266227" lon="4.755092">
        <ele>130.999129</ele>
        <time>2017-06-04T17:08:46.035Z</time>
      </trkpt>
      <trkpt lat="44.265807" lon="4.754922">
        <ele>130.922052</ele>
        <time>2017-06-04T17:08:54.288Z</time>
      </trkpt>
      <trkpt lat="44.265294" lon="4.754591">
        <ele>129.153368</ele>
        <time>2017-06-04T17:09:03.592Z</time>
      </trkpt>
      <trkpt lat="44.264441" lon="4.753979">
        <ele>121.786940</ele>
        <time>2017-06-04T17:09:17.879Z</time>
      </trkpt>
      <trkpt lat="44.263749" lon="4.753325">
        <ele>114.876193</ele>
        <time>2017-06-04T17:09:29.751Z</time>
      </trkpt>
      <trkpt lat="44.263186" lon="4.752693">
        <ele>107.698812</ele>
        <time>2017-06-04T17:09:39.885Z</time>
      </trkpt>
      <trkpt lat="44.262697" lon="4.752284">
        <ele>102.035228</ele>
        <time>2017-06-04T17:09:47.965Z</time>
      </trkpt>
      <trkpt lat="44.262456" lon="4.752197">
        <ele>99.561946</ele>
        <time>2017-06-04T17:09:51.622Z</time>
      </trkpt>
      <trkpt lat="44.262296" lon="4.752028">
        <ele>98.708898</ele>
        <time>2017-06-04T17:09:54.624Z</time>
      </trkpt>
      <trkpt lat="44.262259" lon="4.751646">
        <ele>97.913649</ele>
        <time>2017-06-04T17:09:58.780Z</time>
      </trkpt>
      <trkpt lat="44.262060" lon="4.751990">
        <ele>97.001359</ele>
        <time>2017-06-04T17:10:03.879Z</time>
      </trkpt>
      <trkpt lat="44.261869" lon="4.752276">
        <ele>96.194596</ele>
        <time>2017-06-04T17:10:08.782Z</time>
      </trkpt>
      <trkpt lat="44.261538" lon="4.752369">
        <ele>95.221973</ele>
        <time>2017-06-04T17:10:15.383Z</time>
      </trkpt>
      <trkpt lat="44.261340" lon="4.752219">
        <ele>94.573054</ele>
        <time>2017-06-04T17:10:20.875Z</time>
      </trkpt>
      <trkpt lat="44.261137" lon="4.752203">
        <ele>94.003749</ele>
        <time>2017-06-04T17:10:25.972Z</time>
      </trkpt>
      <trkpt lat="44.260794" lon="4.752369">
        <ele>95.919271</ele>
        <time>2017-06-04T17:10:39.610Z</time>
      </trkpt>
      <trkpt lat="44.259885" lon="4.752622">
        <ele>100.810107</ele>
        <time>2017-06-04T17:11:23.258Z</time>
      </trkpt>
      <trkpt lat="44.258917" lon="4.752662">
        <ele>106.711778</ele>
        <time>2017-06-04T17:12:13.387Z</time>
      </trkpt>
      <trkpt lat="44.258612" lon="4.752602">
        <ele>108.865181</ele>
        <time>2017-06-04T17:12:29.119Z</time>
      </trkpt>
      <trkpt lat="44.258429" lon="4.752635">
        <ele>110.155213</ele>
        <time>2017-06-04T17:12:39.077Z</time>
      </trkpt>
      <trkpt lat="44.258263" lon="4.752622">
        <ele>111.317592</ele>
        <time>2017-06-04T17:12:47.036Z</time>
      </trkpt>
      <trkpt lat="44.258080" lon="4.752547">
        <ele>112.650974</ele>
        <time>2017-06-04T17:12:57.313Z</time>
      </trkpt>
      <trkpt lat="44.258017" lon="4.752574">
        <ele>113.111707</ele>
        <time>2017-06-04T17:13:00.499Z</time>
      </trkpt>
      <trkpt lat="44.257974" lon="4.752652">
        <ele>113.604570</ele>
        <time>2017-06-04T17:13:03.892Z</time>
      </trkpt>
      <trkpt lat="44.257987" lon="4.752732">
        <ele>114.015327</ele>
        <time>2017-06-04T17:13:06.768Z</time>
      </trkpt>
      <trkpt lat="44.258126" lon="4.752899">
        <ele>115.297358</ele>
        <time>2017-06-04T17:13:16.715Z</time>
      </trkpt>
      <trkpt lat="44.258448" lon="4.753492">
        <ele>118.733564</ele>
        <time>2017-06-04T17:13:43.789Z</time>
      </trkpt>
      <trkpt lat="44.259146" lon="4.754190">
        <ele>124.148881</ele>
        <time>2017-06-04T17:14:22.576Z</time>
      </trkpt>
      <trkpt lat="44.259160" lon="4.754381">
        <ele>125.016208</ele>
        <time>2017-06-04T17:14:29.174Z</time>
      </trkpt>
      <trkpt lat="44.259057" lon="4.754448">
        <ele>125.732925</ele>
        <time>2017-06-04T17:14:34.635Z</time>
      </trkpt>
      <trkpt lat="44.258660" lon="4.754209">
        <ele>128.672030</ele>
        <time>2017-06-04T17:14:56.536Z</time>
      </trkpt>
      <trkpt lat="44.258366" lon="4.754180">
        <ele>130.904566</ele>
        <time>2017-06-04T17:15:12.169Z</time>
      </trkpt>
      <trkpt lat="44.258044" lon="4.753865">
        <ele>133.882727</ele>
        <time>2017-06-04T17:15:33.257Z</time>
      </trkpt>
      <trkpt lat="44.257932" lon="4.753883">
        <ele>134.736704</ele>
        <time>2017-06-04T17:15:39.452Z</time>
      </trkpt>
      <trkpt lat="44.257900" lon="4.753948">
        <ele>135.164609</ele>
        <time>2017-06-04T17:15:42.602Z</time>
      </trkpt>
      <trkpt lat="44.257907" lon="4.754027">
        <ele>135.596460</ele>
        <time>2017-06-04T17:15:45.735Z</time>
      </trkpt>
      <trkpt lat="44.257965" lon="4.754098">
        <ele>136.180739</ele>
        <time>2017-06-04T17:15:49.890Z</time>
      </trkpt>
      <trkpt lat="44.258305" lon="4.754443">
        <ele>139.364432</ele>
        <time>2017-06-04T17:16:12.577Z</time>
      </trkpt>
      <trkpt lat="44.258377" lon="4.754584">
        <ele>140.303883</ele>
        <time>2017-06-04T17:16:19.503Z</time>
      </trkpt>
      <trkpt lat="44.258403" lon="4.754751">
        <ele>141.227132</ele>
        <time>2017-06-04T17:16:26.307Z</time>
      </trkpt>
      <trkpt lat="44.258368" lon="4.754942">
        <ele>142.276173</ele>
        <time>2017-06-04T17:16:34.047Z</time>
      </trkpt>
      <trkpt lat="44.258281" lon="4.755155">
        <ele>143.580895</ele>
        <time>2017-06-04T17:16:44.083Z</time>
      </trkpt>
      <trkpt lat="44.257999" lon="4.755681">
        <ele>147.077024</ele>
        <time>2017-06-04T17:17:10.793Z</time>
      </trkpt>
      <trkpt lat="44.257925" lon="4.755960">
        <ele>148.660112</ele>
        <time>2017-06-04T17:17:22.600Z</time>
      </trkpt>
      <trkpt lat="44.257872" lon="4.756358">
        <ele>150.814165</ele>
        <time>2017-06-04T17:17:38.083Z</time>
      </trkpt>
      <trkpt lat="44.257940" lon="4.756946">
        <ele>153.983438</ele>
        <time>2017-06-04T17:17:59.179Z</time>
      </trkpt>
      <trkpt lat="44.257844" lon="4.757557">
        <ele>155.774698</ele>
        <time>2017-06-04T17:18:19.777Z</time>
      </trkpt>
      <trkpt lat="44.257848" lon="4.758341">
        <ele>157.750993</ele>
        <time>2017-06-04T17:18:42.811Z</time>
      </trkpt>
      <trkpt lat="44.257618" lon="4.759780">
        <ele>160.444387</ele>
        <time>2017-06-04T17:19:16.420Z</time>
      </trkpt>
      <trkpt lat="44.257499" lon="4.762098">
        <ele>158.074371</ele>
        <time>2017-06-04T17:19:47.640Z</time>
      </trkpt>
      <trkpt lat="44.257349" lon="4.763485">
        <ele>154.238883</ele>
        <time>2017-06-04T17:20:04.109Z</time>
      </trkpt>
      <trkpt lat="44.257318" lon="4.763651">
        <ele>153.769810</ele>
        <time>2017-06-04T17:20:06.028Z</time>
      </trkpt>
      <trkpt lat="44.257311" lon="4.763846">
        <ele>153.235948</ele>
        <time>2017-06-04T17:20:08.445Z</time>
      </trkpt>
      <trkpt lat="44.257210" lon="4.763854">
        <ele>152.849736</ele>
        <time>2017-06-04T17:20:10.089Z</time>
      </trkpt>
      <trkpt lat="44.257108" lon="4.763827">
        <ele>152.453389</ele>
        <time>2017-06-04T17:20:11.719Z</time>
      </trkpt>
      <trkpt lat="44.256641" lon="4.763056">
        <ele>150.320501</ele>
        <time>2017-06-04T17:20:23.687Z</time>
      </trkpt>
      <trkpt lat="44.256312" lon="4.762712">
        <ele>149.295179</ele>
        <time>2017-06-04T17:20:30.667Z</time>
      </trkpt>
      <trkpt lat="44.255075" lon="4.761545">
        <ele>146.658001</ele>
        <time>2017-06-04T17:20:59.938Z</time>
      </trkpt>
      <trkpt lat="44.254762" lon="4.761444">
        <ele>146.458687</ele>
        <time>2017-06-04T17:21:06.644Z</time>
      </trkpt>
      <trkpt lat="44.254592" lon="4.761454">
        <ele>146.353120</ele>
        <time>2017-06-04T17:21:10.273Z</time>
      </trkpt>
      <trkpt lat="44.254310" lon="4.761542">
        <ele>146.173841</ele>
        <time>2017-06-04T17:21:16.508Z</time>
      </trkpt>
      <trkpt lat="44.253688" lon="4.762088">
        <ele>146.205718</ele>
        <time>2017-06-04T17:21:33.398Z</time>
      </trkpt>
      <trkpt lat="44.252728" lon="4.762530">
        <ele>147.241747</ele>
        <time>2017-06-04T17:22:00.322Z</time>
      </trkpt>
      <trkpt lat="44.251841" lon="4.763123">
        <ele>148.834884</ele>
        <time>2017-06-04T17:22:31.350Z</time>
      </trkpt>
      <trkpt lat="44.251506" lon="4.763344">
        <ele>149.655244</ele>
        <time>2017-06-04T17:22:43.399Z</time>
      </trkpt>
      <trkpt lat="44.251407" lon="4.763424">
        <ele>149.908509</ele>
        <time>2017-06-04T17:22:47.060Z</time>
      </trkpt>
      <trkpt lat="44.251245" lon="4.763591">
        <ele>150.354376</ele>
        <time>2017-06-04T17:22:53.900Z</time>
      </trkpt>
      <trkpt lat="44.250656" lon="4.764382">
        <ele>151.968913</ele>
        <time>2017-06-04T17:23:20.759Z</time>
      </trkpt>
      <trkpt lat="44.249757" lon="4.765372">
        <ele>153.370839</ele>
        <time>2017-06-04T17:23:53.804Z</time>
      </trkpt>
      <trkpt lat="44.249068" lon="4.765637">
        <ele>153.740244</ele>
        <time>2017-06-04T17:24:11.121Z</time>
      </trkpt>
      <trkpt lat="44.248421" lon="4.765978">
        <ele>153.231992</ele>
        <time>2017-06-04T17:24:25.701Z</time>
      </trkpt>
      <trkpt lat="44.248151" lon="4.766161">
        <ele>153.011413</ele>
        <time>2017-06-04T17:24:31.635Z</time>
      </trkpt>
      <trkpt lat="44.247751" lon="4.766342">
        <ele>152.702387</ele>
        <time>2017-06-04T17:24:39.947Z</time>
      </trkpt>
      <trkpt lat="44.247560" lon="4.766415">
        <ele>152.503753</ele>
        <time>2017-06-04T17:24:43.664Z</time>
      </trkpt>
      <trkpt lat="44.247243" lon="4.766544">
        <ele>152.009348</ele>
        <time>2017-06-04T17:24:50.079Z</time>
      </trkpt>
      <trkpt lat="44.246956" lon="4.766663">
        <ele>151.561063</ele>
        <time>2017-06-04T17:24:55.847Z</time>
      </trkpt>
      <trkpt lat="44.246453" lon="4.766877">
        <ele>150.773711</ele>
        <time>2017-06-04T17:25:05.893Z</time>
      </trkpt>
      <trkpt lat="44.245526" lon="4.767592">
        <ele>148.937848</ele>
        <time>2017-06-04T17:25:26.216Z</time>
      </trkpt>
      <trkpt lat="44.244811" lon="4.767886">
        <ele>147.437877</ele>
        <time>2017-06-04T17:25:40.129Z</time>
      </trkpt>
      <trkpt lat="44.244088" lon="4.768119">
        <ele>145.631525</ele>
        <time>2017-06-04T17:25:53.382Z</time>
      </trkpt>
      <trkpt lat="44.243820" lon="4.768248">
        <ele>144.551660</ele>
        <time>2017-06-04T17:25:58.324Z</time>
      </trkpt>
      <trkpt lat="44.242784" lon="4.769129">
        <ele>139.930642</ele>
        <time>2017-06-04T17:26:18.275Z</time>
      </trkpt>
      <trkpt lat="44.242563" lon="4.769449">
        <ele>138.508023</ele>
        <time>2017-06-04T17:26:23.333Z</time>
      </trkpt>
      <trkpt lat="44.242185" lon="4.769742">
        <ele>136.385510</ele>
        <time>2017-06-04T17:26:30.067Z</time>
      </trkpt>
      <trkpt lat="44.242083" lon="4.769818">
        <ele>135.817920</ele>
        <time>2017-06-04T17:26:31.833Z</time>
      </trkpt>
      <trkpt lat="44.242007" lon="4.769695">
        <ele>135.246686</ele>
        <time>2017-06-04T17:26:33.644Z</time>
      </trkpt>
      <trkpt lat="44.241922" lon="4.769730">
        <ele>134.811642</ele>
        <time>2017-06-04T17:26:34.990Z</time>
      </trkpt>
      <trkpt lat="44.241736" lon="4.769771">
        <ele>133.887249</ele>
        <time>2017-06-04T17:26:37.956Z</time>
      </trkpt>
      <trkpt lat="44.241492" lon="4.769932">
        <ele>132.562362</ele>
        <time>2017-06-04T17:26:42.229Z</time>
      </trkpt>
      <trkpt lat="44.241216" lon="4.770201">
        <ele>130.909876</ele>
        <time>2017-06-04T17:26:47.582Z</time>
      </trkpt>
      <trkpt lat="44.241146" lon="4.770281">
        <ele>130.526055</ele>
        <time>2017-06-04T17:26:49.010Z</time>
      </trkpt>
      <trkpt lat="44.240990" lon="4.770383">
        <ele>130.023677</ele>
        <time>2017-06-04T17:26:51.783Z</time>
      </trkpt>
      <trkpt lat="44.238928" lon="4.771764">
        <ele>124.393586</ele>
        <time>2017-06-04T17:27:32.566Z</time>
      </trkpt>
      <trkpt lat="44.238681" lon="4.771964">
        <ele>123.990499</ele>
        <time>2017-06-04T17:27:38.335Z</time>
      </trkpt>
      <trkpt lat="44.237775" lon="4.772849">
        <ele>122.743859</ele>
        <time>2017-06-04T17:28:01.462Z</time>
      </trkpt>
      <trkpt lat="44.237272" lon="4.773474">
        <ele>122.539438</ele>
        <time>2017-06-04T17:28:16.503Z</time>
      </trkpt>
      <trkpt lat="44.237010" lon="4.773726">
        <ele>122.442854</ele>
        <time>2017-06-04T17:28:23.511Z</time>
      </trkpt>
      <trkpt lat="44.236683" lon="4.774040">
        <ele>122.322371</ele>
        <time>2017-06-04T17:28:32.377Z</time>
      </trkpt>
      <trkpt lat="44.236051" lon="4.774780">
        <ele>122.649351</ele>
        <time>2017-06-04T17:28:51.565Z</time>
      </trkpt>
      <trkpt lat="44.235903" lon="4.774931">
        <ele>122.745236</ele>
        <time>2017-06-04T17:28:55.997Z</time>
      </trkpt>
      <trkpt lat="44.235850" lon="4.774972">
        <ele>122.776930</ele>
        <time>2017-06-04T17:28:57.504Z</time>
      </trkpt>
      <trkpt lat="44.235768" lon="4.775003">
        <ele>122.821364</ele>
        <time>2017-06-04T17:28:59.773Z</time>
      </trkpt>
      <trkpt lat="44.235680" lon="4.775040">
        <ele>122.869433</ele>
        <time>2017-06-04T17:29:02.076Z</time>
      </trkpt>
      <trkpt lat="44.235480" lon="4.775072">
        <ele>122.974724</ele>
        <time>2017-06-04T17:29:07.435Z</time>
      </trkpt>
      <trkpt lat="44.235273" lon="4.775054">
        <ele>123.083201</ele>
        <time>2017-06-04T17:29:12.896Z</time>
      </trkpt>
      <trkpt lat="44.235154" lon="4.775031">
        <ele>123.146036</ele>
        <time>2017-06-04T17:29:16.149Z</time>
      </trkpt>
      <trkpt lat="44.234775" lon="4.774960">
        <ele>123.669313</ele>
        <time>2017-06-04T17:29:26.718Z</time>
      </trkpt>
      <trkpt lat="44.233317" lon="4.774598">
        <ele>126.508116</ele>
        <time>2017-06-04T17:30:13.176Z</time>
      </trkpt>
      <trkpt lat="44.232974" lon="4.774656">
        <ele>127.187242</ele>
        <time>2017-06-04T17:30:24.769Z</time>
      </trkpt>
      <trkpt lat="44.232627" lon="4.774888">
        <ele>127.949709</ele>
        <time>2017-06-04T17:30:37.484Z</time>
      </trkpt>
      <trkpt lat="44.232032" lon="4.775551">
        <ele>129.458505</ele>
        <time>2017-06-04T17:31:01.601Z</time>
      </trkpt>
      <trkpt lat="44.231845" lon="4.775863">
        <ele>130.036069</ele>
        <time>2017-06-04T17:31:10.239Z</time>
      </trkpt>
      <trkpt lat="44.231488" lon="4.776639">
        <ele>130.143417</ele>
        <time>2017-06-04T17:31:28.241Z</time>
      </trkpt>
      <trkpt lat="44.231258" lon="4.777264">
        <ele>130.059225</ele>
        <time>2017-06-04T17:31:40.391Z</time>
      </trkpt>
      <trkpt lat="44.230835" lon="4.778888">
        <ele>128.741010</ele>
        <time>2017-06-04T17:32:04.302Z</time>
      </trkpt>
      <trkpt lat="44.230594" lon="4.779948">
        <ele>126.845128</ele>
        <time>2017-06-04T17:32:18.401Z</time>
      </trkpt>
      <trkpt lat="44.230608" lon="4.780097">
        <ele>126.588937</ele>
        <time>2017-06-04T17:32:20.112Z</time>
      </trkpt>
      <trkpt lat="44.230766" lon="4.780509">
        <ele>125.792287</ele>
        <time>2017-06-04T17:32:26.013Z</time>
      </trkpt>
      <trkpt lat="44.230722" lon="4.781438">
        <ele>124.530704</ele>
        <time>2017-06-04T17:32:37.893Z</time>
      </trkpt>
      <trkpt lat="44.230733" lon="4.782010">
        <ele>123.774020</ele>
        <time>2017-06-04T17:32:45.139Z</time>
      </trkpt>
      <trkpt lat="44.230840" lon="4.783656">
        <ele>122.235014</ele>
        <time>2017-06-04T17:33:09.568Z</time>
      </trkpt>
      <trkpt lat="44.230937" lon="4.786401">
        <ele>121.812663</ele>
        <time>2017-06-04T17:33:55.055Z</time>
      </trkpt>
      <trkpt lat="44.231046" lon="4.788118">
        <ele>121.668010</ele>
        <time>2017-06-04T17:34:22.770Z</time>
      </trkpt>
      <trkpt lat="44.231078" lon="4.788401">
        <ele>121.768609</ele>
        <time>2017-06-04T17:34:27.456Z</time>
      </trkpt>
      <trkpt lat="44.231273" lon="4.789354">
        <ele>122.116608</ele>
        <time>2017-06-04T17:34:44.255Z</time>
      </trkpt>
      <trkpt lat="44.231672" lon="4.791225">
        <ele>123.092257</ele>
        <time>2017-06-04T17:35:22.388Z</time>
      </trkpt>
      <trkpt lat="44.232388" lon="4.792816">
        <ele>124.523706</ele>
        <time>2017-06-04T17:35:59.158Z</time>
      </trkpt>
      <trkpt lat="44.232779" lon="4.793459">
        <ele>125.409615</ele>
        <time>2017-06-04T17:36:16.030Z</time>
      </trkpt>
      <trkpt lat="44.233004" lon="4.793904">
        <ele>125.981740</ele>
        <time>2017-06-04T17:36:27.386Z</time>
      </trkpt>
      <trkpt lat="44.233117" lon="4.794127">
        <ele>126.268654</ele>
        <time>2017-06-04T17:36:32.513Z</time>
      </trkpt>
      <trkpt lat="44.232981" lon="4.794062">
        <ele>126.479408</ele>
        <time>2017-06-04T17:36:37.302Z</time>
      </trkpt>
      <trkpt lat="44.232662" lon="4.793773">
        <ele>127.036981</ele>
        <time>2017-06-04T17:36:48.660Z</time>
      </trkpt>
      <trkpt lat="44.232429" lon="4.793565">
        <ele>127.962641</ele>
        <time>2017-06-04T17:36:57.215Z</time>
      </trkpt>
      <trkpt lat="44.232174" lon="4.793315">
        <ele>129.023915</ele>
        <time>2017-06-04T17:37:07.481Z</time>
      </trkpt>
      <trkpt lat="44.232060" lon="4.793214">
        <ele>129.483771</ele>
        <time>2017-06-04T17:37:12.637Z</time>
      </trkpt>
      <trkpt lat="44.231882" lon="4.793145">
        <ele>130.112912</ele>
        <time>2017-06-04T17:37:18.818Z</time>
      </trkpt>
      <trkpt lat="44.231747" lon="4.793121">
        <ele>130.576380</ele>
        <time>2017-06-04T17:37:24.460Z</time>
      </trkpt>
      <trkpt lat="44.231645" lon="4.793158">
        <ele>130.935290</ele>
        <time>2017-06-04T17:37:28.617Z</time>
      </trkpt>
      <trkpt lat="44.231475" lon="4.793055">
        <ele>131.566441</ele>
        <time>2017-06-04T17:37:36.010Z</time>
      </trkpt>
      <trkpt lat="44.231087" lon="4.792970">
        <ele>132.903985</ele>
        <time>2017-06-04T17:37:52.174Z</time>
      </trkpt>
      <trkpt lat="44.230817" lon="4.792814">
        <ele>134.084238</ele>
        <time>2017-06-04T17:38:04.347Z</time>
      </trkpt>
      <trkpt lat="44.230349" lon="4.792309">
        <ele>136.613527</ele>
        <time>2017-06-04T17:38:29.079Z</time>
      </trkpt>
      <trkpt lat="44.230142" lon="4.792262">
        <ele>137.510196</ele>
        <time>2017-06-04T17:38:37.903Z</time>
      </trkpt>
      <trkpt lat="44.229750" lon="4.792016">
        <ele>139.347849</ele>
        <time>2017-06-04T17:38:55.680Z</time>
      </trkpt>
      <trkpt lat="44.229506" lon="4.791750">
        <ele>140.671640</ele>
        <time>2017-06-04T17:39:07.672Z</time>
      </trkpt>
      <trkpt lat="44.229371" lon="4.791527">
        <ele>141.007856</ele>
        <time>2017-06-04T17:39:15.356Z</time>
      </trkpt>
      <trkpt lat="44.229172" lon="4.790816">
        <ele>141.484859</ele>
        <time>2017-06-04T17:39:33.528Z</time>
      </trkpt>
      <trkpt lat="44.228936" lon="4.790363">
        <ele>141.834857</ele>
        <time>2017-06-04T17:39:44.930Z</time>
      </trkpt>
      <trkpt lat="44.228651" lon="4.789972">
        <ele>142.183397</ele>
        <time>2017-06-04T17:39:53.400Z</time>
      </trkpt>
      <trkpt lat="44.228175" lon="4.789181">
        <ele>140.833495</ele>
        <time>2017-06-04T17:40:06.686Z</time>
      </trkpt>
      <trkpt lat="44.227965" lon="4.788956">
        <ele>139.899350</ele>
        <time>2017-06-04T17:40:11.258Z</time>
      </trkpt>
      <trkpt lat="44.227777" lon="4.788819">
        <ele>139.151028</ele>
        <time>2017-06-04T17:40:14.832Z</time>
      </trkpt>
      <trkpt lat="44.227666" lon="4.788778">
        <ele>138.745894</ele>
        <time>2017-06-04T17:40:16.787Z</time>
      </trkpt>
      <trkpt lat="44.227406" lon="4.788761">
        <ele>137.827515</ele>
        <time>2017-06-04T17:40:21.043Z</time>
      </trkpt>
      <trkpt lat="44.227061" lon="4.788691">
        <ele>136.597434</ele>
        <time>2017-06-04T17:40:26.620Z</time>
      </trkpt>
      <trkpt lat="44.226570" lon="4.788453">
        <ele>134.206418</ele>
        <time>2017-06-04T17:40:34.816Z</time>
      </trkpt>
      <trkpt lat="44.226267" lon="4.788307">
        <ele>132.599416</ele>
        <time>2017-06-04T17:40:39.798Z</time>
      </trkpt>
      <trkpt lat="44.226130" lon="4.788198">
        <ele>131.808823</ele>
        <time>2017-06-04T17:40:42.309Z</time>
      </trkpt>
      <trkpt lat="44.225960" lon="4.787875">
        <ele>130.369119</ele>
        <time>2017-06-04T17:40:46.856Z</time>
      </trkpt>
      <trkpt lat="44.225781" lon="4.787624">
        <ele>129.096983</ele>
        <time>2017-06-04T17:40:50.932Z</time>
      </trkpt>
      <trkpt lat="44.225726" lon="4.787427">
        <ele>128.337456</ele>
        <time>2017-06-04T17:40:53.384Z</time>
      </trkpt>
      <trkpt lat="44.225776" lon="4.786693">
        <ele>125.744824</ele>
        <time>2017-06-04T17:41:01.795Z</time>
      </trkpt>
      <trkpt lat="44.225710" lon="4.786385">
        <ele>124.636846</ele>
        <time>2017-06-04T17:41:05.424Z</time>
      </trkpt>
      <trkpt lat="44.225620" lon="4.786315">
        <ele>124.141291</ele>
        <time>2017-06-04T17:41:07.029Z</time>
      </trkpt>
      <trkpt lat="44.224985" lon="4.786253">
        <ele>121.079740</ele>
        <time>2017-06-04T17:41:17.126Z</time>
      </trkpt>
      <trkpt lat="44.224841" lon="4.786181">
        <ele>120.344045</ele>
        <time>2017-06-04T17:41:19.579Z</time>
      </trkpt>
      <trkpt lat="44.224515" lon="4.785780">
        <ele>118.285311</ele>
        <time>2017-06-04T17:41:26.621Z</time>
      </trkpt>
      <trkpt lat="44.224243" lon="4.785372">
        <ele>116.728629</ele>
        <time>2017-06-04T17:41:33.136Z</time>
      </trkpt>
      <trkpt lat="44.223716" lon="4.784932">
        <ele>114.334657</ele>
        <time>2017-06-04T17:41:43.101Z</time>
      </trkpt>
      <trkpt lat="44.223644" lon="4.783507">
        <ele>110.910965</ele>
        <time>2017-06-04T17:42:00.487Z</time>
      </trkpt>
      <trkpt lat="44.223371" lon="4.783562">
        <ele>110.408643</ele>
        <time>2017-06-04T17:42:05.333Z</time>
      </trkpt>
      <trkpt lat="44.222077" lon="4.783676">
        <ele>108.159511</ele>
        <time>2017-06-04T17:42:30.363Z</time>
      </trkpt>
      <trkpt lat="44.221611" lon="4.783776">
        <ele>108.431963</ele>
        <time>2017-06-04T17:42:41.268Z</time>
      </trkpt>
      <trkpt lat="44.221227" lon="4.783775">
        <ele>108.653865</ele>
        <time>2017-06-04T17:42:51.485Z</time>
      </trkpt>
      <trkpt lat="44.221067" lon="4.783838">
        <ele>108.749934</ele>
        <time>2017-06-04T17:42:56.166Z</time>
      </trkpt>
      <trkpt lat="44.220745" lon="4.784083">
        <ele>108.961872</ele>
        <time>2017-06-04T17:43:06.554Z</time>
      </trkpt>
      <trkpt lat="44.220423" lon="4.784143">
        <ele>109.149597</ele>
        <time>2017-06-04T17:43:15.754Z</time>
      </trkpt>
      <trkpt lat="44.220383" lon="4.784147">
        <ele>109.172534</ele>
        <time>2017-06-04T17:43:16.726Z</time>
      </trkpt>
      <trkpt lat="44.220187" lon="4.784499">
        <ele>109.307602</ele>
        <time>2017-06-04T17:43:25.453Z</time>
      </trkpt>
      <trkpt lat="44.219951" lon="4.784709">
        <ele>109.425946</ele>
        <time>2017-06-04T17:43:32.819Z</time>
      </trkpt>
      <trkpt lat="44.219737" lon="4.784772">
        <ele>109.518417</ele>
        <time>2017-06-04T17:43:38.837Z</time>
      </trkpt>
      <trkpt lat="44.218249" lon="4.784533">
        <ele>109.101984</ele>
        <time>2017-06-04T17:44:11.258Z</time>
      </trkpt>
      <trkpt lat="44.218089" lon="4.784524">
        <ele>108.845679</ele>
        <time>2017-06-04T17:44:14.147Z</time>
      </trkpt>
      <trkpt lat="44.217929" lon="4.784546">
        <ele>108.588343</ele>
        <time>2017-06-04T17:44:16.845Z</time>
      </trkpt>
      <trkpt lat="44.217715" lon="4.784646">
        <ele>108.227115</ele>
        <time>2017-06-04T17:44:20.860Z</time>
      </trkpt>
      <trkpt lat="44.217607" lon="4.784789">
        <ele>107.988804</ele>
        <time>2017-06-04T17:44:23.347Z</time>
      </trkpt>
      <trkpt lat="44.217515" lon="4.784990">
        <ele>107.715217</ele>
        <time>2017-06-04T17:44:26.372Z</time>
      </trkpt>
      <trkpt lat="44.217430" lon="4.785261">
        <ele>107.375873</ele>
        <time>2017-06-04T17:44:29.918Z</time>
      </trkpt>
      <trkpt lat="44.217404" lon="4.785341">
        <ele>107.275106</ele>
        <time>2017-06-04T17:44:30.954Z</time>
      </trkpt>
      <trkpt lat="44.216338" lon="4.788504">
        <ele>101.617352</ele>
        <time>2017-06-04T17:45:14.611Z</time>
      </trkpt>
      <trkpt lat="44.215793" lon="4.790108">
        <ele>98.358726</ele>
        <time>2017-06-04T17:45:35.818Z</time>
      </trkpt>
      <trkpt lat="44.215692" lon="4.790411">
        <ele>97.873067</ele>
        <time>2017-06-04T17:45:39.786Z</time>
      </trkpt>
      <trkpt lat="44.215216" lon="4.791797">
        <ele>95.639408</ele>
        <time>2017-06-04T17:45:58.902Z</time>
      </trkpt>
      <trkpt lat="44.215154" lon="4.791993">
        <ele>95.328040</ele>
        <time>2017-06-04T17:46:01.710Z</time>
      </trkpt>
      <trkpt lat="44.215068" lon="4.792258">
        <ele>94.905258</ele>
        <time>2017-06-04T17:46:05.563Z</time>
      </trkpt>
      <trkpt lat="44.214883" lon="4.792737">
        <ele>94.887861</ele>
        <time>2017-06-04T17:46:13.187Z</time>
      </trkpt>
      <trkpt lat="44.214733" lon="4.793048">
        <ele>94.961531</ele>
        <time>2017-06-04T17:46:19.056Z</time>
      </trkpt>
      <trkpt lat="44.213738" lon="4.794348">
        <ele>95.269322</ele>
        <time>2017-06-04T17:46:54.963Z</time>
      </trkpt>
      <trkpt lat="44.213311" lon="4.795150">
        <ele>95.186369</ele>
        <time>2017-06-04T17:47:11.308Z</time>
      </trkpt>
      <trkpt lat="44.213026" lon="4.795585">
        <ele>95.137434</ele>
        <time>2017-06-04T17:47:20.071Z</time>
      </trkpt>
      <trkpt lat="44.212796" lon="4.795790">
        <ele>95.105817</ele>
        <time>2017-06-04T17:47:25.576Z</time>
      </trkpt>
      <trkpt lat="44.212479" lon="4.795985">
        <ele>94.961324</ele>
        <time>2017-06-04T17:47:32.346Z</time>
      </trkpt>
      <trkpt lat="44.212254" lon="4.796070">
        <ele>94.744837</ele>
        <time>2017-06-04T17:47:36.862Z</time>
      </trkpt>
      <trkpt lat="44.211884" lon="4.796261">
        <ele>94.378441</ele>
        <time>2017-06-04T17:47:44.458Z</time>
      </trkpt>
      <trkpt lat="44.211781" lon="4.796426">
        <ele>94.232789</ele>
        <time>2017-06-04T17:47:47.529Z</time>
      </trkpt>
      <trkpt lat="44.211737" lon="4.796543">
        <ele>94.144835</ele>
        <time>2017-06-04T17:47:49.434Z</time>
      </trkpt>
      <trkpt lat="44.211332" lon="4.799445">
        <ele>91.980876</ele>
        <time>2017-06-04T17:48:30.501Z</time>
      </trkpt>
      <trkpt lat="44.211208" lon="4.799910">
        <ele>91.598153</ele>
        <time>2017-06-04T17:48:37.085Z</time>
      </trkpt>
      <trkpt lat="44.210791" lon="4.801468">
        <ele>90.560910</ele>
        <time>2017-06-04T17:48:59.679Z</time>
      </trkpt>
      <trkpt lat="44.210712" lon="4.801449">
        <ele>90.492920</ele>
        <time>2017-06-04T17:49:01.197Z</time>
      </trkpt>
      <trkpt lat="44.209935" lon="4.801270">
        <ele>89.869415</ele>
        <time>2017-06-04T17:49:17.895Z</time>
      </trkpt>
      <trkpt lat="44.209327" lon="4.801154">
        <ele>89.535507</ele>
        <time>2017-06-04T17:49:31.267Z</time>
      </trkpt>
      <trkpt lat="44.209079" lon="4.801140">
        <ele>89.400453</ele>
        <time>2017-06-04T17:49:36.989Z</time>
      </trkpt>
      <trkpt lat="44.208832" lon="4.801196">
        <ele>89.264291</ele>
        <time>2017-06-04T17:49:42.490Z</time>
      </trkpt>
      <trkpt lat="44.208582" lon="4.801306">
        <ele>89.121654</ele>
        <time>2017-06-04T17:49:47.902Z</time>
      </trkpt>
      <trkpt lat="44.208074" lon="4.801717">
        <ele>87.855285</ele>
        <time>2017-06-04T17:49:58.458Z</time>
      </trkpt>
      <trkpt lat="44.207777" lon="4.801796">
        <ele>86.764128</ele>
        <time>2017-06-04T17:50:03.590Z</time>
      </trkpt>
      <trkpt lat="44.207513" lon="4.801754">
        <ele>85.805199</ele>
        <time>2017-06-04T17:50:07.805Z</time>
      </trkpt>
      <trkpt lat="44.207165" lon="4.801484">
        <ele>84.368132</ele>
        <time>2017-06-04T17:50:14.025Z</time>
      </trkpt>
      <trkpt lat="44.207129" lon="4.801456">
        <ele>84.219383</ele>
        <time>2017-06-04T17:50:14.687Z</time>
      </trkpt>
      <trkpt lat="44.206973" lon="4.801334">
        <ele>83.573962</ele>
        <time>2017-06-04T17:50:17.340Z</time>
      </trkpt>
      <trkpt lat="44.206386" lon="4.801140">
        <ele>80.783582</ele>
        <time>2017-06-04T17:50:26.427Z</time>
      </trkpt>
      <trkpt lat="44.205529" lon="4.800980">
        <ele>75.894710</ele>
        <time>2017-06-04T17:50:39.014Z</time>
      </trkpt>
      <trkpt lat="44.205340" lon="4.800895">
        <ele>74.771899</ele>
        <time>2017-06-04T17:50:41.972Z</time>
      </trkpt>
      <trkpt lat="44.204963" lon="4.799764">
        <ele>70.052746</ele>
        <time>2017-06-04T17:50:55.339Z</time>
      </trkpt>
      <trkpt lat="44.204798" lon="4.799504">
        <ele>68.827891</ele>
        <time>2017-06-04T17:50:59.081Z</time>
      </trkpt>
      <trkpt lat="44.204510" lon="4.799345">
        <ele>67.303810</ele>
        <time>2017-06-04T17:51:03.750Z</time>
      </trkpt>
      <trkpt lat="44.204314" lon="4.799404">
        <ele>66.317173</ele>
        <time>2017-06-04T17:51:06.798Z</time>
      </trkpt>
      <trkpt lat="44.203781" lon="4.799887">
        <ele>63.236117</ele>
        <time>2017-06-04T17:51:16.600Z</time>
      </trkpt>
      <trkpt lat="44.203748" lon="4.799916">
        <ele>63.077322</ele>
        <time>2017-06-04T17:51:17.211Z</time>
      </trkpt>
      <trkpt lat="44.202720" lon="4.800846">
        <ele>58.088775</ele>
        <time>2017-06-04T17:51:36.259Z</time>
      </trkpt>
      <trkpt lat="44.202425" lon="4.801108">
        <ele>56.664928</ele>
        <time>2017-06-04T17:51:41.858Z</time>
      </trkpt>
      <trkpt lat="44.202332" lon="4.801134">
        <ele>56.278757</ele>
        <time>2017-06-04T17:51:43.296Z</time>
      </trkpt>
      <trkpt lat="44.202211" lon="4.801118">
        <ele>55.876208</ele>
        <time>2017-06-04T17:51:45.276Z</time>
      </trkpt>
      <trkpt lat="44.201367" lon="4.800945">
        <ele>53.314334</ele>
        <time>2017-06-04T17:51:59.082Z</time>
      </trkpt>
      <trkpt lat="44.200678" lon="4.800835">
        <ele>51.231658</ele>
        <time>2017-06-04T17:52:10.435Z</time>
      </trkpt>
      <trkpt lat="44.200520" lon="4.800826">
        <ele>50.756766</ele>
        <time>2017-06-04T17:52:13.196Z</time>
      </trkpt>
      <trkpt lat="44.199888" lon="4.800793">
        <ele>50.186058</ele>
        <time>2017-06-04T17:52:24.967Z</time>
      </trkpt>
      <trkpt lat="44.199412" lon="4.800768">
        <ele>49.768303</ele>
        <time>2017-06-04T17:52:34.414Z</time>
      </trkpt>
      <trkpt lat="44.199220" lon="4.800792">
        <ele>49.599241</ele>
        <time>2017-06-04T17:52:38.399Z</time>
      </trkpt>
      <trkpt lat="44.199192" lon="4.801211">
        <ele>49.334653</ele>
        <time>2017-06-04T17:52:44.778Z</time>
      </trkpt>
      <trkpt lat="44.199103" lon="4.802167">
        <ele>49.257933</ele>
        <time>2017-06-04T17:53:00.805Z</time>
      </trkpt>
      <trkpt lat="44.198903" lon="4.803442">
        <ele>49.452038</ele>
        <time>2017-06-04T17:53:23.336Z</time>
      </trkpt>
      <trkpt lat="44.198770" lon="4.804735">
        <ele>49.516715</ele>
        <time>2017-06-04T17:53:44.017Z</time>
      </trkpt>
      <trkpt lat="44.198599" lon="4.806454">
        <ele>49.488064</ele>
        <time>2017-06-04T17:54:11.449Z</time>
      </trkpt>
      <trkpt lat="44.198646" lon="4.807094">
        <ele>49.495599</ele>
        <time>2017-06-04T17:54:21.882Z</time>
      </trkpt>
      <trkpt lat="44.198934" lon="4.809072">
        <ele>49.500480</ele>
        <time>2017-06-04T17:54:54.517Z</time>
      </trkpt>
      <trkpt lat="44.198938" lon="4.809716">
        <ele>49.433931</ele>
        <time>2017-06-04T17:55:04.371Z</time>
      </trkpt>
      <trkpt lat="44.198901" lon="4.810313">
        <ele>49.372011</ele>
        <time>2017-06-04T17:55:13.314Z</time>
      </trkpt>
      <trkpt lat="44.198540" lon="4.812942">
        <ele>49.883557</ele>
        <time>2017-06-04T17:55:55.863Z</time>
      </trkpt>
      <trkpt lat="44.198676" lon="4.815481">
        <ele>51.874912</ele>
        <time>2017-06-04T17:56:47.602Z</time>
      </trkpt>
      <trkpt lat="44.198645" lon="4.819567">
        <ele>55.708073</ele>
        <time>2017-06-04T17:58:07.584Z</time>
      </trkpt>
      <trkpt lat="44.198614" lon="4.820346">
        <ele>56.476992</ele>
        <time>2017-06-04T17:58:23.191Z</time>
      </trkpt>
      <trkpt lat="44.198574" lon="4.820627">
        <ele>56.759336</ele>
        <time>2017-06-04T17:58:29.015Z</time>
      </trkpt>
      <trkpt lat="44.198479" lon="4.820884">
        <ele>57.044307</ele>
        <time>2017-06-04T17:58:34.724Z</time>
      </trkpt>
      <trkpt lat="44.198360" lon="4.821085">
        <ele>57.301215</ele>
        <time>2017-06-04T17:58:40.129Z</time>
      </trkpt>
      <trkpt lat="44.198239" lon="4.821227">
        <ele>57.517990</ele>
        <time>2017-06-04T17:58:44.451Z</time>
      </trkpt>
      <trkpt lat="44.197954" lon="4.821409">
        <ele>57.917337</ele>
        <time>2017-06-04T17:58:53.284Z</time>
      </trkpt>
      <trkpt lat="44.196897" lon="4.821934">
        <ele>59.346828</ele>
        <time>2017-06-04T17:59:24.391Z</time>
      </trkpt>
      <trkpt lat="44.196504" lon="4.822205">
        <ele>59.907028</ele>
        <time>2017-06-04T17:59:35.500Z</time>
      </trkpt>
      <trkpt lat="44.196422" lon="4.822337">
        <ele>60.069119</ele>
        <time>2017-06-04T17:59:38.645Z</time>
      </trkpt>
      <trkpt lat="44.196322" lon="4.822538">
        <ele>60.296169</ele>
        <time>2017-06-04T17:59:43.301Z</time>
      </trkpt>
      <trkpt lat="44.196113" lon="4.822965">
        <ele>60.775988</ele>
        <time>2017-06-04T17:59:53.428Z</time>
      </trkpt>
      <trkpt lat="44.195470" lon="4.823963">
        <ele>62.021222</ele>
        <time>2017-06-04T18:00:19.980Z</time>
      </trkpt>
      <trkpt lat="44.195428" lon="4.824045">
        <ele>62.114748</ele>
        <time>2017-06-04T18:00:22.028Z</time>
      </trkpt>
      <trkpt lat="44.195331" lon="4.824236">
        <ele>62.418951</ele>
        <time>2017-06-04T18:00:27.042Z</time>
      </trkpt>
      <trkpt lat="44.195053" lon="4.825789">
        <ele>64.544614</ele>
        <time>2017-06-04T18:01:01.077Z</time>
      </trkpt>
      <trkpt lat="44.194982" lon="4.826820">
        <ele>66.030344</ele>
        <time>2017-06-04T18:01:23.556Z</time>
      </trkpt>
      <trkpt lat="44.194998" lon="4.827035">
        <ele>66.386440</ele>
        <time>2017-06-04T18:01:28.371Z</time>
      </trkpt>
      <trkpt lat="44.195424" lon="4.828686">
        <ele>69.277073</ele>
        <time>2017-06-04T18:02:08.629Z</time>
      </trkpt>
      <trkpt lat="44.195442" lon="4.829113">
        <ele>69.940145</ele>
        <time>2017-06-04T18:02:18.183Z</time>
      </trkpt>
      <trkpt lat="44.195444" lon="4.829162">
        <ele>70.012318</ele>
        <time>2017-06-04T18:02:19.494Z</time>
      </trkpt>
      <trkpt lat="44.195461" lon="4.829721">
        <ele>70.835090</ele>
        <time>2017-06-04T18:02:32.032Z</time>
      </trkpt>
      <trkpt lat="44.195377" lon="4.830001">
        <ele>71.281434</ele>
        <time>2017-06-04T18:02:38.781Z</time>
      </trkpt>
      <trkpt lat="44.194614" lon="4.832447">
        <ele>74.579792</ele>
        <time>2017-06-04T18:03:35.531Z</time>
      </trkpt>
      <trkpt lat="44.194429" lon="4.832789">
        <ele>75.005013</ele>
        <time>2017-06-04T18:03:43.787Z</time>
      </trkpt>
      <trkpt lat="44.194230" lon="4.833121">
        <ele>75.434521</ele>
        <time>2017-06-04T18:03:51.904Z</time>
      </trkpt>
      <trkpt lat="44.193960" lon="4.833573">
        <ele>75.844553</ele>
        <time>2017-06-04T18:04:02.464Z</time>
      </trkpt>
      <trkpt lat="44.193919" lon="4.833642">
        <ele>75.870367</ele>
        <time>2017-06-04T18:04:04.020Z</time>
      </trkpt>
      <trkpt lat="44.193775" lon="4.833882">
        <ele>75.960510</ele>
        <time>2017-06-04T18:04:09.609Z</time>
      </trkpt>
      <trkpt lat="44.193641" lon="4.834105">
        <ele>76.044320</ele>
        <time>2017-06-04T18:04:14.531Z</time>
      </trkpt>
      <trkpt lat="44.193514" lon="4.834317">
        <ele>76.123895</ele>
        <time>2017-06-04T18:04:19.404Z</time>
      </trkpt>
      <trkpt lat="44.193115" lon="4.835080">
        <ele>76.395921</ele>
        <time>2017-06-04T18:04:35.081Z</time>
      </trkpt>
      <trkpt lat="44.192909" lon="4.835254">
        <ele>76.492674</ele>
        <time>2017-06-04T18:04:40.343Z</time>
      </trkpt>
      <trkpt lat="44.192810" lon="4.835340">
        <ele>76.535773</ele>
        <time>2017-06-04T18:04:43.097Z</time>
      </trkpt>
      <trkpt lat="44.191802" lon="4.836210">
        <ele>76.970850</ele>
        <time>2017-06-04T18:05:10.691Z</time>
      </trkpt>
      <trkpt lat="44.191428" lon="4.836575">
        <ele>77.138389</ele>
        <time>2017-06-04T18:05:22.002Z</time>
      </trkpt>
      <trkpt lat="44.190932" lon="4.837357">
        <ele>77.402854</ele>
        <time>2017-06-04T18:05:40.883Z</time>
      </trkpt>
      <trkpt lat="44.190840" lon="4.837587">
        <ele>77.469387</ele>
        <time>2017-06-04T18:05:45.752Z</time>
      </trkpt>
      <trkpt lat="44.190582" lon="4.838336">
        <ele>77.679305</ele>
        <time>2017-06-04T18:05:59.828Z</time>
      </trkpt>
      <trkpt lat="44.190446" lon="4.838583">
        <ele>77.757978</ele>
        <time>2017-06-04T18:06:04.669Z</time>
      </trkpt>
      <trkpt lat="44.190271" lon="4.838778">
        <ele>77.668951</ele>
        <time>2017-06-04T18:06:09.451Z</time>
      </trkpt>
      <trkpt lat="44.189960" lon="4.839126">
        <ele>77.307351</ele>
        <time>2017-06-04T18:06:17.445Z</time>
      </trkpt>
      <trkpt lat="44.189553" lon="4.839468">
        <ele>76.876431</ele>
        <time>2017-06-04T18:06:26.490Z</time>
      </trkpt>
      <trkpt lat="44.189233" lon="4.839896">
        <ele>76.474341</ele>
        <time>2017-06-04T18:06:34.839Z</time>
      </trkpt>
      <trkpt lat="44.189156" lon="4.840134">
        <ele>76.304552</ele>
        <time>2017-06-04T18:06:38.384Z</time>
      </trkpt>
      <trkpt lat="44.189109" lon="4.840282">
        <ele>76.199295</ele>
        <time>2017-06-04T18:06:40.545Z</time>
      </trkpt>
      <trkpt lat="44.189070" lon="4.840401">
        <ele>76.145687</ele>
        <time>2017-06-04T18:06:42.268Z</time>
      </trkpt>
      <trkpt lat="44.189013" lon="4.840577">
        <ele>76.108848</ele>
        <time>2017-06-04T18:06:44.883Z</time>
      </trkpt>
      <trkpt lat="44.188929" lon="4.840838">
        <ele>76.054276</ele>
        <time>2017-06-04T18:06:48.817Z</time>
      </trkpt>
      <trkpt lat="44.188863" lon="4.841042">
        <ele>76.011583</ele>
        <time>2017-06-04T18:06:51.973Z</time>
      </trkpt>
      <trkpt lat="44.188873" lon="4.841426">
        <ele>75.938284</ele>
        <time>2017-06-04T18:06:57.819Z</time>
      </trkpt>
      <trkpt lat="44.188897" lon="4.842173">
        <ele>75.795646</ele>
        <time>2017-06-04T18:07:10.068Z</time>
      </trkpt>
      <trkpt lat="44.188905" lon="4.842536">
        <ele>75.726368</ele>
        <time>2017-06-04T18:07:16.591Z</time>
      </trkpt>
      <trkpt lat="44.188922" lon="4.843243">
        <ele>75.556119</ele>
        <time>2017-06-04T18:07:28.544Z</time>
      </trkpt>
      <trkpt lat="44.188925" lon="4.843325">
        <ele>75.534231</ele>
        <time>2017-06-04T18:07:30.093Z</time>
      </trkpt>
      <trkpt lat="44.188929" lon="4.843438">
        <ele>75.504070</ele>
        <time>2017-06-04T18:07:31.994Z</time>
      </trkpt>
      <trkpt lat="44.188938" lon="4.843674">
        <ele>75.441068</ele>
        <time>2017-06-04T18:07:35.604Z</time>
      </trkpt>
      <trkpt lat="44.188927" lon="4.843758">
        <ele>75.418305</ele>
        <time>2017-06-04T18:07:36.856Z</time>
      </trkpt>
      <trkpt lat="44.188919" lon="4.843800">
        <ele>75.406721</ele>
        <time>2017-06-04T18:07:37.674Z</time>
      </trkpt>
      <trkpt lat="44.188755" lon="4.844305">
        <ele>75.258933</ele>
        <time>2017-06-04T18:07:46.164Z</time>
      </trkpt>
      <trkpt lat="44.188720" lon="4.844424">
        <ele>75.224645</ele>
        <time>2017-06-04T18:07:48.102Z</time>
      </trkpt>
      <trkpt lat="44.188706" lon="4.844555">
        <ele>75.189337</ele>
        <time>2017-06-04T18:07:49.982Z</time>
      </trkpt>
      <trkpt lat="44.188696" lon="4.844676">
        <ele>75.156867</ele>
        <time>2017-06-04T18:07:51.652Z</time>
      </trkpt>
      <trkpt lat="44.188655" lon="4.844674">
        <ele>75.141615</ele>
        <time>2017-06-04T18:07:52.521Z</time>
      </trkpt>
      <trkpt lat="44.188537" lon="4.844686">
        <ele>75.097629</ele>
        <time>2017-06-04T18:07:55.063Z</time>
      </trkpt>
      <trkpt lat="44.188431" lon="4.844737">
        <ele>75.055941</ele>
        <time>2017-06-04T18:07:57.251Z</time>
      </trkpt>
      <trkpt lat="44.188364" lon="4.844773">
        <ele>75.029247</ele>
        <time>2017-06-04T18:07:58.611Z</time>
      </trkpt>
      <trkpt lat="44.188185" lon="4.844950">
        <ele>74.737237</ele>
        <time>2017-06-04T18:08:03.044Z</time>
      </trkpt>
      <trkpt lat="44.188153" lon="4.844988">
        <ele>74.670149</ele>
        <time>2017-06-04T18:08:03.834Z</time>
      </trkpt>
      <trkpt lat="44.187998" lon="4.845167">
        <ele>74.348918</ele>
        <time>2017-06-04T18:08:07.622Z</time>
      </trkpt>
      <trkpt lat="44.187890" lon="4.845306">
        <ele>74.114332</ele>
        <time>2017-06-04T18:08:10.358Z</time>
      </trkpt>
      <trkpt lat="44.187819" lon="4.845385">
        <ele>73.969348</ele>
        <time>2017-06-04T18:08:12.031Z</time>
      </trkpt>
      <trkpt lat="44.187450" lon="4.845800">
        <ele>73.212674</ele>
        <time>2017-06-04T18:08:20.723Z</time>
      </trkpt>
      <trkpt lat="44.187330" lon="4.845934">
        <ele>72.967289</ele>
        <time>2017-06-04T18:08:23.523Z</time>
      </trkpt>
      <trkpt lat="44.186300" lon="4.847050">
        <ele>71.606766</ele>
        <time>2017-06-04T18:08:49.139Z</time>
      </trkpt>
      <trkpt lat="44.186253" lon="4.847101">
        <ele>71.566345</ele>
        <time>2017-06-04T18:08:50.357Z</time>
      </trkpt>
      <trkpt lat="44.186203" lon="4.847150">
        <ele>71.524866</ele>
        <time>2017-06-04T18:08:51.564Z</time>
      </trkpt>
      <trkpt lat="44.185300" lon="4.848052">
        <ele>70.936355</ele>
        <time>2017-06-04T18:09:16.991Z</time>
      </trkpt>
      <trkpt lat="44.185236" lon="4.848128">
        <ele>70.942744</ele>
        <time>2017-06-04T18:09:18.963Z</time>
      </trkpt>
      <trkpt lat="44.184597" lon="4.848929">
        <ele>71.008040</ele>
        <time>2017-06-04T18:09:38.669Z</time>
      </trkpt>
      <trkpt lat="44.184269" lon="4.849376">
        <ele>71.042892</ele>
        <time>2017-06-04T18:09:49.757Z</time>
      </trkpt>
      <trkpt lat="44.184040" lon="4.849651">
        <ele>71.103304</ele>
        <time>2017-06-04T18:09:57.333Z</time>
      </trkpt>
      <trkpt lat="44.183970" lon="4.849840">
        <ele>71.160730</ele>
        <time>2017-06-04T18:10:01.019Z</time>
      </trkpt>
      <trkpt lat="44.183737" lon="4.850260">
        <ele>71.304082</ele>
        <time>2017-06-04T18:10:10.381Z</time>
      </trkpt>
      <trkpt lat="44.183547" lon="4.850568">
        <ele>71.413762</ele>
        <time>2017-06-04T18:10:17.556Z</time>
      </trkpt>
      <trkpt lat="44.183377" lon="4.850972">
        <ele>71.540218</ele>
        <time>2017-06-04T18:10:25.799Z</time>
      </trkpt>
      <trkpt lat="44.183104" lon="4.851816">
        <ele>71.762196</ele>
        <time>2017-06-04T18:10:42.408Z</time>
      </trkpt>
      <trkpt lat="44.182879" lon="4.852714">
        <ele>71.892217</ele>
        <time>2017-06-04T18:10:59.627Z</time>
      </trkpt>
      <trkpt lat="44.182803" lon="4.852985">
        <ele>71.931991</ele>
        <time>2017-06-04T18:11:04.810Z</time>
      </trkpt>
      <trkpt lat="44.182521" lon="4.852959">
        <ele>71.985860</ele>
        <time>2017-06-04T18:11:11.602Z</time>
      </trkpt>
      <trkpt lat="44.182178" lon="4.852852">
        <ele>72.052853</ele>
        <time>2017-06-04T18:11:19.499Z</time>
      </trkpt>
      <trkpt lat="44.182055" lon="4.852788">
        <ele>72.069813</ele>
        <time>2017-06-04T18:11:22.457Z</time>
      </trkpt>
      <trkpt lat="44.181757" lon="4.852758">
        <ele>71.828860</ele>
        <time>2017-06-04T18:11:28.958Z</time>
      </trkpt>
      <trkpt lat="44.181097" lon="4.852557">
        <ele>71.284044</ele>
        <time>2017-06-04T18:11:42.771Z</time>
      </trkpt>
      <trkpt lat="44.180882" lon="4.852471">
        <ele>71.103660</ele>
        <time>2017-06-04T18:11:47.308Z</time>
      </trkpt>
      <trkpt lat="44.180778" lon="4.852452">
        <ele>71.019071</ele>
        <time>2017-06-04T18:11:49.381Z</time>
      </trkpt>
      <trkpt lat="44.180367" lon="4.852556">
        <ele>70.682199</ele>
        <time>2017-06-04T18:11:57.811Z</time>
      </trkpt>
      <trkpt lat="44.180247" lon="4.852551">
        <ele>70.588875</ele>
        <time>2017-06-04T18:12:00.163Z</time>
      </trkpt>
      <trkpt lat="44.179878" lon="4.852493">
        <ele>70.315308</ele>
        <time>2017-06-04T18:12:07.618Z</time>
      </trkpt>
      <trkpt lat="44.179566" lon="4.852521">
        <ele>70.084979</ele>
        <time>2017-06-04T18:12:13.899Z</time>
      </trkpt>
      <trkpt lat="44.179179" lon="4.852525">
        <ele>69.799866</ele>
        <time>2017-06-04T18:12:21.759Z</time>
      </trkpt>
      <trkpt lat="44.178909" lon="4.852538">
        <ele>69.600836</ele>
        <time>2017-06-04T18:12:27.529Z</time>
      </trkpt>
      <trkpt lat="44.178550" lon="4.852556">
        <ele>69.336187</ele>
        <time>2017-06-04T18:12:35.326Z</time>
      </trkpt>
      <trkpt lat="44.178536" lon="4.852757">
        <ele>69.339191</ele>
        <time>2017-06-04T18:12:38.692Z</time>
      </trkpt>
      <trkpt lat="44.178484" lon="4.853430">
        <ele>69.532415</ele>
        <time>2017-06-04T18:12:50.012Z</time>
      </trkpt>
      <trkpt lat="44.178262" lon="4.854308">
        <ele>69.798167</ele>
        <time>2017-06-04T18:13:06.197Z</time>
      </trkpt>
      <trkpt lat="44.178255" lon="4.854480">
        <ele>69.847345</ele>
        <time>2017-06-04T18:13:09.507Z</time>
      </trkpt>
      <trkpt lat="44.178241" lon="4.854710">
        <ele>69.913237</ele>
        <time>2017-06-04T18:13:13.977Z</time>
      </trkpt>
      <trkpt lat="44.178207" lon="4.855416">
        <ele>70.239668</ele>
        <time>2017-06-04T18:13:28.240Z</time>
      </trkpt>
      <trkpt lat="44.178289" lon="4.855977">
        <ele>70.609380</ele>
        <time>2017-06-04T18:13:39.864Z</time>
      </trkpt>
      <trkpt lat="44.178302" lon="4.856289">
        <ele>70.811193</ele>
        <time>2017-06-04T18:13:45.953Z</time>
      </trkpt>
      <trkpt lat="44.178346" lon="4.856442">
        <ele>70.917640</ele>
        <time>2017-06-04T18:13:49.318Z</time>
      </trkpt>
      <trkpt lat="44.178403" lon="4.856623">
        <ele>71.045292</ele>
        <time>2017-06-04T18:13:54.033Z</time>
      </trkpt>
      <trkpt lat="44.178468" lon="4.856805">
        <ele>71.176584</ele>
        <time>2017-06-04T18:13:58.573Z</time>
      </trkpt>
      <trkpt lat="44.178500" lon="4.856843">
        <ele>71.214430</ele>
        <time>2017-06-04T18:14:00.109Z</time>
      </trkpt>
      <trkpt lat="44.178584" lon="4.856944">
        <ele>71.314301</ele>
        <time>2017-06-04T18:14:03.584Z</time>
      </trkpt>
      <trkpt lat="44.178727" lon="4.857074">
        <ele>71.468008</ele>
        <time>2017-06-04T18:14:08.897Z</time>
      </trkpt>
      <trkpt lat="44.178636" lon="4.857278">
        <ele>71.623143</ele>
        <time>2017-06-04T18:14:13.329Z</time>
      </trkpt>
      <trkpt lat="44.178402" lon="4.857709">
        <ele>71.650101</ele>
        <time>2017-06-04T18:14:23.011Z</time>
      </trkpt>
      <trkpt lat="44.178347" lon="4.857803">
        <ele>71.653356</ele>
        <time>2017-06-04T18:14:25.124Z</time>
      </trkpt>
      <trkpt lat="44.178293" lon="4.857896">
        <ele>71.656567</ele>
        <time>2017-06-04T18:14:27.160Z</time>
      </trkpt>
      <trkpt lat="44.178166" lon="4.858000">
        <ele>71.662077</ele>
        <time>2017-06-04T18:14:30.813Z</time>
      </trkpt>
      <trkpt lat="44.177895" lon="4.858144">
        <ele>71.672928</ele>
        <time>2017-06-04T18:14:37.622Z</time>
      </trkpt>
      <trkpt lat="44.175907" lon="4.858959">
        <ele>71.434890</ele>
        <time>2017-06-04T18:15:23.135Z</time>
      </trkpt>
      <trkpt lat="44.175730" lon="4.859033">
        <ele>71.395409</ele>
        <time>2017-06-04T18:15:27.409Z</time>
      </trkpt>
      <trkpt lat="44.175313" lon="4.859205">
        <ele>71.314081</ele>
        <time>2017-06-04T18:15:37.651Z</time>
      </trkpt>
      <trkpt lat="44.174935" lon="4.859351">
        <ele>71.288614</ele>
        <time>2017-06-04T18:15:46.816Z</time>
      </trkpt>
      <trkpt lat="44.174722" lon="4.859430">
        <ele>71.274304</ele>
        <time>2017-06-04T18:15:51.575Z</time>
      </trkpt>
      <trkpt lat="44.174563" lon="4.859500">
        <ele>71.263478</ele>
        <time>2017-06-04T18:15:55.691Z</time>
      </trkpt>
      <trkpt lat="44.174062" lon="4.859759">
        <ele>71.228786</ele>
        <time>2017-06-04T18:16:08.128Z</time>
      </trkpt>
      <trkpt lat="44.173898" lon="4.859884">
        <ele>71.216651</ele>
        <time>2017-06-04T18:16:12.694Z</time>
      </trkpt>
      <trkpt lat="44.173708" lon="4.860240">
        <ele>71.141031</ele>
        <time>2017-06-04T18:16:19.924Z</time>
      </trkpt>
      <trkpt lat="44.173646" lon="4.860385">
        <ele>71.065359</ele>
        <time>2017-06-04T18:16:22.362Z</time>
      </trkpt>
      <trkpt lat="44.173509" lon="4.860921">
        <ele>70.810288</ele>
        <time>2017-06-04T18:16:30.919Z</time>
      </trkpt>
      <trkpt lat="44.173255" lon="4.861926">
        <ele>70.332628</ele>
        <time>2017-06-04T18:16:46.646Z</time>
      </trkpt>
      <trkpt lat="44.173124" lon="4.862133">
        <ele>70.208880</ele>
        <time>2017-06-04T18:16:50.732Z</time>
      </trkpt>
      <trkpt lat="44.172938" lon="4.862287">
        <ele>70.076502</ele>
        <time>2017-06-04T18:16:55.330Z</time>
      </trkpt>
      <trkpt lat="44.172869" lon="4.862373">
        <ele>70.054633</ele>
        <time>2017-06-04T18:16:57.273Z</time>
      </trkpt>
      <trkpt lat="44.172435" lon="4.862582">
        <ele>69.946137</ele>
        <time>2017-06-04T18:17:07.426Z</time>
      </trkpt>
      <trkpt lat="44.172319" lon="4.862635">
        <ele>69.917293</ele>
        <time>2017-06-04T18:17:10.059Z</time>
      </trkpt>
      <trkpt lat="44.171855" lon="4.862885">
        <ele>69.799752</ele>
        <time>2017-06-04T18:17:21.057Z</time>
      </trkpt>
      <trkpt lat="44.171711" lon="4.862966">
        <ele>69.763061</ele>
        <time>2017-06-04T18:17:24.663Z</time>
      </trkpt>
      <trkpt lat="44.171004" lon="4.863445">
        <ele>69.647522</ele>
        <time>2017-06-04T18:17:43.036Z</time>
      </trkpt>
      <trkpt lat="44.170682" lon="4.863797">
        <ele>69.640271</ele>
        <time>2017-06-04T18:17:52.956Z</time>
      </trkpt>
      <trkpt lat="44.170187" lon="4.864355">
        <ele>69.628991</ele>
        <time>2017-06-04T18:18:07.755Z</time>
      </trkpt>
      <trkpt lat="44.170081" lon="4.864492">
        <ele>69.626429</ele>
        <time>2017-06-04T18:18:11.054Z</time>
      </trkpt>
      <trkpt lat="44.169670" lon="4.865217">
        <ele>69.440186</ele>
        <time>2017-06-04T18:18:25.785Z</time>
      </trkpt>
      <trkpt lat="44.169602" lon="4.865347">
        <ele>69.384532</ele>
        <time>2017-06-04T18:18:28.313Z</time>
      </trkpt>
      <trkpt lat="44.169558" lon="4.865434">
        <ele>69.347711</ele>
        <time>2017-06-04T18:18:29.824Z</time>
      </trkpt>
      <trkpt lat="44.169176" lon="4.866190">
        <ele>69.027840</ele>
        <time>2017-06-04T18:18:43.881Z</time>
      </trkpt>
      <trkpt lat="44.168294" lon="4.867649">
        <ele>68.711881</ele>
        <time>2017-06-04T18:19:13.261Z</time>
      </trkpt>
      <trkpt lat="44.168254" lon="4.867719">
        <ele>68.708507</ele>
        <time>2017-06-04T18:19:14.865Z</time>
      </trkpt>
      <trkpt lat="44.167775" lon="4.868335">
        <ele>68.674254</ele>
        <time>2017-06-04T18:19:30.399Z</time>
      </trkpt>
      <trkpt lat="44.167443" lon="4.868917">
        <ele>68.905930</ele>
        <time>2017-06-04T18:19:43.701Z</time>
      </trkpt>
      <trkpt lat="44.167252" lon="4.869251">
        <ele>69.206445</ele>
        <time>2017-06-04T18:19:51.605Z</time>
      </trkpt>
      <trkpt lat="44.166945" lon="4.869774">
        <ele>69.681895</ele>
        <time>2017-06-04T18:20:04.540Z</time>
      </trkpt>
      <trkpt lat="44.166859" lon="4.869863">
        <ele>69.786944</ele>
        <time>2017-06-04T18:20:07.512Z</time>
      </trkpt>
      <trkpt lat="44.166563" lon="4.870169">
        <ele>70.148374</ele>
        <time>2017-06-04T18:20:17.962Z</time>
      </trkpt>
      <trkpt lat="44.166289" lon="4.870532">
        <ele>70.533515</ele>
        <time>2017-06-04T18:20:28.926Z</time>
      </trkpt>
      <trkpt lat="44.166168" lon="4.871022">
        <ele>70.953072</ele>
        <time>2017-06-04T18:20:40.260Z</time>
      </trkpt>
      <trkpt lat="44.166114" lon="4.871312">
        <ele>71.195640</ele>
        <time>2017-06-04T18:20:47.058Z</time>
      </trkpt>
      <trkpt lat="44.166015" lon="4.872175">
        <ele>71.903213</ele>
        <time>2017-06-04T18:21:04.022Z</time>
      </trkpt>
      <trkpt lat="44.165921" lon="4.872545">
        <ele>72.221002</ele>
        <time>2017-06-04T18:21:11.067Z</time>
      </trkpt>
      <trkpt lat="44.165824" lon="4.872748">
        <ele>72.418479</ele>
        <time>2017-06-04T18:21:16.164Z</time>
      </trkpt>
      <trkpt lat="44.165286" lon="4.872446">
        <ele>72.308083</ele>
        <time>2017-06-04T18:21:30.250Z</time>
      </trkpt>
      <trkpt lat="44.165017" lon="4.872418">
        <ele>72.236575</ele>
        <time>2017-06-04T18:21:36.512Z</time>
      </trkpt>
      <trkpt lat="44.164798" lon="4.872395">
        <ele>72.178355</ele>
        <time>2017-06-04T18:21:41.390Z</time>
      </trkpt>
      <trkpt lat="44.164591" lon="4.872382">
        <ele>72.123425</ele>
        <time>2017-06-04T18:21:45.372Z</time>
      </trkpt>
      <trkpt lat="44.164488" lon="4.872391">
        <ele>72.096067</ele>
        <time>2017-06-04T18:21:47.557Z</time>
      </trkpt>
      <trkpt lat="44.164387" lon="4.872436">
        <ele>72.067958</ele>
        <time>2017-06-04T18:21:49.672Z</time>
      </trkpt>
      <trkpt lat="44.164323" lon="4.872573">
        <ele>72.036869</ele>
        <time>2017-06-04T18:21:51.904Z</time>
      </trkpt>
      <trkpt lat="44.164181" lon="4.873028">
        <ele>71.836317</ele>
        <time>2017-06-04T18:21:58.620Z</time>
      </trkpt>
      <trkpt lat="44.164179" lon="4.873465">
        <ele>71.495680</ele>
        <time>2017-06-04T18:22:04.790Z</time>
      </trkpt>
      <trkpt lat="44.164206" lon="4.873563">
        <ele>71.413852</ele>
        <time>2017-06-04T18:22:06.311Z</time>
      </trkpt>
      <trkpt lat="44.164021" lon="4.873558">
        <ele>71.212792</ele>
        <time>2017-06-04T18:22:10.008Z</time>
      </trkpt>
      <trkpt lat="44.163778" lon="4.873551">
        <ele>70.948690</ele>
        <time>2017-06-04T18:22:14.924Z</time>
      </trkpt>
      <trkpt lat="44.163650" lon="4.873547">
        <ele>70.809570</ele>
        <time>2017-06-04T18:22:17.471Z</time>
      </trkpt>
      <trkpt lat="44.163399" lon="4.873540">
        <ele>70.536777</ele>
        <time>2017-06-04T18:22:22.416Z</time>
      </trkpt>
      <trkpt lat="44.163376" lon="4.873612">
        <ele>70.475341</ele>
        <time>2017-06-04T18:22:23.531Z</time>
      </trkpt>
      <trkpt lat="44.163245" lon="4.874127">
        <ele>70.049417</ele>
        <time>2017-06-04T18:22:31.044Z</time>
      </trkpt>
      <trkpt lat="44.163169" lon="4.874417">
        <ele>69.863605</ele>
        <time>2017-06-04T18:22:35.230Z</time>
      </trkpt>
      <trkpt lat="44.163045" lon="4.875071">
        <ele>69.471716</ele>
        <time>2017-06-04T18:22:44.862Z</time>
      </trkpt>
      <trkpt lat="44.163026" lon="4.875184">
        <ele>69.404478</ele>
        <time>2017-06-04T18:22:46.429Z</time>
      </trkpt>
      <trkpt lat="44.163001" lon="4.875177">
        <ele>69.383885</ele>
        <time>2017-06-04T18:22:46.927Z</time>
      </trkpt>
      <trkpt lat="44.162955" lon="4.875202">
        <ele>69.344013</ele>
        <time>2017-06-04T18:22:47.976Z</time>
      </trkpt>
      <trkpt lat="44.162934" lon="4.875265">
        <ele>69.303768</ele>
        <time>2017-06-04T18:22:49.024Z</time>
      </trkpt>
      <trkpt lat="44.162938" lon="4.875300">
        <ele>69.283236</ele>
        <time>2017-06-04T18:22:49.521Z</time>
      </trkpt>
      <trkpt lat="44.162745" lon="4.875356">
        <ele>69.124032</ele>
        <time>2017-06-04T18:22:53.490Z</time>
      </trkpt>
      <trkpt lat="44.162696" lon="4.875369">
        <ele>69.083750</ele>
        <time>2017-06-04T18:22:54.447Z</time>
      </trkpt>
      <trkpt lat="44.161828" lon="4.875613">
        <ele>68.459550</ele>
        <time>2017-06-04T18:23:12.072Z</time>
      </trkpt>
      <trkpt lat="44.161602" lon="4.875671">
        <ele>68.357823</ele>
        <time>2017-06-04T18:23:16.641Z</time>
      </trkpt>
      <trkpt lat="44.161330" lon="4.875741">
        <ele>68.235380</ele>
        <time>2017-06-04T18:23:22.526Z</time>
      </trkpt>
      <trkpt lat="44.161205" lon="4.875774">
        <ele>68.179061</ele>
        <time>2017-06-04T18:23:25.255Z</time>
      </trkpt>
      <trkpt lat="44.160824" lon="4.875865">
        <ele>68.007943</ele>
        <time>2017-06-04T18:23:33.554Z</time>
      </trkpt>
      <trkpt lat="44.160489" lon="4.875957">
        <ele>67.856795</ele>
        <time>2017-06-04T18:23:40.743Z</time>
      </trkpt>
      <trkpt lat="44.159153" lon="4.876319">
        <ele>67.441549</ele>
        <time>2017-06-04T18:24:08.578Z</time>
      </trkpt>
      <trkpt lat="44.158964" lon="4.876376">
        <ele>67.386813</ele>
        <time>2017-06-04T18:24:12.736Z</time>
      </trkpt>
      <trkpt lat="44.158754" lon="4.876449">
        <ele>67.325550</ele>
        <time>2017-06-04T18:24:17.828Z</time>
      </trkpt>
      <trkpt lat="44.158593" lon="4.876527">
        <ele>67.277303</ele>
        <time>2017-06-04T18:24:21.531Z</time>
      </trkpt>
      <trkpt lat="44.158493" lon="4.876586">
        <ele>67.276169</ele>
        <time>2017-06-04T18:24:24.099Z</time>
      </trkpt>
      <trkpt lat="44.158347" lon="4.876705">
        <ele>67.307449</ele>
        <time>2017-06-04T18:24:28.077Z</time>
      </trkpt>
      <trkpt lat="44.157437" lon="4.877611">
        <ele>67.514275</ele>
        <time>2017-06-04T18:24:53.686Z</time>
      </trkpt>
      <trkpt lat="44.156877" lon="4.878125">
        <ele>67.631072</ele>
        <time>2017-06-04T18:25:09.425Z</time>
      </trkpt>
      <trkpt lat="44.156525" lon="4.878497">
        <ele>67.698454</ele>
        <time>2017-06-04T18:25:19.533Z</time>
      </trkpt>
      <trkpt lat="44.156064" lon="4.878985">
        <ele>67.786756</ele>
        <time>2017-06-04T18:25:32.739Z</time>
      </trkpt>
      <trkpt lat="44.155628" lon="4.879576">
        <ele>67.885586</ele>
        <time>2017-06-04T18:25:46.151Z</time>
      </trkpt>
      <trkpt lat="44.154674" lon="4.881209">
        <ele>68.289771</ele>
        <time>2017-06-04T18:26:21.866Z</time>
      </trkpt>
      <trkpt lat="44.153975" lon="4.882508">
        <ele>68.353145</ele>
        <time>2017-06-04T18:26:48.866Z</time>
      </trkpt>
      <trkpt lat="44.153793" lon="4.882697">
        <ele>68.353265</ele>
        <time>2017-06-04T18:26:53.855Z</time>
      </trkpt>
      <trkpt lat="44.153718" lon="4.882712">
        <ele>68.353305</ele>
        <time>2017-06-04T18:26:55.493Z</time>
      </trkpt>
      <trkpt lat="44.153651" lon="4.882763">
        <ele>68.353345</ele>
        <time>2017-06-04T18:26:57.210Z</time>
      </trkpt>
      <trkpt lat="44.153609" lon="4.882826">
        <ele>68.353378</ele>
        <time>2017-06-04T18:26:58.540Z</time>
      </trkpt>
      <trkpt lat="44.153582" lon="4.882903">
        <ele>68.353410</ele>
        <time>2017-06-04T18:26:59.873Z</time>
      </trkpt>
      <trkpt lat="44.153572" lon="4.882980">
        <ele>68.353440</ele>
        <time>2017-06-04T18:27:01.083Z</time>
      </trkpt>
      <trkpt lat="44.153577" lon="4.883058">
        <ele>68.353469</ele>
        <time>2017-06-04T18:27:02.266Z</time>
      </trkpt>
      <trkpt lat="44.153594" lon="4.883125">
        <ele>68.353496</ele>
        <time>2017-06-04T18:27:03.344Z</time>
      </trkpt>
      <trkpt lat="44.153623" lon="4.883184">
        <ele>68.353523</ele>
        <time>2017-06-04T18:27:04.479Z</time>
      </trkpt>
      <trkpt lat="44.153579" lon="4.883296">
        <ele>68.353572</ele>
        <time>2017-06-04T18:27:06.387Z</time>
      </trkpt>
      <trkpt lat="44.153559" lon="4.883421">
        <ele>68.336419</ele>
        <time>2017-06-04T18:27:08.327Z</time>
      </trkpt>
      <trkpt lat="44.153493" lon="4.883561">
        <ele>68.271221</ele>
        <time>2017-06-04T18:27:10.784Z</time>
      </trkpt>
      <trkpt lat="44.153220" lon="4.884012">
        <ele>68.041564</ele>
        <time>2017-06-04T18:27:19.477Z</time>
      </trkpt>
      <trkpt lat="44.153022" lon="4.884254">
        <ele>67.898709</ele>
        <time>2017-06-04T18:27:24.694Z</time>
      </trkpt>
      <trkpt lat="44.152613" lon="4.884585">
        <ele>67.642153</ele>
        <time>2017-06-04T18:27:34.210Z</time>
      </trkpt>
      <trkpt lat="44.151141" lon="4.885529">
        <ele>66.939639</ele>
        <time>2017-06-04T18:28:07.478Z</time>
      </trkpt>
      <trkpt lat="44.150567" lon="4.885823">
        <ele>66.703131</ele>
        <time>2017-06-04T18:28:20.431Z</time>
      </trkpt>
      <trkpt lat="44.149730" lon="4.886182">
        <ele>66.741000</ele>
        <time>2017-06-04T18:28:39.878Z</time>
      </trkpt>
      <trkpt lat="44.149098" lon="4.886460">
        <ele>66.788337</ele>
        <time>2017-06-04T18:28:55.121Z</time>
      </trkpt>
      <trkpt lat="44.149013" lon="4.886498">
        <ele>66.794714</ele>
        <time>2017-06-04T18:28:57.332Z</time>
      </trkpt>
      <trkpt lat="44.147994" lon="4.887151">
        <ele>66.709848</ele>
        <time>2017-06-04T18:29:22.862Z</time>
      </trkpt>
      <trkpt lat="44.147711" lon="4.887312">
        <ele>66.675449</ele>
        <time>2017-06-04T18:29:29.678Z</time>
      </trkpt>
      <trkpt lat="44.147595" lon="4.887386">
        <ele>66.661092</ele>
        <time>2017-06-04T18:29:32.397Z</time>
      </trkpt>
      <trkpt lat="44.147564" lon="4.887404">
        <ele>66.657313</ele>
        <time>2017-06-04T18:29:33.114Z</time>
      </trkpt>
      <trkpt lat="44.145710" lon="4.888326">
        <ele>65.476423</ele>
        <time>2017-06-04T18:30:12.825Z</time>
      </trkpt>
      <trkpt lat="44.144995" lon="4.888719">
        <ele>64.572152</ele>
        <time>2017-06-04T18:30:27.377Z</time>
      </trkpt>
      <trkpt lat="44.143920" lon="4.889605">
        <ele>62.814396</ele>
        <time>2017-06-04T18:30:50.159Z</time>
      </trkpt>
      <trkpt lat="44.143665" lon="4.889817">
        <ele>62.468248</ele>
        <time>2017-06-04T18:30:55.563Z</time>
      </trkpt>
      <trkpt lat="44.143595" lon="4.889876">
        <ele>62.376530</ele>
        <time>2017-06-04T18:30:56.986Z</time>
      </trkpt>
      <trkpt lat="44.142632" lon="4.890240">
        <ele>61.257858</ele>
        <time>2017-06-04T18:31:15.691Z</time>
      </trkpt>
      <trkpt lat="44.142498" lon="4.890282">
        <ele>61.103872</ele>
        <time>2017-06-04T18:31:18.269Z</time>
      </trkpt>
      <trkpt lat="44.142320" lon="4.890334">
        <ele>60.899970</ele>
        <time>2017-06-04T18:31:21.908Z</time>
      </trkpt>
      <trkpt lat="44.141354" lon="4.890674">
        <ele>60.980986</ele>
        <time>2017-06-04T18:31:43.659Z</time>
      </trkpt>
      <trkpt lat="44.140291" lon="4.891115">
        <ele>61.354908</ele>
        <time>2017-06-04T18:32:11.765Z</time>
      </trkpt>
      <trkpt lat="44.139554" lon="4.891426">
        <ele>61.819536</ele>
        <time>2017-06-04T18:32:31.645Z</time>
      </trkpt>
      <trkpt lat="44.139268" lon="4.891555">
        <ele>62.000916</ele>
        <time>2017-06-04T18:32:39.036Z</time>
      </trkpt>
      <trkpt lat="44.138060" lon="4.892134">
        <ele>62.193663</ele>
        <time>2017-06-04T18:33:08.630Z</time>
      </trkpt>
      <trkpt lat="44.138015" lon="4.892155">
        <ele>62.183504</ele>
        <time>2017-06-04T18:33:09.543Z</time>
      </trkpt>
      <trkpt lat="44.137253" lon="4.892523">
        <ele>62.010861</ele>
        <time>2017-06-04T18:33:26.256Z</time>
      </trkpt>
      <trkpt lat="44.136656" lon="4.892799">
        <ele>61.758087</ele>
        <time>2017-06-04T18:33:38.944Z</time>
      </trkpt>
      <trkpt lat="44.136566" lon="4.894409">
        <ele>61.160233</ele>
        <time>2017-06-04T18:34:03.596Z</time>
      </trkpt>
      <trkpt lat="44.136369" lon="4.896128">
        <ele>61.054601</ele>
        <time>2017-06-04T18:34:31.450Z</time>
      </trkpt>
      <trkpt lat="44.136328" lon="4.896771">
        <ele>61.064982</ele>
        <time>2017-06-04T18:34:42.623Z</time>
      </trkpt>
      <trkpt lat="44.136310" lon="4.898081">
        <ele>61.388998</ele>
        <time>2017-06-04T18:35:06.700Z</time>
      </trkpt>
      <trkpt lat="44.136228" lon="4.899908">
        <ele>62.013845</ele>
        <time>2017-06-04T18:35:40.096Z</time>
      </trkpt>
      <trkpt lat="44.136237" lon="4.899954">
        <ele>62.014408</ele>
        <time>2017-06-04T18:35:40.943Z</time>
      </trkpt>
      <trkpt lat="44.136199" lon="4.900784">
        <ele>62.024219</ele>
        <time>2017-06-04T18:35:55.561Z</time>
      </trkpt>
      <trkpt lat="44.136203" lon="4.901383">
        <ele>62.031286</ele>
        <time>2017-06-04T18:36:05.565Z</time>
      </trkpt>
      <trkpt lat="44.136278" lon="4.902077">
        <ele>62.039566</ele>
        <time>2017-06-04T18:36:16.612Z</time>
      </trkpt>
      <trkpt lat="44.136317" lon="4.902379">
        <ele>61.979757</ele>
        <time>2017-06-04T18:36:21.379Z</time>
      </trkpt>
      <trkpt lat="44.135589" lon="4.902347">
        <ele>61.561860</ele>
        <time>2017-06-04T18:36:36.834Z</time>
      </trkpt>
      <trkpt lat="44.134985" lon="4.902413">
        <ele>61.214252</ele>
        <time>2017-06-04T18:36:49.875Z</time>
      </trkpt>
      <trkpt lat="44.134152" lon="4.902542">
        <ele>60.682265</ele>
        <time>2017-06-04T18:37:07.122Z</time>
      </trkpt>
      <trkpt lat="44.133820" lon="4.902591">
        <ele>60.455252</ele>
        <time>2017-06-04T18:37:14.080Z</time>
      </trkpt>
      <trkpt lat="44.133605" lon="4.902588">
        <ele>60.309051</ele>
        <time>2017-06-04T18:37:18.628Z</time>
      </trkpt>
      <trkpt lat="44.133302" lon="4.902613">
        <ele>60.102659</ele>
        <time>2017-06-04T18:37:24.917Z</time>
      </trkpt>
      <trkpt lat="44.132430" lon="4.902688">
        <ele>59.562026</ele>
        <time>2017-06-04T18:37:43.524Z</time>
      </trkpt>
      <trkpt lat="44.131540" lon="4.902893">
        <ele>59.066598</ele>
        <time>2017-06-04T18:38:02.778Z</time>
      </trkpt>
      <trkpt lat="44.131054" lon="4.903052">
        <ele>58.792500</ele>
        <time>2017-06-04T18:38:13.510Z</time>
      </trkpt>
      <trkpt lat="44.129974" lon="4.903493">
        <ele>58.181925</ele>
        <time>2017-06-04T18:38:37.217Z</time>
      </trkpt>
      <trkpt lat="44.129313" lon="4.903714">
        <ele>57.816905</ele>
        <time>2017-06-04T18:38:51.914Z</time>
      </trkpt>
      <trkpt lat="44.128916" lon="4.903795">
        <ele>57.684204</ele>
        <time>2017-06-04T18:39:00.620Z</time>
      </trkpt>
      <trkpt lat="44.128261" lon="4.903903">
        <ele>57.466064</ele>
        <time>2017-06-04T18:39:14.837Z</time>
      </trkpt>
      <trkpt lat="44.127925" lon="4.903901">
        <ele>57.354938</ele>
        <time>2017-06-04T18:39:22.277Z</time>
      </trkpt>
      <trkpt lat="44.127273" lon="4.903923">
        <ele>57.199241</ele>
        <time>2017-06-04T18:39:37.200Z</time>
      </trkpt>
      <trkpt lat="44.126237" lon="4.903875">
        <ele>57.088355</ele>
        <time>2017-06-04T18:40:00.699Z</time>
      </trkpt>
      <trkpt lat="44.125957" lon="4.903835">
        <ele>57.058246</ele>
        <time>2017-06-04T18:40:07.065Z</time>
      </trkpt>
      <trkpt lat="44.125811" lon="4.903797">
        <ele>57.042357</ele>
        <time>2017-06-04T18:40:10.425Z</time>
      </trkpt>
      <trkpt lat="44.125322" lon="4.903623">
        <ele>57.014044</ele>
        <time>2017-06-04T18:40:22.116Z</time>
      </trkpt>
      <trkpt lat="44.123561" lon="4.903281">
        <ele>56.870123</ele>
        <time>2017-06-04T18:41:02.991Z</time>
      </trkpt>
      <trkpt lat="44.123103" lon="4.903114">
        <ele>56.782502</ele>
        <time>2017-06-04T18:41:13.629Z</time>
      </trkpt>
      <trkpt lat="44.122605" lon="4.902644">
        <ele>56.671174</ele>
        <time>2017-06-04T18:41:27.040Z</time>
      </trkpt>
      <trkpt lat="44.122369" lon="4.902542">
        <ele>56.625442</ele>
        <time>2017-06-04T18:41:32.511Z</time>
      </trkpt>
      <trkpt lat="44.121827" lon="4.902547">
        <ele>56.480561</ele>
        <time>2017-06-04T18:41:44.459Z</time>
      </trkpt>
      <trkpt lat="44.121303" lon="4.902464">
        <ele>56.334553</ele>
        <time>2017-06-04T18:41:56.076Z</time>
      </trkpt>
      <trkpt lat="44.120252" lon="4.902706">
        <ele>56.052956</ele>
        <time>2017-06-04T18:42:19.721Z</time>
      </trkpt>
      <trkpt lat="44.119724" lon="4.902461">
        <ele>55.925406</ele>
        <time>2017-06-04T18:42:32.239Z</time>
      </trkpt>
      <trkpt lat="44.119343" lon="4.901939">
        <ele>55.802925</ele>
        <time>2017-06-04T18:42:44.032Z</time>
      </trkpt>
      <trkpt lat="44.119105" lon="4.901889">
        <ele>55.747760</ele>
        <time>2017-06-04T18:42:49.189Z</time>
      </trkpt>
      <trkpt lat="44.118898" lon="4.901825">
        <ele>55.702661</ele>
        <time>2017-06-04T18:42:53.745Z</time>
      </trkpt>
      <trkpt lat="44.118712" lon="4.901764">
        <ele>55.686031</ele>
        <time>2017-06-04T18:42:57.987Z</time>
      </trkpt>
      <trkpt lat="44.118622" lon="4.901707">
        <ele>55.677427</ele>
        <time>2017-06-04T18:43:00.055Z</time>
      </trkpt>
      <trkpt lat="44.118364" lon="4.901461">
        <ele>55.650217</ele>
        <time>2017-06-04T18:43:06.834Z</time>
      </trkpt>
      <trkpt lat="44.118200" lon="4.901304">
        <ele>55.632898</ele>
        <time>2017-06-04T18:43:11.097Z</time>
      </trkpt>
      <trkpt lat="44.118017" lon="4.901146">
        <ele>55.614161</ele>
        <time>2017-06-04T18:43:15.757Z</time>
      </trkpt>
      <trkpt lat="44.117555" lon="4.900883">
        <ele>55.570725</ele>
        <time>2017-06-04T18:43:26.812Z</time>
      </trkpt>
      <trkpt lat="44.117543" lon="4.900954">
        <ele>55.566168</ele>
        <time>2017-06-04T18:43:27.994Z</time>
      </trkpt>
      <trkpt lat="44.117535" lon="4.901002">
        <ele>55.563089</ele>
        <time>2017-06-04T18:43:28.803Z</time>
      </trkpt>
      <trkpt lat="44.117373" lon="4.901970">
        <ele>55.683369</ele>
        <time>2017-06-04T18:43:44.966Z</time>
      </trkpt>
      <trkpt lat="44.117234" lon="4.902736">
        <ele>55.824425</ele>
        <time>2017-06-04T18:43:58.417Z</time>
      </trkpt>
      <trkpt lat="44.117057" lon="4.903682">
        <ele>55.997957</ele>
        <time>2017-06-04T18:44:14.984Z</time>
      </trkpt>
      <trkpt lat="44.116784" lon="4.904843">
        <ele>56.151905</ele>
        <time>2017-06-04T18:44:35.620Z</time>
      </trkpt>
      <trkpt lat="44.116632" lon="4.905353">
        <ele>56.221490</ele>
        <time>2017-06-04T18:44:44.682Z</time>
      </trkpt>
      <trkpt lat="44.116618" lon="4.905401">
        <ele>56.228018</ele>
        <time>2017-06-04T18:44:45.631Z</time>
      </trkpt>
      <trkpt lat="44.116603" lon="4.905450">
        <ele>56.234731</ele>
        <time>2017-06-04T18:44:46.348Z</time>
      </trkpt>
      <trkpt lat="44.116392" lon="4.906056">
        <ele>56.306731</ele>
        <time>2017-06-04T18:44:57.220Z</time>
      </trkpt>
      <trkpt lat="44.115954" lon="4.907107">
        <ele>56.223571</ele>
        <time>2017-06-04T18:45:16.438Z</time>
      </trkpt>
      <trkpt lat="44.115693" lon="4.907656">
        <ele>56.178512</ele>
        <time>2017-06-04T18:45:26.615Z</time>
      </trkpt>
      <trkpt lat="44.115396" lon="4.908167">
        <ele>56.133895</ele>
        <time>2017-06-04T18:45:36.895Z</time>
      </trkpt>
      <trkpt lat="44.115244" lon="4.908430">
        <ele>56.112162</ele>
        <time>2017-06-04T18:45:42.210Z</time>
      </trkpt>
      <trkpt lat="44.115117" lon="4.908645">
        <ele>56.094240</ele>
        <time>2017-06-04T18:45:46.547Z</time>
      </trkpt>
      <trkpt lat="44.115034" lon="4.908766">
        <ele>56.083468</ele>
        <time>2017-06-04T18:45:49.194Z</time>
      </trkpt>
      <trkpt lat="44.112827" lon="4.911733">
        <ele>55.888607</ele>
        <time>2017-06-04T18:46:56.613Z</time>
      </trkpt>
      <trkpt lat="44.110871" lon="4.914410">
        <ele>56.378165</ele>
        <time>2017-06-04T18:47:58.743Z</time>
      </trkpt>
      <trkpt lat="44.110118" lon="4.915823">
        <ele>56.945841</ele>
        <time>2017-06-04T18:48:30.417Z</time>
      </trkpt>
      <trkpt lat="44.109540" lon="4.917280">
        <ele>57.657084</ele>
        <time>2017-06-04T18:48:59.955Z</time>
      </trkpt>
      <trkpt lat="44.109298" lon="4.918063">
        <ele>57.733302</ele>
        <time>2017-06-04T18:49:14.561Z</time>
      </trkpt>
      <trkpt lat="44.109196" lon="4.918463">
        <ele>57.744428</ele>
        <time>2017-06-04T18:49:21.552Z</time>
      </trkpt>
      <trkpt lat="44.109109" lon="4.918833">
        <ele>57.754633</ele>
        <time>2017-06-04T18:49:27.767Z</time>
      </trkpt>
      <trkpt lat="44.108788" lon="4.920181">
        <ele>57.649323</ele>
        <time>2017-06-04T18:49:49.389Z</time>
      </trkpt>
      <trkpt lat="44.108660" lon="4.920718">
        <ele>57.483779</ele>
        <time>2017-06-04T18:49:57.762Z</time>
      </trkpt>
      <trkpt lat="44.108448" lon="4.921564">
        <ele>57.221618</ele>
        <time>2017-06-04T18:50:11.546Z</time>
      </trkpt>
      <trkpt lat="44.108084" lon="4.922688">
        <ele>56.766681</ele>
        <time>2017-06-04T18:50:29.417Z</time>
      </trkpt>
      <trkpt lat="44.107403" lon="4.924353">
        <ele>55.929046</ele>
        <time>2017-06-04T18:50:57.175Z</time>
      </trkpt>
      <trkpt lat="44.106688" lon="4.925992">
        <ele>55.334842</ele>
        <time>2017-06-04T18:51:25.654Z</time>
      </trkpt>
      <trkpt lat="44.106659" lon="4.926057">
        <ele>55.311132</ele>
        <time>2017-06-04T18:51:26.814Z</time>
      </trkpt>
      <trkpt lat="44.106624" lon="4.926138">
        <ele>55.281841</ele>
        <time>2017-06-04T18:51:28.254Z</time>
      </trkpt>
      <trkpt lat="44.105375" lon="4.928966">
        <ele>54.647059</ele>
        <time>2017-06-04T18:52:19.496Z</time>
      </trkpt>
      <trkpt lat="44.104170" lon="4.931732">
        <ele>53.795515</ele>
        <time>2017-06-04T18:53:08.266Z</time>
      </trkpt>
      <trkpt lat="44.104139" lon="4.931804">
        <ele>53.769364</ele>
        <time>2017-06-04T18:53:09.490Z</time>
      </trkpt>
      <trkpt lat="44.101649" lon="4.937490">
        <ele>51.496639</ele>
        <time>2017-06-04T18:54:48.090Z</time>
      </trkpt>
      <trkpt lat="44.101631" lon="4.937533">
        <ele>51.481785</ele>
        <time>2017-06-04T18:54:48.771Z</time>
      </trkpt>
      <trkpt lat="44.101609" lon="4.937583">
        <ele>51.464286</ele>
        <time>2017-06-04T18:54:49.592Z</time>
      </trkpt>
      <trkpt lat="44.097885" lon="4.946092">
        <ele>48.322634</ele>
        <time>2017-06-04T18:57:18.930Z</time>
      </trkpt>
      <trkpt lat="44.097850" lon="4.946169">
        <ele>48.265305</ele>
        <time>2017-06-04T18:57:20.314Z</time>
      </trkpt>
      <trkpt lat="44.097815" lon="4.946251">
        <ele>48.205294</ele>
        <time>2017-06-04T18:57:21.632Z</time>
      </trkpt>
      <trkpt lat="44.093388" lon="4.956367">
        <ele>40.723840</ele>
        <time>2017-06-04T19:00:07.878Z</time>
      </trkpt>
      <trkpt lat="44.091873" lon="4.959796">
        <ele>38.506953</ele>
        <time>2017-06-04T19:01:05.204Z</time>
      </trkpt>
      <trkpt lat="44.091629" lon="4.960278">
        <ele>38.206915</ele>
        <time>2017-06-04T19:01:13.757Z</time>
      </trkpt>
      <trkpt lat="44.091588" lon="4.960375">
        <ele>38.149648</ele>
        <time>2017-06-04T19:01:15.304Z</time>
      </trkpt>
      <trkpt lat="44.091553" lon="4.960458">
        <ele>38.100677</ele>
        <time>2017-06-04T19:01:16.727Z</time>
      </trkpt>
      <trkpt lat="44.091380" lon="4.960914">
        <ele>37.905921</ele>
        <time>2017-06-04T19:01:24.286Z</time>
      </trkpt>
      <trkpt lat="44.089906" lon="4.964307">
        <ele>36.868901</ele>
        <time>2017-06-04T19:02:24.276Z</time>
      </trkpt>
      <trkpt lat="44.087909" lon="4.968809">
        <ele>35.529430</ele>
        <time>2017-06-04T19:03:45.093Z</time>
      </trkpt>
      <trkpt lat="44.087609" lon="4.969513">
        <ele>35.132223</ele>
        <time>2017-06-04T19:03:56.398Z</time>
      </trkpt>
      <trkpt lat="44.087265" lon="4.970320">
        <ele>34.487996</ele>
        <time>2017-06-04T19:04:09.485Z</time>
      </trkpt>
      <trkpt lat="44.087126" lon="4.970653">
        <ele>34.223589</ele>
        <time>2017-06-04T19:04:14.899Z</time>
      </trkpt>
      <trkpt lat="44.087099" lon="4.970732">
        <ele>34.163528</ele>
        <time>2017-06-04T19:04:16.045Z</time>
      </trkpt>
      <trkpt lat="44.087075" lon="4.970803">
        <ele>34.109658</ele>
        <time>2017-06-04T19:04:17.016Z</time>
      </trkpt>
      <trkpt lat="44.086785" lon="4.971650">
        <ele>33.547198</ele>
        <time>2017-06-04T19:04:30.234Z</time>
      </trkpt>
      <trkpt lat="44.086543" lon="4.972635">
        <ele>33.129992</ele>
        <time>2017-06-04T19:04:45.020Z</time>
      </trkpt>
      <trkpt lat="44.086382" lon="4.973778">
        <ele>32.663192</ele>
        <time>2017-06-04T19:05:02.958Z</time>
      </trkpt>
      <trkpt lat="44.086327" lon="4.974460">
        <ele>32.637757</ele>
        <time>2017-06-04T19:05:13.631Z</time>
      </trkpt>
      <trkpt lat="44.086303" lon="4.975017">
        <ele>32.620799</ele>
        <time>2017-06-04T19:05:22.423Z</time>
      </trkpt>
      <trkpt lat="44.086301" lon="4.975333">
        <ele>32.611196</ele>
        <time>2017-06-04T19:05:27.551Z</time>
      </trkpt>
      <trkpt lat="44.086318" lon="4.976090">
        <ele>32.588179</ele>
        <time>2017-06-04T19:05:39.722Z</time>
      </trkpt>
      <trkpt lat="44.086371" lon="4.977007">
        <ele>32.701028</ele>
        <time>2017-06-04T19:05:54.790Z</time>
      </trkpt>
      <trkpt lat="44.086409" lon="4.977718">
        <ele>32.818557</ele>
        <time>2017-06-04T19:06:06.555Z</time>
      </trkpt>
      <trkpt lat="44.086429" lon="4.978063">
        <ele>32.875613</ele>
        <time>2017-06-04T19:06:12.251Z</time>
      </trkpt>
      <trkpt lat="44.086580" lon="4.980626">
        <ele>33.807781</ele>
        <time>2017-06-04T19:06:56.699Z</time>
      </trkpt>
      <trkpt lat="44.086591" lon="4.980867">
        <ele>33.914009</ele>
        <time>2017-06-04T19:07:01.093Z</time>
      </trkpt>
      <trkpt lat="44.086691" lon="4.982601">
        <ele>35.459342</ele>
        <time>2017-06-04T19:07:34.674Z</time>
      </trkpt>
      <trkpt lat="44.086796" lon="4.984563">
        <ele>37.253963</ele>
        <time>2017-06-04T19:08:16.634Z</time>
      </trkpt>
      <trkpt lat="44.086864" lon="4.985685">
        <ele>38.084712</ele>
        <time>2017-06-04T19:08:38.330Z</time>
      </trkpt>
      <trkpt lat="44.086870" lon="4.985793">
        <ele>38.164632</ele>
        <time>2017-06-04T19:08:40.190Z</time>
      </trkpt>
      <trkpt lat="44.086889" lon="4.986096">
        <ele>38.389035</ele>
        <time>2017-06-04T19:08:45.432Z</time>
      </trkpt>
      <trkpt lat="44.087033" lon="4.988732">
        <ele>37.846263</ele>
        <time>2017-06-04T19:09:24.585Z</time>
      </trkpt>
      <trkpt lat="44.087070" lon="4.989404">
        <ele>37.788556</ele>
        <time>2017-06-04T19:09:34.499Z</time>
      </trkpt>
      <trkpt lat="44.087132" lon="4.990450">
        <ele>37.710406</ele>
        <time>2017-06-04T19:09:50.966Z</time>
      </trkpt>
      <trkpt lat="44.087148" lon="4.990703">
        <ele>37.691494</ele>
        <time>2017-06-04T19:09:55.103Z</time>
      </trkpt>
      <trkpt lat="44.087157" lon="4.990856">
        <ele>37.680063</ele>
        <time>2017-06-04T19:09:57.681Z</time>
      </trkpt>
      <trkpt lat="44.087253" lon="4.992532">
        <ele>38.614777</ele>
        <time>2017-06-04T19:10:26.173Z</time>
      </trkpt>
      <trkpt lat="44.087365" lon="4.994495">
        <ele>40.647568</ele>
        <time>2017-06-04T19:11:07.916Z</time>
      </trkpt>
      <trkpt lat="44.087369" lon="4.994592">
        <ele>40.792268</ele>
        <time>2017-06-04T19:11:10.325Z</time>
      </trkpt>
      <trkpt lat="44.087483" lon="4.996595">
        <ele>43.346324</ele>
        <time>2017-06-04T19:11:56.566Z</time>
      </trkpt>
      <trkpt lat="44.087778" lon="5.001683">
        <ele>43.611938</ele>
        <time>2017-06-04T19:13:14.601Z</time>
      </trkpt>
      <trkpt lat="44.087783" lon="5.001762">
        <ele>43.654827</ele>
        <time>2017-06-04T19:13:15.972Z</time>
      </trkpt>
      <trkpt lat="44.087964" lon="5.004975">
        <ele>45.587959</ele>
        <time>2017-06-04T19:14:17.530Z</time>
      </trkpt>
      <trkpt lat="44.088089" lon="5.007499">
        <ele>47.002378</ele>
        <time>2017-06-04T19:15:04.357Z</time>
      </trkpt>
      <trkpt lat="44.088062" lon="5.009237">
        <ele>47.759217</ele>
        <time>2017-06-04T19:15:33.675Z</time>
      </trkpt>
      <trkpt lat="44.088036" lon="5.009636">
        <ele>47.947736</ele>
        <time>2017-06-04T19:15:40.444Z</time>
      </trkpt>
      <trkpt lat="44.087961" lon="5.010804">
        <ele>48.499525</ele>
        <time>2017-06-04T19:16:01.437Z</time>
      </trkpt>
      <trkpt lat="44.087856" lon="5.011803">
        <ele>49.328416</ele>
        <time>2017-06-04T19:16:20.933Z</time>
      </trkpt>
      <trkpt lat="44.087838" lon="5.011954">
        <ele>49.495257</ele>
        <time>2017-06-04T19:16:24.090Z</time>
      </trkpt>
      <trkpt lat="44.087682" lon="5.013047">
        <ele>50.709921</ele>
        <time>2017-06-04T19:16:47.276Z</time>
      </trkpt>
      <trkpt lat="44.087549" lon="5.013801">
        <ele>51.556879</ele>
        <time>2017-06-04T19:17:03.711Z</time>
      </trkpt>
      <trkpt lat="44.087149" lon="5.015566">
        <ele>53.585516</ele>
        <time>2017-06-04T19:17:41.897Z</time>
      </trkpt>
      <trkpt lat="44.086839" lon="5.016691">
        <ele>54.273479</ele>
        <time>2017-06-04T19:18:05.750Z</time>
      </trkpt>
      <trkpt lat="44.086625" lon="5.017417">
        <ele>54.384103</ele>
        <time>2017-06-04T19:18:18.777Z</time>
      </trkpt>
      <trkpt lat="44.086357" lon="5.018219">
        <ele>54.508794</ele>
        <time>2017-06-04T19:18:32.281Z</time>
      </trkpt>
      <trkpt lat="44.086281" lon="5.018425">
        <ele>54.482256</ele>
        <time>2017-06-04T19:18:35.446Z</time>
      </trkpt>
      <trkpt lat="44.086247" lon="5.018516">
        <ele>54.394368</ele>
        <time>2017-06-04T19:18:37.305Z</time>
      </trkpt>
      <trkpt lat="44.086139" lon="5.018180">
        <ele>54.078966</ele>
        <time>2017-06-04T19:18:42.098Z</time>
      </trkpt>
      <trkpt lat="44.085769" lon="5.016917">
        <ele>52.910256</ele>
        <time>2017-06-04T19:19:00.508Z</time>
      </trkpt>
      <trkpt lat="44.085413" lon="5.017528">
        <ele>52.332714</ele>
        <time>2017-06-04T19:19:10.880Z</time>
      </trkpt>
      <trkpt lat="44.085156" lon="5.018085">
        <ele>52.127235</ele>
        <time>2017-06-04T19:19:19.935Z</time>
      </trkpt>
      <trkpt lat="44.085017" lon="5.018388">
        <ele>52.015645</ele>
        <time>2017-06-04T19:19:25.183Z</time>
      </trkpt>
      <trkpt lat="44.084721" lon="5.019115">
        <ele>51.756264</ele>
        <time>2017-06-04T19:19:38.158Z</time>
      </trkpt>
      <trkpt lat="44.084463" lon="5.019937">
        <ele>51.943076</ele>
        <time>2017-06-04T19:19:53.796Z</time>
      </trkpt>
      <trkpt lat="44.084211" lon="5.020552">
        <ele>52.494855</ele>
        <time>2017-06-04T19:20:07.230Z</time>
      </trkpt>
      <trkpt lat="44.083969" lon="5.021151">
        <ele>53.030440</ele>
        <time>2017-06-04T19:20:20.560Z</time>
      </trkpt>
      <trkpt lat="44.083061" lon="5.023039">
        <ele>55.268518</ele>
        <time>2017-06-04T19:21:07.349Z</time>
      </trkpt>
      <trkpt lat="44.082878" lon="5.023369">
        <ele>55.715939</ele>
        <time>2017-06-04T19:21:15.815Z</time>
      </trkpt>
      <trkpt lat="44.082587" lon="5.023716">
        <ele>56.277844</ele>
        <time>2017-06-04T19:21:26.365Z</time>
      </trkpt>
      <trkpt lat="44.082202" lon="5.024036">
        <ele>56.768244</ele>
        <time>2017-06-04T19:21:38.533Z</time>
      </trkpt>
      <trkpt lat="44.081990" lon="5.024161">
        <ele>57.020039</ele>
        <time>2017-06-04T19:21:44.825Z</time>
      </trkpt>
      <trkpt lat="44.081906" lon="5.024210">
        <ele>57.119646</ele>
        <time>2017-06-04T19:21:47.189Z</time>
      </trkpt>
      <trkpt lat="44.081614" lon="5.024408">
        <ele>57.474865</ele>
        <time>2017-06-04T19:21:55.867Z</time>
      </trkpt>
      <trkpt lat="44.079673" lon="5.026125">
        <ele>59.774167</ele>
        <time>2017-06-04T19:22:55.307Z</time>
      </trkpt>
      <trkpt lat="44.078390" lon="5.027158">
        <ele>61.689081</ele>
        <time>2017-06-04T19:23:35.538Z</time>
      </trkpt>
      <trkpt lat="44.077741" lon="5.027681">
        <ele>63.006071</ele>
        <time>2017-06-04T19:23:56.672Z</time>
      </trkpt>
      <trkpt lat="44.077669" lon="5.027936">
        <ele>63.510293</ele>
        <time>2017-06-04T19:24:03.093Z</time>
      </trkpt>
      <trkpt lat="44.077349" lon="5.028817">
        <ele>65.327057</ele>
        <time>2017-06-04T19:24:26.703Z</time>
      </trkpt>
      <trkpt lat="44.077070" lon="5.029126">
        <ele>66.240393</ele>
        <time>2017-06-04T19:24:39.332Z</time>
      </trkpt>
      <trkpt lat="44.077057" lon="5.029294">
        <ele>66.551356</ele>
        <time>2017-06-04T19:24:43.542Z</time>
      </trkpt>
      <trkpt lat="44.077100" lon="5.029555">
        <ele>67.090534</ele>
        <time>2017-06-04T19:24:50.511Z</time>
      </trkpt>
      <trkpt lat="44.077092" lon="5.029595">
        <ele>67.207107</ele>
        <time>2017-06-04T19:24:51.976Z</time>
      </trkpt>
      <trkpt lat="44.076781" lon="5.029726">
        <ele>68.476934</ele>
        <time>2017-06-04T19:25:03.640Z</time>
      </trkpt>
      <trkpt lat="44.074318" lon="5.031048">
        <ele>78.702844</ele>
        <time>2017-06-04T19:26:48.590Z</time>
      </trkpt>
      <trkpt lat="44.072221" lon="5.032108">
        <ele>85.721808</ele>
        <time>2017-06-04T19:28:08.932Z</time>
      </trkpt>
      <trkpt lat="44.072148" lon="5.032145">
        <ele>85.947947</ele>
        <time>2017-06-04T19:28:11.734Z</time>
      </trkpt>
      <trkpt lat="44.072130" lon="5.032151">
        <ele>86.001823</ele>
        <time>2017-06-04T19:28:12.261Z</time>
      </trkpt>
      <trkpt lat="44.072071" lon="5.032173">
        <ele>86.129256</ele>
        <time>2017-06-04T19:28:14.001Z</time>
      </trkpt>
      <trkpt lat="44.072053" lon="5.032179">
        <ele>86.139445</ele>
        <time>2017-06-04T19:28:14.562Z</time>
      </trkpt>
      <trkpt lat="44.072043" lon="5.032183">
        <ele>86.145172</ele>
        <time>2017-06-04T19:28:14.933Z</time>
      </trkpt>
      <trkpt lat="44.070683" lon="5.032736">
        <ele>86.925121</ele>
        <time>2017-06-04T19:28:52.351Z</time>
      </trkpt>
      <trkpt lat="44.069332" lon="5.033380">
        <ele>84.915445</ele>
        <time>2017-06-04T19:29:19.715Z</time>
      </trkpt>
      <trkpt lat="44.069290" lon="5.033420">
        <ele>84.813699</ele>
        <time>2017-06-04T19:29:20.555Z</time>
      </trkpt>
      <trkpt lat="44.069205" lon="5.033418">
        <ele>84.643737</ele>
        <time>2017-06-04T19:29:22.008Z</time>
      </trkpt>
      <trkpt lat="44.069139" lon="5.033421">
        <ele>84.511716</ele>
        <time>2017-06-04T19:29:23.147Z</time>
      </trkpt>
      <trkpt lat="44.069074" lon="5.033404">
        <ele>84.379489</ele>
        <time>2017-06-04T19:29:24.260Z</time>
      </trkpt>
      <trkpt lat="44.069058" lon="5.033448">
        <ele>84.308650</ele>
        <time>2017-06-04T19:29:24.871Z</time>
      </trkpt>
      <trkpt lat="44.069035" lon="5.033483">
        <ele>84.240517</ele>
        <time>2017-06-04T19:29:25.463Z</time>
      </trkpt>
      <trkpt lat="44.069002" lon="5.033508">
        <ele>84.165400</ele>
        <time>2017-06-04T19:29:26.075Z</time>
      </trkpt>
      <trkpt lat="44.068942" lon="5.033534">
        <ele>84.039765</ele>
        <time>2017-06-04T19:29:27.064Z</time>
      </trkpt>
      <trkpt lat="44.068930" lon="5.033539">
        <ele>84.014722</ele>
        <time>2017-06-04T19:29:27.273Z</time>
      </trkpt>
      <trkpt lat="44.067921" lon="5.033888">
        <ele>81.377465</ele>
        <time>2017-06-04T19:29:44.223Z</time>
      </trkpt>
      <trkpt lat="44.067395" lon="5.034072">
        <ele>79.908685</ele>
        <time>2017-06-04T19:29:53.255Z</time>
      </trkpt>
      <trkpt lat="44.067202" lon="5.034136">
        <ele>79.371385</ele>
        <time>2017-06-04T19:29:56.571Z</time>
      </trkpt>
      <trkpt lat="44.065911" lon="5.035017">
        <ele>77.290750</ele>
        <time>2017-06-04T19:30:22.432Z</time>
      </trkpt>
      <trkpt lat="44.065858" lon="5.035059">
        <ele>77.220260</ele>
        <time>2017-06-04T19:30:23.582Z</time>
      </trkpt>
      <trkpt lat="44.065310" lon="5.035499">
        <ele>76.591264</ele>
        <time>2017-06-04T19:30:37.424Z</time>
      </trkpt>
      <trkpt lat="44.062461" lon="5.037695">
        <ele>78.282228</ele>
        <time>2017-06-04T19:31:57.509Z</time>
      </trkpt>
      <trkpt lat="44.061796" lon="5.038221">
        <ele>78.714797</ele>
        <time>2017-06-04T19:32:16.367Z</time>
      </trkpt>
      <trkpt lat="44.061691" lon="5.038304">
        <ele>78.782041</ele>
        <time>2017-06-04T19:32:19.252Z</time>
      </trkpt>
      <trkpt lat="44.061628" lon="5.038354">
        <ele>78.822426</ele>
        <time>2017-06-04T19:32:20.808Z</time>
      </trkpt>
      <trkpt lat="44.061440" lon="5.038476">
        <ele>78.937937</ele>
        <time>2017-06-04T19:32:25.612Z</time>
      </trkpt>
      <trkpt lat="44.061320" lon="5.038497">
        <ele>79.005286</ele>
        <time>2017-06-04T19:32:28.393Z</time>
      </trkpt>
      <trkpt lat="44.061112" lon="5.038508">
        <ele>79.121194</ele>
        <time>2017-06-04T19:32:33.609Z</time>
      </trkpt>
      <trkpt lat="44.060961" lon="5.038457">
        <ele>79.207720</ele>
        <time>2017-06-04T19:32:37.492Z</time>
      </trkpt>
      <trkpt lat="44.060930" lon="5.038336">
        <ele>79.259123</ele>
        <time>2017-06-04T19:32:39.781Z</time>
      </trkpt>
      <trkpt lat="44.060875" lon="5.038231">
        <ele>79.311117</ele>
        <time>2017-06-04T19:32:42.371Z</time>
      </trkpt>
      <trkpt lat="44.060800" lon="5.038153">
        <ele>79.363255</ele>
        <time>2017-06-04T19:32:44.824Z</time>
      </trkpt>
      <trkpt lat="44.060700" lon="5.038106">
        <ele>79.422031</ele>
        <time>2017-06-04T19:32:47.355Z</time>
      </trkpt>
      <trkpt lat="44.060627" lon="5.038101">
        <ele>79.466660</ele>
        <time>2017-06-04T19:32:49.204Z</time>
      </trkpt>
      <trkpt lat="44.060555" lon="5.038119">
        <ele>79.516384</ele>
        <time>2017-06-04T19:32:51.211Z</time>
      </trkpt>
      <trkpt lat="44.060493" lon="5.038156">
        <ele>79.562238</ele>
        <time>2017-06-04T19:32:52.881Z</time>
      </trkpt>
      <trkpt lat="44.060438" lon="5.038209">
        <ele>79.607711</ele>
        <time>2017-06-04T19:32:54.607Z</time>
      </trkpt>
      <trkpt lat="44.060392" lon="5.038277">
        <ele>79.653328</ele>
        <time>2017-06-04T19:32:56.103Z</time>
      </trkpt>
      <trkpt lat="44.060345" lon="5.038403">
        <ele>79.722671</ele>
        <time>2017-06-04T19:32:58.600Z</time>
      </trkpt>
      <trkpt lat="44.060328" lon="5.038544">
        <ele>79.792506</ele>
        <time>2017-06-04T19:33:01.193Z</time>
      </trkpt>
      <trkpt lat="44.060338" lon="5.038657">
        <ele>79.848118</ele>
        <time>2017-06-04T19:33:03.169Z</time>
      </trkpt>
      <trkpt lat="44.060369" lon="5.038762">
        <ele>79.903566</ele>
        <time>2017-06-04T19:33:04.971Z</time>
      </trkpt>
      <trkpt lat="44.060417" lon="5.038853">
        <ele>79.958704</ele>
        <time>2017-06-04T19:33:06.866Z</time>
      </trkpt>
      <trkpt lat="44.060423" lon="5.038948">
        <ele>80.005286</ele>
        <time>2017-06-04T19:33:08.649Z</time>
      </trkpt>
      <trkpt lat="44.060408" lon="5.039189">
        <ele>80.123444</ele>
        <time>2017-06-04T19:33:12.778Z</time>
      </trkpt>
      <trkpt lat="44.060373" lon="5.039279">
        <ele>80.173430</ele>
        <time>2017-06-04T19:33:14.497Z</time>
      </trkpt>
      <trkpt lat="44.060329" lon="5.039362">
        <ele>80.223809</ele>
        <time>2017-06-04T19:33:16.379Z</time>
      </trkpt>
      <trkpt lat="44.060168" lon="5.039701">
        <ele>80.422291</ele>
        <time>2017-06-04T19:33:23.724Z</time>
      </trkpt>
      <trkpt lat="44.060009" lon="5.040039">
        <ele>80.619618</ele>
        <time>2017-06-04T19:33:31.263Z</time>
      </trkpt>
      <trkpt lat="44.059965" lon="5.040124">
        <ele>80.670130</ele>
        <time>2017-06-04T19:33:33.137Z</time>
      </trkpt>
      <trkpt lat="44.059678" lon="5.040702">
        <ele>80.944721</ele>
        <time>2017-06-04T19:33:47.093Z</time>
      </trkpt>
      <trkpt lat="44.059588" lon="5.040958">
        <ele>81.056110</ele>
        <time>2017-06-04T19:33:52.549Z</time>
      </trkpt>
      <trkpt lat="44.059421" lon="5.041320">
        <ele>81.224242</ele>
        <time>2017-06-04T19:34:00.291Z</time>
      </trkpt>
      <trkpt lat="44.058976" lon="5.042263">
        <ele>81.683640</ele>
        <time>2017-06-04T19:34:19.726Z</time>
      </trkpt>
      <trkpt lat="44.058548" lon="5.043213">
        <ele>82.538587</ele>
        <time>2017-06-04T19:34:39.094Z</time>
      </trkpt>
      <trkpt lat="44.058282" lon="5.043926">
        <ele>83.151141</ele>
        <time>2017-06-04T19:34:55.721Z</time>
      </trkpt>
      <trkpt lat="44.057921" lon="5.045028">
        <ele>84.977497</ele>
        <time>2017-06-04T19:35:23.629Z</time>
      </trkpt>
      <trkpt lat="44.057841" lon="5.045098">
        <ele>85.251731</ele>
        <time>2017-06-04T19:35:27.206Z</time>
      </trkpt>
      <trkpt lat="44.057689" lon="5.045433">
        <ele>86.077940</ele>
        <time>2017-06-04T19:35:36.389Z</time>
      </trkpt>
      <trkpt lat="44.057591" lon="5.045476">
        <ele>86.376129</ele>
        <time>2017-06-04T19:35:40.052Z</time>
      </trkpt>
      <trkpt lat="44.057539" lon="5.045479">
        <ele>86.527158</ele>
        <time>2017-06-04T19:35:42.332Z</time>
      </trkpt>
      <trkpt lat="44.057301" lon="5.045462">
        <ele>87.218719</ele>
        <time>2017-06-04T19:35:50.348Z</time>
      </trkpt>
      <trkpt lat="44.057209" lon="5.045447">
        <ele>87.487520</ele>
        <time>2017-06-04T19:35:53.902Z</time>
      </trkpt>
      <trkpt lat="44.057171" lon="5.045419">
        <ele>87.612298</ele>
        <time>2017-06-04T19:35:55.619Z</time>
      </trkpt>
      <trkpt lat="44.057142" lon="5.045363">
        <ele>87.756245</ele>
        <time>2017-06-04T19:35:57.124Z</time>
      </trkpt>
      <trkpt lat="44.057005" lon="5.044085">
        <ele>90.360401</ele>
        <time>2017-06-04T19:36:33.100Z</time>
      </trkpt>
      <trkpt lat="44.056909" lon="5.043838">
        <ele>90.914406</ele>
        <time>2017-06-04T19:36:40.133Z</time>
      </trkpt>
      <trkpt lat="44.056826" lon="5.043745">
        <ele>91.206953</ele>
        <time>2017-06-04T19:36:44.236Z</time>
      </trkpt>
      <trkpt lat="44.056779" lon="5.043689">
        <ele>91.376819</ele>
        <time>2017-06-04T19:36:46.393Z</time>
      </trkpt>
      <trkpt lat="44.056670" lon="5.043558">
        <ele>91.772214</ele>
        <time>2017-06-04T19:36:50.388Z</time>
      </trkpt>
      <trkpt lat="44.056499" lon="5.043353">
        <ele>92.391853</ele>
        <time>2017-06-04T19:36:57.422Z</time>
      </trkpt>
      <trkpt lat="44.056304" lon="5.043118">
        <ele>93.100042</ele>
        <time>2017-06-04T19:37:05.009Z</time>
      </trkpt>
      <trkpt lat="44.056277" lon="5.043049">
        <ele>93.255045</ele>
        <time>2017-06-04T19:37:07.279Z</time>
      </trkpt>
      <trkpt lat="44.056089" lon="5.041707">
        <ele>95.081114</ele>
        <time>2017-06-04T19:37:37.732Z</time>
      </trkpt>
      <trkpt lat="44.056064" lon="5.041582">
        <ele>95.237564</ele>
        <time>2017-06-04T19:37:40.840Z</time>
      </trkpt>
      <trkpt lat="44.056017" lon="5.041506">
        <ele>95.358461</ele>
        <time>2017-06-04T19:37:42.633Z</time>
      </trkpt>
      <trkpt lat="44.055957" lon="5.041495">
        <ele>95.460000</ele>
        <time>2017-06-04T19:37:44.578Z</time>
      </trkpt>
      <trkpt lat="44.055756" lon="5.041543">
        <ele>95.802172</ele>
        <time>2017-06-04T19:37:50.104Z</time>
      </trkpt>
      <trkpt lat="44.055735" lon="5.041612">
        <ele>95.892524</ele>
        <time>2017-06-04T19:37:51.796Z</time>
      </trkpt>
      <trkpt lat="44.055740" lon="5.041707">
        <ele>96.007381</ele>
        <time>2017-06-04T19:37:53.450Z</time>
      </trkpt>
      <trkpt lat="44.055774" lon="5.041770">
        <ele>96.102380</ele>
        <time>2017-06-04T19:37:55.037Z</time>
      </trkpt>
      <trkpt lat="44.055826" lon="5.041801">
        <ele>96.197296</ele>
        <time>2017-06-04T19:37:56.476Z</time>
      </trkpt>
      <trkpt lat="44.055892" lon="5.041896">
        <ele>96.356620</ele>
        <time>2017-06-04T19:37:58.946Z</time>
      </trkpt>
      <trkpt lat="44.055946" lon="5.042331">
        <ele>96.918220</ele>
        <time>2017-06-04T19:38:08.130Z</time>
      </trkpt>
      <trkpt lat="44.055957" lon="5.042418">
        <ele>97.044291</ele>
        <time>2017-06-04T19:38:10.074Z</time>
      </trkpt>
      <trkpt lat="44.056132" lon="5.043679">
        <ele>98.877203</ele>
        <time>2017-06-04T19:38:39.830Z</time>
      </trkpt>
      <trkpt lat="44.056138" lon="5.043724">
        <ele>98.942522</ele>
        <time>2017-06-04T19:38:40.917Z</time>
      </trkpt>
      <trkpt lat="44.056120" lon="5.044064">
        <ele>99.429074</ele>
        <time>2017-06-04T19:38:48.957Z</time>
      </trkpt>
      <trkpt lat="44.056077" lon="5.044158">
        <ele>99.588100</ele>
        <time>2017-06-04T19:38:51.165Z</time>
      </trkpt>
      <trkpt lat="44.055897" lon="5.044244">
        <ele>99.966043</ele>
        <time>2017-06-04T19:38:57.358Z</time>
      </trkpt>
      <trkpt lat="44.055704" lon="5.044271">
        <ele>100.329946</ele>
        <time>2017-06-04T19:39:02.856Z</time>
      </trkpt>
      <trkpt lat="44.055610" lon="5.044297">
        <ele>100.439398</ele>
        <time>2017-06-04T19:39:05.893Z</time>
      </trkpt>
      <trkpt lat="44.054839" lon="5.044513">
        <ele>101.337578</ele>
        <time>2017-06-04T19:39:28.965Z</time>
      </trkpt>
      <trkpt lat="44.054729" lon="5.044553">
        <ele>101.467421</ele>
        <time>2017-06-04T19:39:32.279Z</time>
      </trkpt>
      <trkpt lat="44.054597" lon="5.044673">
        <ele>101.647493</ele>
        <time>2017-06-04T19:39:36.577Z</time>
      </trkpt>
      <trkpt lat="44.053955" lon="5.045161">
        <ele>102.242188</ele>
        <time>2017-06-04T19:39:53.898Z</time>
      </trkpt>
      <trkpt lat="44.053889" lon="5.045210">
        <ele>102.166571</ele>
        <time>2017-06-04T19:39:55.375Z</time>
      </trkpt>
      <trkpt lat="44.053190" lon="5.045761">
        <ele>101.354501</ele>
        <time>2017-06-04T19:40:11.001Z</time>
      </trkpt>
      <trkpt lat="44.052883" lon="5.046010">
        <ele>100.995306</ele>
        <time>2017-06-04T19:40:17.706Z</time>
      </trkpt>
      <trkpt lat="44.052768" lon="5.046113">
        <ele>100.857060</ele>
        <time>2017-06-04T19:40:20.321Z</time>
      </trkpt>
      <trkpt lat="44.052681" lon="5.046240">
        <ele>100.729600</ele>
        <time>2017-06-04T19:40:22.627Z</time>
      </trkpt>
      <trkpt lat="44.052395" lon="5.046924">
        <ele>99.292062</ele>
        <time>2017-06-04T19:40:32.766Z</time>
      </trkpt>
      <trkpt lat="44.052363" lon="5.047006">
        <ele>99.071363</ele>
        <time>2017-06-04T19:40:33.881Z</time>
      </trkpt>
      <trkpt lat="44.052315" lon="5.047143">
        <ele>98.710867</ele>
        <time>2017-06-04T19:40:35.705Z</time>
      </trkpt>
      <trkpt lat="44.052251" lon="5.047312">
        <ele>98.259040</ele>
        <time>2017-06-04T19:40:37.980Z</time>
      </trkpt>
      <trkpt lat="44.052133" lon="5.047596">
        <ele>97.483128</ele>
        <time>2017-06-04T19:40:41.769Z</time>
      </trkpt>
      <trkpt lat="44.052074" lon="5.047898">
        <ele>96.742893</ele>
        <time>2017-06-04T19:40:45.280Z</time>
      </trkpt>
      <trkpt lat="44.052053" lon="5.048109">
        <ele>96.239057</ele>
        <time>2017-06-04T19:40:47.595Z</time>
      </trkpt>
      <trkpt lat="44.052026" lon="5.048298">
        <ele>95.783273</ele>
        <time>2017-06-04T19:40:49.868Z</time>
      </trkpt>
      <trkpt lat="44.052009" lon="5.048827">
        <ele>94.517373</ele>
        <time>2017-06-04T19:40:55.824Z</time>
      </trkpt>
      <trkpt lat="44.052099" lon="5.049190">
        <ele>93.469035</ele>
        <time>2017-06-04T19:41:00.112Z</time>
      </trkpt>
      <trkpt lat="44.052188" lon="5.049587">
        <ele>92.333683</ele>
        <time>2017-06-04T19:41:04.761Z</time>
      </trkpt>
      <trkpt lat="44.052210" lon="5.049778">
        <ele>91.805581</ele>
        <time>2017-06-04T19:41:07.064Z</time>
      </trkpt>
      <trkpt lat="44.052210" lon="5.049849">
        <ele>91.611744</ele>
        <time>2017-06-04T19:41:07.811Z</time>
      </trkpt>
      <trkpt lat="44.052211" lon="5.049949">
        <ele>91.338708</ele>
        <time>2017-06-04T19:41:08.946Z</time>
      </trkpt>
      <trkpt lat="44.052210" lon="5.050049">
        <ele>91.065673</ele>
        <time>2017-06-04T19:41:10.017Z</time>
      </trkpt>
      <trkpt lat="44.052035" lon="5.052188">
        <ele>86.495135</ele>
        <time>2017-06-04T19:41:35.135Z</time>
      </trkpt>
      <trkpt lat="44.052005" lon="5.052391">
        <ele>86.214039</ele>
        <time>2017-06-04T19:41:37.931Z</time>
      </trkpt>
      <trkpt lat="44.051898" lon="5.052712">
        <ele>85.734109</ele>
        <time>2017-06-04T19:41:42.747Z</time>
      </trkpt>
      <trkpt lat="44.051755" lon="5.053006">
        <ele>85.252612</ele>
        <time>2017-06-04T19:41:47.654Z</time>
      </trkpt>
      <trkpt lat="44.051693" lon="5.053059">
        <ele>85.115288</ele>
        <time>2017-06-04T19:41:49.057Z</time>
      </trkpt>
      <trkpt lat="44.051566" lon="5.053104">
        <ele>84.867967</ele>
        <time>2017-06-04T19:41:51.600Z</time>
      </trkpt>
      <trkpt lat="44.050913" lon="5.053266">
        <ele>84.213716</ele>
        <time>2017-06-04T19:42:04.858Z</time>
      </trkpt>
      <trkpt lat="44.050788" lon="5.053293">
        <ele>84.159083</ele>
        <time>2017-06-04T19:42:07.459Z</time>
      </trkpt>
      <trkpt lat="44.050353" lon="5.053289">
        <ele>83.971207</ele>
        <time>2017-06-04T19:42:16.460Z</time>
      </trkpt>
      <trkpt lat="44.049937" lon="5.053273">
        <ele>83.791472</ele>
        <time>2017-06-04T19:42:25.188Z</time>
      </trkpt>
      <trkpt lat="44.049832" lon="5.053268">
        <ele>83.746097</ele>
        <time>2017-06-04T19:42:27.392Z</time>
      </trkpt>
      <trkpt lat="44.049646" lon="5.053258">
        <ele>83.665706</ele>
        <time>2017-06-04T19:42:31.429Z</time>
      </trkpt>
      <trkpt lat="44.049480" lon="5.053259">
        <ele>83.614901</ele>
        <time>2017-06-04T19:42:35.001Z</time>
      </trkpt>
      <trkpt lat="44.048374" lon="5.053377">
        <ele>83.630893</ele>
        <time>2017-06-04T19:42:59.669Z</time>
      </trkpt>
      <trkpt lat="44.047543" lon="5.053022">
        <ele>83.644569</ele>
        <time>2017-06-04T19:43:19.473Z</time>
      </trkpt>
      <trkpt lat="44.047407" lon="5.053022">
        <ele>83.647215</ele>
        <time>2017-06-04T19:43:22.468Z</time>
      </trkpt>
      <trkpt lat="44.047269" lon="5.053063">
        <ele>83.649961</ele>
        <time>2017-06-04T19:43:25.796Z</time>
      </trkpt>
      <trkpt lat="44.047017" lon="5.053203">
        <ele>83.655241</ele>
        <time>2017-06-04T19:43:31.738Z</time>
      </trkpt>
      <trkpt lat="44.046713" lon="5.053323">
        <ele>83.661390</ele>
        <time>2017-06-04T19:43:38.741Z</time>
      </trkpt>
      <trkpt lat="44.046667" lon="5.053320">
        <ele>83.662286</ele>
        <time>2017-06-04T19:43:39.791Z</time>
      </trkpt>
      <trkpt lat="44.046617" lon="5.053318">
        <ele>83.663260</ele>
        <time>2017-06-04T19:43:40.980Z</time>
      </trkpt>
      <trkpt lat="44.046559" lon="5.053316">
        <ele>83.664389</ele>
        <time>2017-06-04T19:43:42.381Z</time>
      </trkpt>
      <trkpt lat="44.046420" lon="5.053290">
        <ele>83.667118</ele>
        <time>2017-06-04T19:43:45.483Z</time>
      </trkpt>
      <trkpt lat="44.045878" lon="5.053230">
        <ele>83.676370</ele>
        <time>2017-06-04T19:43:58.093Z</time>
      </trkpt>
      <trkpt lat="44.045574" lon="5.053271">
        <ele>83.679207</ele>
        <time>2017-06-04T19:44:04.910Z</time>
      </trkpt>
      <trkpt lat="44.044010" lon="5.053706">
        <ele>83.737833</ele>
        <time>2017-06-04T19:44:41.984Z</time>
      </trkpt>
      <trkpt lat="44.043528" lon="5.053853">
        <ele>83.835479</ele>
        <time>2017-06-04T19:44:53.970Z</time>
      </trkpt>
      <trkpt lat="44.043294" lon="5.053948">
        <ele>83.883716</ele>
        <time>2017-06-04T19:44:59.857Z</time>
      </trkpt>
      <trkpt lat="44.040124" lon="5.055689">
        <ele>84.707818</ele>
        <time>2017-06-04T19:46:21.766Z</time>
      </trkpt>
      <trkpt lat="44.039417" lon="5.055928">
        <ele>84.955481</ele>
        <time>2017-06-04T19:46:39.743Z</time>
      </trkpt>
      <trkpt lat="44.038888" lon="5.056060">
        <ele>85.203882</ele>
        <time>2017-06-04T19:46:53.220Z</time>
      </trkpt>
      <trkpt lat="44.038704" lon="5.056112">
        <ele>85.317615</ele>
        <time>2017-06-04T19:46:57.957Z</time>
      </trkpt>
      <trkpt lat="44.038034" lon="5.056340">
        <ele>85.735428</ele>
        <time>2017-06-04T19:47:15.659Z</time>
      </trkpt>
      <trkpt lat="44.037767" lon="5.056374">
        <ele>85.897837</ele>
        <time>2017-06-04T19:47:22.652Z</time>
      </trkpt>
      <trkpt lat="44.036881" lon="5.056753">
        <ele>86.523223</ele>
        <time>2017-06-04T19:47:46.530Z</time>
      </trkpt>
      <trkpt lat="44.036226" lon="5.057061">
        <ele>87.026899</ele>
        <time>2017-06-04T19:48:04.708Z</time>
      </trkpt>
      <trkpt lat="44.034775" lon="5.057830">
        <ele>88.040902</ele>
        <time>2017-06-04T19:48:45.229Z</time>
      </trkpt>
      <trkpt lat="44.034101" lon="5.058246">
        <ele>88.488661</ele>
        <time>2017-06-04T19:49:03.812Z</time>
      </trkpt>
      <trkpt lat="44.033948" lon="5.058291">
        <ele>88.571049</ele>
        <time>2017-06-04T19:49:07.710Z</time>
      </trkpt>
      <trkpt lat="44.033853" lon="5.058292">
        <ele>88.609239</ele>
        <time>2017-06-04T19:49:10.005Z</time>
      </trkpt>
      <trkpt lat="44.033620" lon="5.058300">
        <ele>88.702930</ele>
        <time>2017-06-04T19:49:15.782Z</time>
      </trkpt>
      <trkpt lat="44.033155" lon="5.058240">
        <ele>88.890657</ele>
        <time>2017-06-04T19:49:27.078Z</time>
      </trkpt>
      <trkpt lat="44.032563" lon="5.058061">
        <ele>89.134190</ele>
        <time>2017-06-04T19:49:42.042Z</time>
      </trkpt>
      <trkpt lat="44.031788" lon="5.057807">
        <ele>89.534225</ele>
        <time>2017-06-04T19:50:02.093Z</time>
      </trkpt>
      <trkpt lat="44.031652" lon="5.057744">
        <ele>89.616780</ele>
        <time>2017-06-04T19:50:05.676Z</time>
      </trkpt>
      <trkpt lat="44.031589" lon="5.057703">
        <ele>89.656838</ele>
        <time>2017-06-04T19:50:07.539Z</time>
      </trkpt>
      <trkpt lat="44.031581" lon="5.057748">
        <ele>89.676032</ele>
        <time>2017-06-04T19:50:08.405Z</time>
      </trkpt>
      <trkpt lat="44.031576" lon="5.057784">
        <ele>89.691214</ele>
        <time>2017-06-04T19:50:09.093Z</time>
      </trkpt>
      <trkpt lat="44.031571" lon="5.057901">
        <ele>89.739744</ele>
        <time>2017-06-04T19:50:11.255Z</time>
      </trkpt>
      <trkpt lat="44.031571" lon="5.057922">
        <ele>89.748440</ele>
        <time>2017-06-04T19:50:11.641Z</time>
      </trkpt>
      <trkpt lat="44.031570" lon="5.058157">
        <ele>89.845746</ele>
        <time>2017-06-04T19:50:15.963Z</time>
      </trkpt>
      <trkpt lat="44.031583" lon="5.058537">
        <ele>90.003267</ele>
        <time>2017-06-04T19:50:22.954Z</time>
      </trkpt>
      <trkpt lat="44.031589" lon="5.059065">
        <ele>90.221919</ele>
        <time>2017-06-04T19:50:32.696Z</time>
      </trkpt>
      <trkpt lat="44.031400" lon="5.059126">
        <ele>90.330441</ele>
        <time>2017-06-04T19:50:37.782Z</time>
      </trkpt>
      <trkpt lat="44.030878" lon="5.059560">
        <ele>90.640907</ele>
        <time>2017-06-04T19:50:53.264Z</time>
      </trkpt>
      <trkpt lat="44.030336" lon="5.060146">
        <ele>90.991367</ele>
        <time>2017-06-04T19:51:10.478Z</time>
      </trkpt>
      <trkpt lat="44.030075" lon="5.060273">
        <ele>91.132528</ele>
        <time>2017-06-04T19:51:17.388Z</time>
      </trkpt>
      <trkpt lat="44.029847" lon="5.060359">
        <ele>91.254625</ele>
        <time>2017-06-04T19:51:23.136Z</time>
      </trkpt>
      <trkpt lat="44.029648" lon="5.060463">
        <ele>91.368640</ele>
        <time>2017-06-04T19:51:28.376Z</time>
      </trkpt>
      <trkpt lat="44.027996" lon="5.061763">
        <ele>92.417398</ele>
        <time>2017-06-04T19:52:16.681Z</time>
      </trkpt>
      <trkpt lat="44.026720" lon="5.062800">
        <ele>93.306375</ele>
        <time>2017-06-04T19:52:55.070Z</time>
      </trkpt>
      <trkpt lat="44.026514" lon="5.062970">
        <ele>93.325681</ele>
        <time>2017-06-04T19:53:01.105Z</time>
      </trkpt>
      <trkpt lat="44.025457" lon="5.062444">
        <ele>93.416159</ele>
        <time>2017-06-04T19:53:27.249Z</time>
      </trkpt>
      <trkpt lat="44.024148" lon="5.061667">
        <ele>93.115005</ele>
        <time>2017-06-04T19:53:58.729Z</time>
      </trkpt>
      <trkpt lat="44.023721" lon="5.061639">
        <ele>92.977859</ele>
        <time>2017-06-04T19:54:08.260Z</time>
      </trkpt>
      <trkpt lat="44.022980" lon="5.061456">
        <ele>92.452967</ele>
        <time>2017-06-04T19:54:24.439Z</time>
      </trkpt>
      <trkpt lat="44.022634" lon="5.061304">
        <ele>92.090149</ele>
        <time>2017-06-04T19:54:31.936Z</time>
      </trkpt>
      <trkpt lat="44.022586" lon="5.061274">
        <ele>92.037529</ele>
        <time>2017-06-04T19:54:32.890Z</time>
      </trkpt>
      <trkpt lat="44.021907" lon="5.060734">
        <ele>91.255415</ele>
        <time>2017-06-04T19:54:48.416Z</time>
      </trkpt>
      <trkpt lat="44.021580" lon="5.060413">
        <ele>90.800688</ele>
        <time>2017-06-04T19:54:56.130Z</time>
      </trkpt>
      <trkpt lat="44.021070" lon="5.059719">
        <ele>89.907719</ele>
        <time>2017-06-04T19:55:09.768Z</time>
      </trkpt>
      <trkpt lat="44.020822" lon="5.059521">
        <ele>89.549845</ele>
        <time>2017-06-04T19:55:15.349Z</time>
      </trkpt>
      <trkpt lat="44.020096" lon="5.059391">
        <ele>88.761903</ele>
        <time>2017-06-04T19:55:30.066Z</time>
      </trkpt>
      <trkpt lat="44.019253" lon="5.059002">
        <ele>88.411392</ele>
        <time>2017-06-04T19:55:49.521Z</time>
      </trkpt>
      <trkpt lat="44.018393" lon="5.058684">
        <ele>88.049220</ele>
        <time>2017-06-04T19:56:09.589Z</time>
      </trkpt>
      <trkpt lat="44.018381" lon="5.058608">
        <ele>88.022367</ele>
        <time>2017-06-04T19:56:11.066Z</time>
      </trkpt>
      <trkpt lat="44.018366" lon="5.058498">
        <ele>87.983729</ele>
        <time>2017-06-04T19:56:12.836Z</time>
      </trkpt>
      <trkpt lat="44.018358" lon="5.058460">
        <ele>87.970065</ele>
        <time>2017-06-04T19:56:13.454Z</time>
      </trkpt>
      <trkpt lat="44.018339" lon="5.058411">
        <ele>87.950853</ele>
        <time>2017-06-04T19:56:14.281Z</time>
      </trkpt>
      <trkpt lat="44.017967" lon="5.058400">
        <ele>87.772289</ele>
        <time>2017-06-04T19:56:22.549Z</time>
      </trkpt>
      <trkpt lat="44.017325" lon="5.058074">
        <ele>87.444294</ele>
        <time>2017-06-04T19:56:37.357Z</time>
      </trkpt>
      <trkpt lat="44.015944" lon="5.057070">
        <ele>86.145871</ele>
        <time>2017-06-04T19:57:08.987Z</time>
      </trkpt>
      <trkpt lat="44.015086" lon="5.056362">
        <ele>85.255316</ele>
        <time>2017-06-04T19:57:29.073Z</time>
      </trkpt>
      <trkpt lat="44.015011" lon="5.056298">
        <ele>85.187663</ele>
        <time>2017-06-04T19:57:30.850Z</time>
      </trkpt>
      <trkpt lat="44.014916" lon="5.056216">
        <ele>85.101698</ele>
        <time>2017-06-04T19:57:33.040Z</time>
      </trkpt>
      <trkpt lat="44.014351" lon="5.055760">
        <ele>84.599451</ele>
        <time>2017-06-04T19:57:46.581Z</time>
      </trkpt>
      <trkpt lat="44.013750" lon="5.055384">
        <ele>84.120924</ele>
        <time>2017-06-04T19:58:00.652Z</time>
      </trkpt>
      <trkpt lat="44.013531" lon="5.055251">
        <ele>84.046153</ele>
        <time>2017-06-04T19:58:05.715Z</time>
      </trkpt>
      <trkpt lat="44.013458" lon="5.055142">
        <ele>84.012639</ele>
        <time>2017-06-04T19:58:08.171Z</time>
      </trkpt>
      <trkpt lat="44.012999" lon="5.055172">
        <ele>83.868869</ele>
        <time>2017-06-04T19:58:17.980Z</time>
      </trkpt>
      <trkpt lat="44.012403" lon="5.055162">
        <ele>83.682381</ele>
        <time>2017-06-04T19:58:30.731Z</time>
      </trkpt>
      <trkpt lat="44.012236" lon="5.055158">
        <ele>83.630123</ele>
        <time>2017-06-04T19:58:34.203Z</time>
      </trkpt>
      <trkpt lat="44.012133" lon="5.055153">
        <ele>83.597877</ele>
        <time>2017-06-04T19:58:36.352Z</time>
      </trkpt>
      <trkpt lat="44.011647" lon="5.055148">
        <ele>83.483946</ele>
        <time>2017-06-04T19:58:46.776Z</time>
      </trkpt>
      <trkpt lat="44.011355" lon="5.055099">
        <ele>83.418574</ele>
        <time>2017-06-04T19:58:53.069Z</time>
      </trkpt>
      <trkpt lat="44.010992" lon="5.055039">
        <ele>83.337323</ele>
        <time>2017-06-04T19:59:00.860Z</time>
      </trkpt>
      <trkpt lat="44.010783" lon="5.055005">
        <ele>83.290553</ele>
        <time>2017-06-04T19:59:05.248Z</time>
      </trkpt>
      <trkpt lat="44.010349" lon="5.054933">
        <ele>83.193405</ele>
        <time>2017-06-04T19:59:14.609Z</time>
      </trkpt>
      <trkpt lat="44.010282" lon="5.054925">
        <ele>83.178459</ele>
        <time>2017-06-04T19:59:16.146Z</time>
      </trkpt>
      <trkpt lat="44.009973" lon="5.054962">
        <ele>83.193721</ele>
        <time>2017-06-04T19:59:22.822Z</time>
      </trkpt>
      <trkpt lat="44.008635" lon="5.055293">
        <ele>83.264673</ele>
        <time>2017-06-04T19:59:53.854Z</time>
      </trkpt>
      <trkpt lat="44.008295" lon="5.055406">
        <ele>83.251301</ele>
        <time>2017-06-04T20:00:01.655Z</time>
      </trkpt>
      <trkpt lat="44.007932" lon="5.055515">
        <ele>83.216497</ele>
        <time>2017-06-04T20:00:09.921Z</time>
      </trkpt>
      <trkpt lat="44.007408" lon="5.055670">
        <ele>83.166290</ele>
        <time>2017-06-04T20:00:21.687Z</time>
      </trkpt>
      <trkpt lat="44.006961" lon="5.055846">
        <ele>83.122751</ele>
        <time>2017-06-04T20:00:31.790Z</time>
      </trkpt>
      <trkpt lat="44.006532" lon="5.056014">
        <ele>83.064339</ele>
        <time>2017-06-04T20:00:41.231Z</time>
      </trkpt>
      <trkpt lat="44.006333" lon="5.056072">
        <ele>83.030911</ele>
        <time>2017-06-04T20:00:45.399Z</time>
      </trkpt>
      <trkpt lat="44.006125" lon="5.056132">
        <ele>82.995987</ele>
        <time>2017-06-04T20:00:49.763Z</time>
      </trkpt>
      <trkpt lat="44.005718" lon="5.056177">
        <ele>82.928862</ele>
        <time>2017-06-04T20:00:58.307Z</time>
      </trkpt>
      <trkpt lat="44.005035" lon="5.056195">
        <ele>82.816553</ele>
        <time>2017-06-04T20:01:13.616Z</time>
      </trkpt>
      <trkpt lat="44.004479" lon="5.056247">
        <ele>82.994953</ele>
        <time>2017-06-04T20:01:26.476Z</time>
      </trkpt>
      <trkpt lat="44.004228" lon="5.056312">
        <ele>83.090524</ele>
        <time>2017-06-04T20:01:32.515Z</time>
      </trkpt>
      <trkpt lat="44.004053" lon="5.056390">
        <ele>83.159314</ele>
        <time>2017-06-04T20:01:36.865Z</time>
      </trkpt>
      <trkpt lat="44.003581" lon="5.056686">
        <ele>83.353138</ele>
        <time>2017-06-04T20:01:49.320Z</time>
      </trkpt>
      <trkpt lat="44.003562" lon="5.056698">
        <ele>83.360950</ele>
        <time>2017-06-04T20:01:49.844Z</time>
      </trkpt>
      <trkpt lat="44.003139" lon="5.056964">
        <ele>83.521500</ele>
        <time>2017-06-04T20:02:01.281Z</time>
      </trkpt>
      <trkpt lat="44.002671" lon="5.057244">
        <ele>83.665585</ele>
        <time>2017-06-04T20:02:13.860Z</time>
      </trkpt>
      <trkpt lat="44.002035" lon="5.057652">
        <ele>83.863671</ele>
        <time>2017-06-04T20:02:30.142Z</time>
      </trkpt>
      <trkpt lat="44.001789" lon="5.057813">
        <ele>83.940563</ele>
        <time>2017-06-04T20:02:36.324Z</time>
      </trkpt>
      <trkpt lat="44.001454" lon="5.058023">
        <ele>83.874036</ele>
        <time>2017-06-04T20:02:44.494Z</time>
      </trkpt>
      <trkpt lat="44.001164" lon="5.058205">
        <ele>83.686272</ele>
        <time>2017-06-04T20:02:51.117Z</time>
      </trkpt>
      <trkpt lat="44.000541" lon="5.058598">
        <ele>83.282548</ele>
        <time>2017-06-04T20:03:04.831Z</time>
      </trkpt>
      <trkpt lat="44.000496" lon="5.058628">
        <ele>83.253098</ele>
        <time>2017-06-04T20:03:05.751Z</time>
      </trkpt>
      <trkpt lat="44.000459" lon="5.058563">
        <ele>83.217911</ele>
        <time>2017-06-04T20:03:06.953Z</time>
      </trkpt>
      <trkpt lat="44.000102" lon="5.057918">
        <ele>82.845123</ele>
        <time>2017-06-04T20:03:18.550Z</time>
      </trkpt>
      <trkpt lat="44.000075" lon="5.057867">
        <ele>82.804990</ele>
        <time>2017-06-04T20:03:19.313Z</time>
      </trkpt>
      <trkpt lat="43.999735" lon="5.057240">
        <ele>82.307339</ele>
        <time>2017-06-04T20:03:30.359Z</time>
      </trkpt>
      <trkpt lat="43.999547" lon="5.056908">
        <ele>82.039544</ele>
        <time>2017-06-04T20:03:36.118Z</time>
      </trkpt>
      <trkpt lat="43.999332" lon="5.056521">
        <ele>81.729631</ele>
        <time>2017-06-04T20:03:42.707Z</time>
      </trkpt>
      <trkpt lat="43.998856" lon="5.055708">
        <ele>81.171625</ele>
        <time>2017-06-04T20:03:58.283Z</time>
      </trkpt>
      <trkpt lat="43.998809" lon="5.055624">
        <ele>81.129998</ele>
        <time>2017-06-04T20:04:00.138Z</time>
      </trkpt>
      <trkpt lat="43.998599" lon="5.055249">
        <ele>80.944102</ele>
        <time>2017-06-04T20:04:07.493Z</time>
      </trkpt>
      <trkpt lat="43.998460" lon="5.054972">
        <ele>80.811991</ele>
        <time>2017-06-04T20:04:12.313Z</time>
      </trkpt>
      <trkpt lat="43.998447" lon="5.054944">
        <ele>80.798955</ele>
        <time>2017-06-04T20:04:12.815Z</time>
      </trkpt>
      <trkpt lat="43.998387" lon="5.054957">
        <ele>80.765935</ele>
        <time>2017-06-04T20:04:14.468Z</time>
      </trkpt>
      <trkpt lat="43.998202" lon="5.055128">
        <ele>80.645128</ele>
        <time>2017-06-04T20:04:18.922Z</time>
      </trkpt>
      <trkpt lat="43.998093" lon="5.055235">
        <ele>80.572568</ele>
        <time>2017-06-04T20:04:21.797Z</time>
      </trkpt>
      <trkpt lat="43.997990" lon="5.055328">
        <ele>80.505782</ele>
        <time>2017-06-04T20:04:24.520Z</time>
      </trkpt>
      <trkpt lat="43.997856" lon="5.055470">
        <ele>80.414159</ele>
        <time>2017-06-04T20:04:27.619Z</time>
      </trkpt>
      <trkpt lat="43.997769" lon="5.055553">
        <ele>80.345699</ele>
        <time>2017-06-04T20:04:29.991Z</time>
      </trkpt>
      <trkpt lat="43.997724" lon="5.055595">
        <ele>80.276783</ele>
        <time>2017-06-04T20:04:31.062Z</time>
      </trkpt>
      <trkpt lat="43.997676" lon="5.055627">
        <ele>80.209096</ele>
        <time>2017-06-04T20:04:32.051Z</time>
      </trkpt>
      <trkpt lat="43.997627" lon="5.055636">
        <ele>80.146252</ele>
        <time>2017-06-04T20:04:33.002Z</time>
      </trkpt>
      <trkpt lat="43.997576" lon="5.055613">
        <ele>80.078079</ele>
        <time>2017-06-04T20:04:33.852Z</time>
      </trkpt>
      <trkpt lat="43.996779" lon="5.054443">
        <ele>78.604251</ele>
        <time>2017-06-04T20:04:56.035Z</time>
      </trkpt>
      <trkpt lat="43.996681" lon="5.054290">
        <ele>78.416872</ele>
        <time>2017-06-04T20:04:58.754Z</time>
      </trkpt>
      <trkpt lat="43.996642" lon="5.054231">
        <ele>78.343583</ele>
        <time>2017-06-04T20:04:59.767Z</time>
      </trkpt>
      <trkpt lat="43.996267" lon="5.053647">
        <ele>77.498825</ele>
        <time>2017-06-04T20:05:09.679Z</time>
      </trkpt>
      <trkpt lat="43.996088" lon="5.053370">
        <ele>77.060932</ele>
        <time>2017-06-04T20:05:14.459Z</time>
      </trkpt>
      <trkpt lat="43.995908" lon="5.053092">
        <ele>76.621070</ele>
        <time>2017-06-04T20:05:19.200Z</time>
      </trkpt>
      <trkpt lat="43.995836" lon="5.052979">
        <ele>76.443546</ele>
        <time>2017-06-04T20:05:21.211Z</time>
      </trkpt>
      <trkpt lat="43.995768" lon="5.052886">
        <ele>76.287597</ele>
        <time>2017-06-04T20:05:22.891Z</time>
      </trkpt>
      <trkpt lat="43.995681" lon="5.052778">
        <ele>76.096913</ele>
        <time>2017-06-04T20:05:24.919Z</time>
      </trkpt>
      <trkpt lat="43.995353" lon="5.052401">
        <ele>75.401143</ele>
        <time>2017-06-04T20:05:32.888Z</time>
      </trkpt>
      <trkpt lat="43.994962" lon="5.051948">
        <ele>74.792259</ele>
        <time>2017-06-04T20:05:42.579Z</time>
      </trkpt>
      <trkpt lat="43.994527" lon="5.051493">
        <ele>74.251613</ele>
        <time>2017-06-04T20:05:53.006Z</time>
      </trkpt>
      <trkpt lat="43.994453" lon="5.051415">
        <ele>74.159383</ele>
        <time>2017-06-04T20:05:54.837Z</time>
      </trkpt>
      <trkpt lat="43.994290" lon="5.051243">
        <ele>73.956147</ele>
        <time>2017-06-04T20:05:58.798Z</time>
      </trkpt>
      <trkpt lat="43.994236" lon="5.051186">
        <ele>73.888810</ele>
        <time>2017-06-04T20:06:00.118Z</time>
      </trkpt>
      <trkpt lat="43.993959" lon="5.050894">
        <ele>73.543560</ele>
        <time>2017-06-04T20:06:06.986Z</time>
      </trkpt>
      <trkpt lat="43.993248" lon="5.050142">
        <ele>72.824681</ele>
        <time>2017-06-04T20:06:24.700Z</time>
      </trkpt>
      <trkpt lat="43.992825" lon="5.049716">
        <ele>72.431575</ele>
        <time>2017-06-04T20:06:35.152Z</time>
      </trkpt>
      <trkpt lat="43.992596" lon="5.049482">
        <ele>72.217681</ele>
        <time>2017-06-04T20:06:40.872Z</time>
      </trkpt>
      <trkpt lat="43.992502" lon="5.049385">
        <ele>72.129576</ele>
        <time>2017-06-04T20:06:43.110Z</time>
      </trkpt>
      <trkpt lat="43.992442" lon="5.049315">
        <ele>72.070625</ele>
        <time>2017-06-04T20:06:44.681Z</time>
      </trkpt>
      <trkpt lat="43.992348" lon="5.049147">
        <ele>71.954716</ele>
        <time>2017-06-04T20:06:47.825Z</time>
      </trkpt>
      <trkpt lat="43.992288" lon="5.048975">
        <ele>71.849566</ele>
        <time>2017-06-04T20:06:50.443Z</time>
      </trkpt>
      <trkpt lat="43.992227" lon="5.048940">
        <ele>71.799107</ele>
        <time>2017-06-04T20:06:51.780Z</time>
      </trkpt>
      <trkpt lat="43.992187" lon="5.048940">
        <ele>71.768523</ele>
        <time>2017-06-04T20:06:52.602Z</time>
      </trkpt>
      <trkpt lat="43.992145" lon="5.048975">
        <ele>71.731080</ele>
        <time>2017-06-04T20:06:53.638Z</time>
      </trkpt>
      <trkpt lat="43.992053" lon="5.048940">
        <ele>71.658149</ele>
        <time>2017-06-04T20:06:55.518Z</time>
      </trkpt>
      <trkpt lat="43.991756" lon="5.048712">
        <ele>71.398727</ele>
        <time>2017-06-04T20:07:02.221Z</time>
      </trkpt>
      <trkpt lat="43.991488" lon="5.048497">
        <ele>71.162130</ele>
        <time>2017-06-04T20:07:08.292Z</time>
      </trkpt>
      <trkpt lat="43.989709" lon="5.047167">
        <ele>69.661044</ele>
        <time>2017-06-04T20:07:48.531Z</time>
      </trkpt>
      <trkpt lat="43.989295" lon="5.046912">
        <ele>69.329769</ele>
        <time>2017-06-04T20:07:57.547Z</time>
      </trkpt>
      <trkpt lat="43.988624" lon="5.046615">
        <ele>69.191914</ele>
        <time>2017-06-04T20:08:11.554Z</time>
      </trkpt>
      <trkpt lat="43.987948" lon="5.046443">
        <ele>69.074556</ele>
        <time>2017-06-04T20:08:26.638Z</time>
      </trkpt>
      <trkpt lat="43.987417" lon="5.046257">
        <ele>69.036562</ele>
        <time>2017-06-04T20:08:39.573Z</time>
      </trkpt>
      <trkpt lat="43.987194" lon="5.046146">
        <ele>69.116745</ele>
        <time>2017-06-04T20:08:45.483Z</time>
      </trkpt>
      <trkpt lat="43.986861" lon="5.045954">
        <ele>69.238784</ele>
        <time>2017-06-04T20:08:54.765Z</time>
      </trkpt>
      <trkpt lat="43.986349" lon="5.045573">
        <ele>69.435380</ele>
        <time>2017-06-04T20:09:08.893Z</time>
      </trkpt>
      <trkpt lat="43.986050" lon="5.045281">
        <ele>69.559084</ele>
        <time>2017-06-04T20:09:17.078Z</time>
      </trkpt>
      <trkpt lat="43.985780" lon="5.044973">
        <ele>69.369894</ele>
        <time>2017-06-04T20:09:24.766Z</time>
      </trkpt>
      <trkpt lat="43.985633" lon="5.044796">
        <ele>69.141564</ele>
        <time>2017-06-04T20:09:28.830Z</time>
      </trkpt>
      <trkpt lat="43.985328" lon="5.044487">
        <ele>68.698468</ele>
        <time>2017-06-04T20:09:36.175Z</time>
      </trkpt>
      <trkpt lat="43.984962" lon="5.044144">
        <ele>68.180237</ele>
        <time>2017-06-04T20:09:44.392Z</time>
      </trkpt>
      <trkpt lat="43.984233" lon="5.043627">
        <ele>67.060136</ele>
        <time>2017-06-04T20:09:58.788Z</time>
      </trkpt>
      <trkpt lat="43.983718" lon="5.043336">
        <ele>66.032885</ele>
        <time>2017-06-04T20:10:08.489Z</time>
      </trkpt>
      <trkpt lat="43.981679" lon="5.042330">
        <ele>62.311626</ele>
        <time>2017-06-04T20:10:47.471Z</time>
      </trkpt>
      <trkpt lat="43.979531" lon="5.040969">
        <ele>59.049925</ele>
        <time>2017-06-04T20:11:30.939Z</time>
      </trkpt>
      <trkpt lat="43.978416" lon="5.040350">
        <ele>58.610167</ele>
        <time>2017-06-04T20:11:56.123Z</time>
      </trkpt>
      <trkpt lat="43.977320" lon="5.039792">
        <ele>58.409862</ele>
        <time>2017-06-04T20:12:22.500Z</time>
      </trkpt>
      <trkpt lat="43.977291" lon="5.039776">
        <ele>58.410066</ele>
        <time>2017-06-04T20:12:23.187Z</time>
      </trkpt>
      <trkpt lat="43.976870" lon="5.039567">
        <ele>58.412992</ele>
        <time>2017-06-04T20:12:33.115Z</time>
      </trkpt>
      <trkpt lat="43.976169" lon="5.039218">
        <ele>58.417865</ele>
        <time>2017-06-04T20:12:49.644Z</time>
      </trkpt>
      <trkpt lat="43.975951" lon="5.039114">
        <ele>58.417776</ele>
        <time>2017-06-04T20:12:54.662Z</time>
      </trkpt>
      <trkpt lat="43.975738" lon="5.038994">
        <ele>58.416744</ele>
        <time>2017-06-04T20:12:59.742Z</time>
      </trkpt>
      <trkpt lat="43.975619" lon="5.038947">
        <ele>58.416189</ele>
        <time>2017-06-04T20:13:02.382Z</time>
      </trkpt>
      <trkpt lat="43.975399" lon="5.038894">
        <ele>58.415187</ele>
        <time>2017-06-04T20:13:07.400Z</time>
      </trkpt>
      <trkpt lat="43.975136" lon="5.038873">
        <ele>58.414005</ele>
        <time>2017-06-04T20:13:13.152Z</time>
      </trkpt>
      <trkpt lat="43.974841" lon="5.038889">
        <ele>58.412680</ele>
        <time>2017-06-04T20:13:19.657Z</time>
      </trkpt>
      <trkpt lat="43.974559" lon="5.038937">
        <ele>58.411406</ele>
        <time>2017-06-04T20:13:25.939Z</time>
      </trkpt>
      <trkpt lat="43.974374" lon="5.038972">
        <ele>58.410568</ele>
        <time>2017-06-04T20:13:30.147Z</time>
      </trkpt>
      <trkpt lat="43.974320" lon="5.038988">
        <ele>58.409754</ele>
        <time>2017-06-04T20:13:31.502Z</time>
      </trkpt>
      <trkpt lat="43.974267" lon="5.039003">
        <ele>58.405545</ele>
        <time>2017-06-04T20:13:32.741Z</time>
      </trkpt>
      <trkpt lat="43.974226" lon="5.039016">
        <ele>58.402272</ele>
        <time>2017-06-04T20:13:33.707Z</time>
      </trkpt>
      <trkpt lat="43.974082" lon="5.039085">
        <ele>58.390418</ele>
        <time>2017-06-04T20:13:37.280Z</time>
      </trkpt>
      <trkpt lat="43.974051" lon="5.039102">
        <ele>58.387825</ele>
        <time>2017-06-04T20:13:38.100Z</time>
      </trkpt>
      <trkpt lat="43.973781" lon="5.039254">
        <ele>58.365153</ele>
        <time>2017-06-04T20:13:44.656Z</time>
      </trkpt>
      <trkpt lat="43.973563" lon="5.039420">
        <ele>58.345807</ele>
        <time>2017-06-04T20:13:50.315Z</time>
      </trkpt>
      <trkpt lat="43.973230" lon="5.039751">
        <ele>58.313944</ele>
        <time>2017-06-04T20:13:59.125Z</time>
      </trkpt>
      <trkpt lat="43.973140" lon="5.039889">
        <ele>58.303514</ele>
        <time>2017-06-04T20:14:01.916Z</time>
      </trkpt>
      <trkpt lat="43.972792" lon="5.040309">
        <ele>58.268908</ele>
        <time>2017-06-04T20:14:11.795Z</time>
      </trkpt>
      <trkpt lat="43.972584" lon="5.040214">
        <ele>58.259756</ele>
        <time>2017-06-04T20:14:16.407Z</time>
      </trkpt>
      <trkpt lat="43.972092" lon="5.039950">
        <ele>58.237709</ele>
        <time>2017-06-04T20:14:28.401Z</time>
      </trkpt>
      <trkpt lat="43.971308" lon="5.039638">
        <ele>58.203619</ele>
        <time>2017-06-04T20:14:46.993Z</time>
      </trkpt>
      <trkpt lat="43.969441" lon="5.039518">
        <ele>58.975326</ele>
        <time>2017-06-04T20:15:34.094Z</time>
      </trkpt>
      <trkpt lat="43.969033" lon="5.039455">
        <ele>59.120264</ele>
        <time>2017-06-04T20:15:44.575Z</time>
      </trkpt>
      <trkpt lat="43.968720" lon="5.039356">
        <ele>59.216280</ele>
        <time>2017-06-04T20:15:52.533Z</time>
      </trkpt>
      <trkpt lat="43.967806" lon="5.038761">
        <ele>59.518182</ele>
        <time>2017-06-04T20:16:16.797Z</time>
      </trkpt>
      <trkpt lat="43.967724" lon="5.038701">
        <ele>59.545902</ele>
        <time>2017-06-04T20:16:18.899Z</time>
      </trkpt>
      <trkpt lat="43.967129" lon="5.038262">
        <ele>59.697481</ele>
        <time>2017-06-04T20:16:34.923Z</time>
      </trkpt>
      <trkpt lat="43.965993" lon="5.037768">
        <ele>59.950583</ele>
        <time>2017-06-04T20:17:03.642Z</time>
      </trkpt>
      <trkpt lat="43.965676" lon="5.037705">
        <ele>59.988441</ele>
        <time>2017-06-04T20:17:11.217Z</time>
      </trkpt>
      <trkpt lat="43.965498" lon="5.037692">
        <ele>60.007713</ele>
        <time>2017-06-04T20:17:15.864Z</time>
      </trkpt>
      <trkpt lat="43.964991" lon="5.036666">
        <ele>60.104562</ele>
        <time>2017-06-04T20:17:36.933Z</time>
      </trkpt>
      <trkpt lat="43.964719" lon="5.036209">
        <ele>60.150710</ele>
        <time>2017-06-04T20:17:47.134Z</time>
      </trkpt>
      <trkpt lat="43.963968" lon="5.035307">
        <ele>59.674293</ele>
        <time>2017-06-04T20:18:08.925Z</time>
      </trkpt>
      <trkpt lat="43.963684" lon="5.034784">
        <ele>59.445583</ele>
        <time>2017-06-04T20:18:18.941Z</time>
      </trkpt>
      <trkpt lat="43.963482" lon="5.034397">
        <ele>59.277785</ele>
        <time>2017-06-04T20:18:26.057Z</time>
      </trkpt>
      <trkpt lat="43.963157" lon="5.033698">
        <ele>58.526966</ele>
        <time>2017-06-04T20:18:38.065Z</time>
      </trkpt>
      <trkpt lat="43.962302" lon="5.032073">
        <ele>56.770616</ele>
        <time>2017-06-04T20:19:06.094Z</time>
      </trkpt>
      <trkpt lat="43.962008" lon="5.031621">
        <ele>56.325674</ele>
        <time>2017-06-04T20:19:14.801Z</time>
      </trkpt>
      <trkpt lat="43.961816" lon="5.031434">
        <ele>56.087750</ele>
        <time>2017-06-04T20:19:19.544Z</time>
      </trkpt>
      <trkpt lat="43.961621" lon="5.031353">
        <ele>55.881233</ele>
        <time>2017-06-04T20:19:23.654Z</time>
      </trkpt>
      <trkpt lat="43.960980" lon="5.031955">
        <ele>55.151193</ele>
        <time>2017-06-04T20:19:39.680Z</time>
      </trkpt>
      <trkpt lat="43.959963" lon="5.032790">
        <ele>54.590300</ele>
        <time>2017-06-04T20:20:05.003Z</time>
      </trkpt>
      <trkpt lat="43.959490" lon="5.032111">
        <ele>54.359638</ele>
        <time>2017-06-04T20:20:20.043Z</time>
      </trkpt>
      <trkpt lat="43.959503" lon="5.032064">
        <ele>54.362724</ele>
        <time>2017-06-04T20:20:20.862Z</time>
      </trkpt>
      <trkpt lat="43.959497" lon="5.032015">
        <ele>54.365770</ele>
        <time>2017-06-04T20:20:21.674Z</time>
      </trkpt>
      <trkpt lat="43.959463" lon="5.031966">
        <ele>54.369940</ele>
        <time>2017-06-04T20:20:22.776Z</time>
      </trkpt>
      <trkpt lat="43.959415" lon="5.031959">
        <ele>54.374049</ele>
        <time>2017-06-04T20:20:23.867Z</time>
      </trkpt>
      <trkpt lat="43.959375" lon="5.031999">
        <ele>54.378245</ele>
        <time>2017-06-04T20:20:24.966Z</time>
      </trkpt>
      <trkpt lat="43.959363" lon="5.032065">
        <ele>54.382417</ele>
        <time>2017-06-04T20:20:26.046Z</time>
      </trkpt>
      <trkpt lat="43.959189" lon="5.032109">
        <ele>54.397473</ele>
        <time>2017-06-04T20:20:30.048Z</time>
      </trkpt>
      <trkpt lat="43.958582" lon="5.032446">
        <ele>54.453122</ele>
        <time>2017-06-04T20:20:45.323Z</time>
      </trkpt>
      <trkpt lat="43.957867" lon="5.032804">
        <ele>54.587154</ele>
        <time>2017-06-04T20:21:04.389Z</time>
      </trkpt>
      <trkpt lat="43.957843" lon="5.032682">
        <ele>54.623046</ele>
        <time>2017-06-04T20:21:06.632Z</time>
      </trkpt>
      <trkpt lat="43.957664" lon="5.032446">
        <ele>54.720339</ele>
        <time>2017-06-04T20:21:12.602Z</time>
      </trkpt>
      <trkpt lat="43.957290" lon="5.032705">
        <ele>54.885092</ele>
        <time>2017-06-04T20:21:23.141Z</time>
      </trkpt>
      <trkpt lat="43.957011" lon="5.032912">
        <ele>55.009791</ele>
        <time>2017-06-04T20:21:31.215Z</time>
      </trkpt>
      <trkpt lat="43.956612" lon="5.031896">
        <ele>55.111843</ele>
        <time>2017-06-04T20:21:51.161Z</time>
      </trkpt>
      <trkpt lat="43.956386" lon="5.031305">
        <ele>54.972050</ele>
        <time>2017-06-04T20:22:02.084Z</time>
      </trkpt>
      <trkpt lat="43.956292" lon="5.030941">
        <ele>54.891269</ele>
        <time>2017-06-04T20:22:08.115Z</time>
      </trkpt>
      <trkpt lat="43.956111" lon="5.030914">
        <ele>54.838444</ele>
        <time>2017-06-04T20:22:11.895Z</time>
      </trkpt>
      <trkpt lat="43.956059" lon="5.030990">
        <ele>54.816541</ele>
        <time>2017-06-04T20:22:13.328Z</time>
      </trkpt>
      <trkpt lat="43.955773" lon="5.031314">
        <ele>54.709450</ele>
        <time>2017-06-04T20:22:21.176Z</time>
      </trkpt>
      <trkpt lat="43.955453" lon="5.031501">
        <ele>54.570880</ele>
        <time>2017-06-04T20:22:28.539Z</time>
      </trkpt>
      <trkpt lat="43.954600" lon="5.032756">
        <ele>54.033624</ele>
        <time>2017-06-04T20:22:55.303Z</time>
      </trkpt>
      <trkpt lat="43.953539" lon="5.034213">
        <ele>53.744261</ele>
        <time>2017-06-04T20:23:29.191Z</time>
      </trkpt>
      <trkpt lat="43.952310" lon="5.035220">
        <ele>53.561010</ele>
        <time>2017-06-04T20:24:01.676Z</time>
      </trkpt>
      <trkpt lat="43.952210" lon="5.035350">
        <ele>53.544204</ele>
        <time>2017-06-04T20:24:04.786Z</time>
      </trkpt>
      <trkpt lat="43.952043" lon="5.035678">
        <ele>53.508716</ele>
        <time>2017-06-04T20:24:11.371Z</time>
      </trkpt>
      <trkpt lat="43.951816" lon="5.036291">
        <ele>53.447823</ele>
        <time>2017-06-04T20:24:22.632Z</time>
      </trkpt>
      <trkpt lat="43.951353" lon="5.037709">
        <ele>53.267683</ele>
        <time>2017-06-04T20:24:47.938Z</time>
      </trkpt>
      <trkpt lat="43.951130" lon="5.038120">
        <ele>53.207536</ele>
        <time>2017-06-04T20:24:56.293Z</time>
      </trkpt>
      <trkpt lat="43.950570" lon="5.038780">
        <ele>53.119186</ele>
        <time>2017-06-04T20:25:12.862Z</time>
      </trkpt>
      <trkpt lat="43.949930" lon="5.039900">
        <ele>53.035458</ele>
        <time>2017-06-04T20:25:36.225Z</time>
      </trkpt>
      <trkpt lat="43.948820" lon="5.041070">
        <ele>53.133047</ele>
        <time>2017-06-04T20:26:09.076Z</time>
      </trkpt>
      <trkpt lat="43.948370" lon="5.041720">
        <ele>53.216450</ele>
        <time>2017-06-04T20:26:24.661Z</time>
      </trkpt>
      <trkpt lat="43.947560" lon="5.042310">
        <ele>53.287361</ele>
        <time>2017-06-04T20:26:46.439Z</time>
      </trkpt>
      <trkpt lat="43.945590" lon="5.043950">
        <ele>53.389285</ele>
        <time>2017-06-04T20:27:39.572Z</time>
      </trkpt>
      <trkpt lat="43.945040" lon="5.044300">
        <ele>53.421983</ele>
        <time>2017-06-04T20:27:53.643Z</time>
      </trkpt>
      <trkpt lat="43.944340" lon="5.044840">
        <ele>53.628265</ele>
        <time>2017-06-04T20:28:12.981Z</time>
      </trkpt>
      <trkpt lat="43.944100" lon="5.044960">
        <ele>53.693978</ele>
        <time>2017-06-04T20:28:19.244Z</time>
      </trkpt>
      <trkpt lat="43.943890" lon="5.045010">
        <ele>53.748866</ele>
        <time>2017-06-04T20:28:24.500Z</time>
      </trkpt>
      <trkpt lat="43.943760" lon="5.045100">
        <ele>53.786287</ele>
        <time>2017-06-04T20:28:28.048Z</time>
      </trkpt>
      <trkpt lat="43.943140" lon="5.045700">
        <ele>53.967537</ele>
        <time>2017-06-04T20:28:46.498Z</time>
      </trkpt>
      <trkpt lat="43.942680" lon="5.046050">
        <ele>54.086881</ele>
        <time>2017-06-04T20:28:59.298Z</time>
      </trkpt>
      <trkpt lat="43.942440" lon="5.046340">
        <ele>54.159264</ele>
        <time>2017-06-04T20:29:07.024Z</time>
      </trkpt>
      <trkpt lat="43.942200" lon="5.046740">
        <ele>54.244568</ele>
        <time>2017-06-04T20:29:15.979Z</time>
      </trkpt>
      <trkpt lat="43.942030" lon="5.046920">
        <ele>54.270531</ele>
        <time>2017-06-04T20:29:20.985Z</time>
      </trkpt>
      <trkpt lat="43.941280" lon="5.047280">
        <ele>54.222874</ele>
        <time>2017-06-04T20:29:39.007Z</time>
      </trkpt>
      <trkpt lat="43.940980" lon="5.047320">
        <ele>54.204773</ele>
        <time>2017-06-04T20:29:45.853Z</time>
      </trkpt>
      <trkpt lat="43.940580" lon="5.047310">
        <ele>54.180747</ele>
        <time>2017-06-04T20:29:54.992Z</time>
      </trkpt>
      <trkpt lat="43.940400" lon="5.047370">
        <ele>54.169629</ele>
        <time>2017-06-04T20:29:59.223Z</time>
      </trkpt>
      <trkpt lat="43.940110" lon="5.047590">
        <ele>54.162644</ele>
        <time>2017-06-04T20:30:06.799Z</time>
      </trkpt>
      <trkpt lat="43.939850" lon="5.047900">
        <ele>54.157222</ele>
        <time>2017-06-04T20:30:14.665Z</time>
      </trkpt>
      <trkpt lat="43.939190" lon="5.048920">
        <ele>54.141597</ele>
        <time>2017-06-04T20:30:37.507Z</time>
      </trkpt>
      <trkpt lat="43.939120" lon="5.049100">
        <ele>54.139266</ele>
        <time>2017-06-04T20:30:40.961Z</time>
      </trkpt>
      <trkpt lat="43.938940" lon="5.050040">
        <ele>54.311343</ele>
        <time>2017-06-04T20:30:57.488Z</time>
      </trkpt>
      <trkpt lat="43.938860" lon="5.050210">
        <ele>54.349010</ele>
        <time>2017-06-04T20:31:00.925Z</time>
      </trkpt>
      <trkpt lat="43.936998" lon="5.053010">
        <ele>55.488802</ele>
        <time>2017-06-04T20:32:09.138Z</time>
      </trkpt>
      <trkpt lat="43.936925" lon="5.053135">
        <ele>55.574706</ele>
        <time>2017-06-04T20:32:12.181Z</time>
      </trkpt>
      <trkpt lat="43.936943" lon="5.053371">
        <ele>55.720157</ele>
        <time>2017-06-04T20:32:17.128Z</time>
      </trkpt>
      <trkpt lat="43.937275" lon="5.055031">
        <ele>56.776064</ele>
        <time>2017-06-04T20:32:50.919Z</time>
      </trkpt>
      <trkpt lat="43.937363" lon="5.055598">
        <ele>57.062211</ele>
        <time>2017-06-04T20:33:01.966Z</time>
      </trkpt>
      <trkpt lat="43.936789" lon="5.055766">
        <ele>57.191119</ele>
        <time>2017-06-04T20:33:16.125Z</time>
      </trkpt>
      <trkpt lat="43.935660" lon="5.056070">
        <ele>57.438546</ele>
        <time>2017-06-04T20:33:43.008Z</time>
      </trkpt>
      <trkpt lat="43.935567" lon="5.056171">
        <ele>57.451425</ele>
        <time>2017-06-04T20:33:45.580Z</time>
      </trkpt>
      <trkpt lat="43.935519" lon="5.056270">
        <ele>57.460801</ele>
        <time>2017-06-04T20:33:47.757Z</time>
      </trkpt>
      <trkpt lat="43.935343" lon="5.057067">
        <ele>57.526286</ele>
        <time>2017-06-04T20:34:01.632Z</time>
      </trkpt>
      <trkpt lat="43.935166" lon="5.057398">
        <ele>57.558673</ele>
        <time>2017-06-04T20:34:08.707Z</time>
      </trkpt>
      <trkpt lat="43.935065" lon="5.057489">
        <ele>57.571806</ele>
        <time>2017-06-04T20:34:11.555Z</time>
      </trkpt>
      <trkpt lat="43.934652" lon="5.057495">
        <ele>57.616861</ele>
        <time>2017-06-04T20:34:21.570Z</time>
      </trkpt>
      <trkpt lat="43.933948" lon="5.057690">
        <ele>57.652480</ele>
        <time>2017-06-04T20:34:38.834Z</time>
      </trkpt>
      <trkpt lat="43.933319" lon="5.057976">
        <ele>57.677719</ele>
        <time>2017-06-04T20:34:54.201Z</time>
      </trkpt>
      <trkpt lat="43.933200" lon="5.058025">
        <ele>57.682452</ele>
        <time>2017-06-04T20:34:57.112Z</time>
      </trkpt>
      <trkpt lat="43.933129" lon="5.058010">
        <ele>57.685191</ele>
        <time>2017-06-04T20:34:58.692Z</time>
      </trkpt>
      <trkpt lat="43.933058" lon="5.057997">
        <ele>57.687922</ele>
        <time>2017-06-04T20:35:00.320Z</time>
      </trkpt>
      <trkpt lat="43.933021" lon="5.057972">
        <ele>57.689491</ele>
        <time>2017-06-04T20:35:01.277Z</time>
      </trkpt>
      <trkpt lat="43.933019" lon="5.057958">
        <ele>57.689883</ele>
        <time>2017-06-04T20:35:01.485Z</time>
      </trkpt>
      <trkpt lat="43.932995" lon="5.057901">
        <ele>57.691696</ele>
        <time>2017-06-04T20:35:02.574Z</time>
      </trkpt>
      <trkpt lat="43.932910" lon="5.057850">
        <ele>57.695227</ele>
        <time>2017-06-04T20:35:04.734Z</time>
      </trkpt>
      <trkpt lat="43.932864" lon="5.057865">
        <ele>57.697029</ele>
        <time>2017-06-04T20:35:05.756Z</time>
      </trkpt>
      <trkpt lat="43.932837" lon="5.057891">
        <ele>57.698085</ele>
        <time>2017-06-04T20:35:06.470Z</time>
      </trkpt>
      <trkpt lat="43.932817" lon="5.057925">
        <ele>57.697785</ele>
        <time>2017-06-04T20:35:07.197Z</time>
      </trkpt>
      <trkpt lat="43.932802" lon="5.057985">
        <ele>57.697350</ele>
        <time>2017-06-04T20:35:08.222Z</time>
      </trkpt>
      <trkpt lat="43.932805" lon="5.058047">
        <ele>57.696924</ele>
        <time>2017-06-04T20:35:09.244Z</time>
      </trkpt>
      <trkpt lat="43.932770" lon="5.058158">
        <ele>57.696094</ele>
        <time>2017-06-04T20:35:11.168Z</time>
      </trkpt>
      <trkpt lat="43.932736" lon="5.058259">
        <ele>57.695331</ele>
        <time>2017-06-04T20:35:13.008Z</time>
      </trkpt>
      <trkpt lat="43.932677" lon="5.058302">
        <ele>57.694697</ele>
        <time>2017-06-04T20:35:14.425Z</time>
      </trkpt>
      <trkpt lat="43.932065" lon="5.058609">
        <ele>57.688508</ele>
        <time>2017-06-04T20:35:29.209Z</time>
      </trkpt>
      <trkpt lat="43.931960" lon="5.058659">
        <ele>57.687453</ele>
        <time>2017-06-04T20:35:31.740Z</time>
      </trkpt>
      <trkpt lat="43.931091" lon="5.059099">
        <ele>57.785206</ele>
        <time>2017-06-04T20:35:53.851Z</time>
      </trkpt>
      <trkpt lat="43.931035" lon="5.059097">
        <ele>57.808696</ele>
        <time>2017-06-04T20:35:55.293Z</time>
      </trkpt>
      <trkpt lat="43.930890" lon="5.059089">
        <ele>57.869546</ele>
        <time>2017-06-04T20:35:58.727Z</time>
      </trkpt>
      <trkpt lat="43.930870" lon="5.059066">
        <ele>57.880435</ele>
        <time>2017-06-04T20:35:59.325Z</time>
      </trkpt>
      <trkpt lat="43.930853" lon="5.059054">
        <ele>57.888432</ele>
        <time>2017-06-04T20:35:59.781Z</time>
      </trkpt>
      <trkpt lat="43.930821" lon="5.059042">
        <ele>57.902331</ele>
        <time>2017-06-04T20:36:00.621Z</time>
      </trkpt>
      <trkpt lat="43.930769" lon="5.059051">
        <ele>57.924304</ele>
        <time>2017-06-04T20:36:01.844Z</time>
      </trkpt>
      <trkpt lat="43.930732" lon="5.059083">
        <ele>57.942582</ele>
        <time>2017-06-04T20:36:02.945Z</time>
      </trkpt>
      <trkpt lat="43.930714" lon="5.059111">
        <ele>57.953917</ele>
        <time>2017-06-04T20:36:03.662Z</time>
      </trkpt>
      <trkpt lat="43.930700" lon="5.059153">
        <ele>57.967893</ele>
        <time>2017-06-04T20:36:04.469Z</time>
      </trkpt>
      <trkpt lat="43.930695" lon="5.059197">
        <ele>57.981345</ele>
        <time>2017-06-04T20:36:05.288Z</time>
      </trkpt>
      <trkpt lat="43.930699" lon="5.059237">
        <ele>57.993540</ele>
        <time>2017-06-04T20:36:05.997Z</time>
      </trkpt>
      <trkpt lat="43.930723" lon="5.059303">
        <ele>58.015868</ele>
        <time>2017-06-04T20:36:07.219Z</time>
      </trkpt>
      <trkpt lat="43.930745" lon="5.059329">
        <ele>58.027982</ele>
        <time>2017-06-04T20:36:07.877Z</time>
      </trkpt>
      <trkpt lat="43.930582" lon="5.059386">
        <ele>58.098466</ele>
        <time>2017-06-04T20:36:12.032Z</time>
      </trkpt>
      <trkpt lat="43.930073" lon="5.059679">
        <ele>58.329515</ele>
        <time>2017-06-04T20:36:26.070Z</time>
      </trkpt>
      <trkpt lat="43.929860" lon="5.059909">
        <ele>58.443750</ele>
        <time>2017-06-04T20:36:33.225Z</time>
      </trkpt>
      <trkpt lat="43.929659" lon="5.060106">
        <ele>58.562063</ele>
        <time>2017-06-04T20:36:39.556Z</time>
      </trkpt>
      <trkpt lat="43.929328" lon="5.060439">
        <ele>58.758628</ele>
        <time>2017-06-04T20:36:49.905Z</time>
      </trkpt>
      <trkpt lat="43.928990" lon="5.060748">
        <ele>58.953237</ele>
        <time>2017-06-04T20:36:59.916Z</time>
      </trkpt>
      <trkpt lat="43.928393" lon="5.061300">
        <ele>59.298160</ele>
        <time>2017-06-04T20:37:17.576Z</time>
      </trkpt>
      <trkpt lat="43.928056" lon="5.061588">
        <ele>59.489945</ele>
        <time>2017-06-04T20:37:27.488Z</time>
      </trkpt>
      <trkpt lat="43.927076" lon="5.062709">
        <ele>60.105379</ele>
        <time>2017-06-04T20:37:59.703Z</time>
      </trkpt>
      <trkpt lat="43.926770" lon="5.062947">
        <ele>60.191515</ele>
        <time>2017-06-04T20:38:08.325Z</time>
      </trkpt>
      <trkpt lat="43.926718" lon="5.063000">
        <ele>60.197424</ele>
        <time>2017-06-04T20:38:10.096Z</time>
      </trkpt>
      <trkpt lat="43.926656" lon="5.063063">
        <ele>60.204461</ele>
        <time>2017-06-04T20:38:12.016Z</time>
      </trkpt>
      <trkpt lat="43.926638" lon="5.063059">
        <ele>60.206131</ele>
        <time>2017-06-04T20:38:12.441Z</time>
      </trkpt>
      <trkpt lat="43.926605" lon="5.063069">
        <ele>60.209225</ele>
        <time>2017-06-04T20:38:13.199Z</time>
      </trkpt>
      <trkpt lat="43.926594" lon="5.063078">
        <ele>60.210394</ele>
        <time>2017-06-04T20:38:13.503Z</time>
      </trkpt>
      <trkpt lat="43.926513" lon="5.063074">
        <ele>60.217818</ele>
        <time>2017-06-04T20:38:15.303Z</time>
      </trkpt>
      <trkpt lat="43.926298" lon="5.063062">
        <ele>60.237528</ele>
        <time>2017-06-04T20:38:20.374Z</time>
      </trkpt>
      <trkpt lat="43.926247" lon="5.063053">
        <ele>60.242237</ele>
        <time>2017-06-04T20:38:21.526Z</time>
      </trkpt>
      <trkpt lat="43.926101" lon="5.063024">
        <ele>60.255746</ele>
        <time>2017-06-04T20:38:24.756Z</time>
      </trkpt>
      <trkpt lat="43.926047" lon="5.063013">
        <ele>60.260745</ele>
        <time>2017-06-04T20:38:26.019Z</time>
      </trkpt>
      <trkpt lat="43.925853" lon="5.062977">
        <ele>60.278673</ele>
        <time>2017-06-04T20:38:30.423Z</time>
      </trkpt>
      <trkpt lat="43.925737" lon="5.062875">
        <ele>60.291250</ele>
        <time>2017-06-04T20:38:33.290Z</time>
      </trkpt>
      <trkpt lat="43.925722" lon="5.062829">
        <ele>60.294581</ele>
        <time>2017-06-04T20:38:34.166Z</time>
      </trkpt>
      <trkpt lat="43.925690" lon="5.062790">
        <ele>60.298481</ele>
        <time>2017-06-04T20:38:35.167Z</time>
      </trkpt>
      <trkpt lat="43.925637" lon="5.062773">
        <ele>60.303464</ele>
        <time>2017-06-04T20:38:36.357Z</time>
      </trkpt>
      <trkpt lat="43.925503" lon="5.062621">
        <ele>60.319314</ele>
        <time>2017-06-04T20:38:40.208Z</time>
      </trkpt>
      <trkpt lat="43.925229" lon="5.062267">
        <ele>60.293341</ele>
        <time>2017-06-04T20:38:48.705Z</time>
      </trkpt>
      <trkpt lat="43.925209" lon="5.062235">
        <ele>60.286154</ele>
        <time>2017-06-04T20:38:49.334Z</time>
      </trkpt>
      <trkpt lat="43.924934" lon="5.061866">
        <ele>60.196083</ele>
        <time>2017-06-04T20:38:57.670Z</time>
      </trkpt>
      <trkpt lat="43.924612" lon="5.061433">
        <ele>60.090507</ele>
        <time>2017-06-04T20:39:07.448Z</time>
      </trkpt>
      <trkpt lat="43.924484" lon="5.061261">
        <ele>60.048553</ele>
        <time>2017-06-04T20:39:11.427Z</time>
      </trkpt>
      <trkpt lat="43.923979" lon="5.060583">
        <ele>59.916865</ele>
        <time>2017-06-04T20:39:27.281Z</time>
      </trkpt>
      <trkpt lat="43.922189" lon="5.058139">
        <ele>59.888380</ele>
        <time>2017-06-04T20:40:26.194Z</time>
      </trkpt>
      <trkpt lat="43.921641" lon="5.057393">
        <ele>59.817291</ele>
        <time>2017-06-04T20:40:43.137Z</time>
      </trkpt>
      <trkpt lat="43.920968" lon="5.056547">
        <ele>60.053816</ele>
        <time>2017-06-04T20:41:03.808Z</time>
      </trkpt>
      <trkpt lat="43.920775" lon="5.056305">
        <ele>60.146174</ele>
        <time>2017-06-04T20:41:10.152Z</time>
      </trkpt>
      <trkpt lat="43.920706" lon="5.056287">
        <ele>60.171107</ele>
        <time>2017-06-04T20:41:11.873Z</time>
      </trkpt>
      <trkpt lat="43.920632" lon="5.056175">
        <ele>60.209984</ele>
        <time>2017-06-04T20:41:14.664Z</time>
      </trkpt>
      <trkpt lat="43.920581" lon="5.056065">
        <ele>60.243447</ele>
        <time>2017-06-04T20:41:17.035Z</time>
      </trkpt>
      <trkpt lat="43.920511" lon="5.055968">
        <ele>60.278571</ele>
        <time>2017-06-04T20:41:19.654Z</time>
      </trkpt>
      <trkpt lat="43.920504" lon="5.055921">
        <ele>60.290848</ele>
        <time>2017-06-04T20:41:20.541Z</time>
      </trkpt>
      <trkpt lat="43.920500" lon="5.055911">
        <ele>60.293774</ele>
        <time>2017-06-04T20:41:20.760Z</time>
      </trkpt>
      <trkpt lat="43.920428" lon="5.055854">
        <ele>60.323209</ele>
        <time>2017-06-04T20:41:22.776Z</time>
      </trkpt>
      <trkpt lat="43.920401" lon="5.055860">
        <ele>60.332919</ele>
        <time>2017-06-04T20:41:23.640Z</time>
      </trkpt>
      <trkpt lat="43.920394" lon="5.055864">
        <ele>60.335608</ele>
        <time>2017-06-04T20:41:23.838Z</time>
      </trkpt>
      <trkpt lat="43.920387" lon="5.055870">
        <ele>60.338529</ele>
        <time>2017-06-04T20:41:24.055Z</time>
      </trkpt>
      <trkpt lat="43.920305" lon="5.055858">
        <ele>60.367812</ele>
        <time>2017-06-04T20:41:26.094Z</time>
      </trkpt>
      <trkpt lat="43.920173" lon="5.055853">
        <ele>60.414707</ele>
        <time>2017-06-04T20:41:29.620Z</time>
      </trkpt>
      <trkpt lat="43.919894" lon="5.055786">
        <ele>60.580030</ele>
        <time>2017-06-04T20:41:37.000Z</time>
      </trkpt>
      <trkpt lat="43.919873" lon="5.055766">
        <ele>60.596683</ele>
        <time>2017-06-04T20:41:37.681Z</time>
      </trkpt>
      <trkpt lat="43.919681" lon="5.055723">
        <ele>60.723862</ele>
        <time>2017-06-04T20:41:42.984Z</time>
      </trkpt>
      <trkpt lat="43.919556" lon="5.055702">
        <ele>60.806200</ele>
        <time>2017-06-04T20:41:46.067Z</time>
      </trkpt>
      <trkpt lat="43.919501" lon="5.055680">
        <ele>60.843630</ele>
        <time>2017-06-04T20:41:47.589Z</time>
      </trkpt>
      <trkpt lat="43.919460" lon="5.055666">
        <ele>60.871240</ele>
        <time>2017-06-04T20:41:48.777Z</time>
      </trkpt>
      <trkpt lat="43.919392" lon="5.055627">
        <ele>60.919353</ele>
        <time>2017-06-04T20:41:50.573Z</time>
      </trkpt>
      <trkpt lat="43.919355" lon="5.055590">
        <ele>60.949172</ele>
        <time>2017-06-04T20:41:51.929Z</time>
      </trkpt>
      <trkpt lat="43.919346" lon="5.055553">
        <ele>60.967568</ele>
        <time>2017-06-04T20:41:52.650Z</time>
      </trkpt>
      <trkpt lat="43.919264" lon="5.055464">
        <ele>61.035633</ele>
        <time>2017-06-04T20:41:55.115Z</time>
      </trkpt>
      <trkpt lat="43.919228" lon="5.055461">
        <ele>61.059217</ele>
        <time>2017-06-04T20:41:56.059Z</time>
      </trkpt>
      <trkpt lat="43.919166" lon="5.055493">
        <ele>61.102472</ele>
        <time>2017-06-04T20:41:57.873Z</time>
      </trkpt>
      <trkpt lat="43.919132" lon="5.055548">
        <ele>61.136612</ele>
        <time>2017-06-04T20:41:59.181Z</time>
      </trkpt>
      <trkpt lat="43.919118" lon="5.055607">
        <ele>61.165873</ele>
        <time>2017-06-04T20:42:00.221Z</time>
      </trkpt>
      <trkpt lat="43.919102" lon="5.055638">
        <ele>61.183837</ele>
        <time>2017-06-04T20:42:01.104Z</time>
      </trkpt>
      <trkpt lat="43.918957" lon="5.055806">
        <ele>61.307341</ele>
        <time>2017-06-04T20:42:05.593Z</time>
      </trkpt>
      <trkpt lat="43.918891" lon="5.055831">
        <ele>61.352079</ele>
        <time>2017-06-04T20:42:07.466Z</time>
      </trkpt>
      <trkpt lat="43.918773" lon="5.055849">
        <ele>61.429707</ele>
        <time>2017-06-04T20:42:10.465Z</time>
      </trkpt>
      <trkpt lat="43.918441" lon="5.055844">
        <ele>61.614477</ele>
        <time>2017-06-04T20:42:18.365Z</time>
      </trkpt>
      <trkpt lat="43.918399" lon="5.055847">
        <ele>61.614477</ele>
        <time>2017-06-04T20:42:19.450Z</time>
      </trkpt>
      <trkpt lat="43.918304" lon="5.055847">
        <ele>61.614477</ele>
        <time>2017-06-04T20:42:21.498Z</time>
      </trkpt>
      <trkpt lat="43.917620" lon="5.055837">
        <ele>61.614477</ele>
        <time>2017-06-04T20:42:37.004Z</time>
      </trkpt>
      <trkpt lat="43.917566" lon="5.055794">
        <ele>61.614477</ele>
        <time>2017-06-04T20:42:38.291Z</time>
      </trkpt>
      <trkpt lat="43.917509" lon="5.055726">
        <ele>61.614477</ele>
        <time>2017-06-04T20:42:39.907Z</time>
      </trkpt>
      <trkpt lat="43.917494" lon="5.055694">
        <ele>61.614477</ele>
        <time>2017-06-04T20:42:40.538Z</time>
      </trkpt>
      <trkpt lat="43.917478" lon="5.055672">
        <ele>61.614477</ele>
        <time>2017-06-04T20:42:41.020Z</time>
      </trkpt>
      <trkpt lat="43.917446" lon="5.055580">
        <ele>61.614477</ele>
        <time>2017-06-04T20:42:42.593Z</time>
      </trkpt>
      <trkpt lat="43.917442" lon="5.055492">
        <ele>61.614477</ele>
        <time>2017-06-04T20:42:43.929Z</time>
      </trkpt>
      <trkpt lat="43.917450" lon="5.055386">
        <ele>61.614477</ele>
        <time>2017-06-04T20:42:45.531Z</time>
      </trkpt>
      <trkpt lat="43.917469" lon="5.055243">
        <ele>61.614477</ele>
        <time>2017-06-04T20:42:47.676Z</time>
      </trkpt>
      <trkpt lat="43.917478" lon="5.054998">
        <ele>61.614477</ele>
        <time>2017-06-04T20:42:51.427Z</time>
      </trkpt>
    </trkseg>
  </trk>
</gpx>